ftp/pub/palmer/observations_modified/2019/August/AR190829_BASE.txt

Download

Sample DateTime	Unit Id	WS Avg 2min	WD Avg 2min	WGS 10min	WGD 10min	Air Temp	Rel Humidity	Dew Point	Pyranometer	Quantum	Air Pressure	Snow Level	Rainfall	PW Current	Visibility	CBase 1	CBase 2	CBase 3	Vert Vis
2019/08/29  00:00:01  BASE  0.3822   177  1.45236  181  -1.5  100   -1.5  0     0     979.9    NA       0.0000   9999     790   0     0    
2019/08/29  00:01:01  BASE  0.75852  180  1.45236  181  -1.5  100   -1.5  0     0     979.9    NA       0.0000   9999     750   0     0    
2019/08/29  00:02:01  BASE  1.16424  184  1.66404  189  -1.6  100   -1.6  0     0     979.9    NA       0.0000   9999     660   0     0    
2019/08/29  00:03:01  BASE  1.07604  182  1.66404  189  -1.6  100   -1.6  0     0     979.9    NA       0.0000   9999     750   0     0    
2019/08/29  00:04:01  BASE  1.07604  177  1.66404  189  -1.6  100   -1.6  0     0     979.9    NA       0.0000   9999     690   0     0    
2019/08/29  00:05:01  BASE  1.33476  176  1.66404  189  -1.6  100   -1.6  0     0     979.9    NA       0.0000   9999     720   0     0    
2019/08/29  00:06:01  BASE  1.38768  184  1.66404  189  -1.6  100   -1.6  0     0     979.9    NA       0.0000   9999     720   0     0    
2019/08/29  00:07:01  BASE  1.30536  185  1.66404  189  -1.6  100   -1.6  0     0     979.9    NA       0.0000   9999     690   0     0    
2019/08/29  00:08:01  BASE  1.25832  182  1.66404  189  -1.6  100   -1.6  0     0     979.9    NA       0.0000   9999     660   0     0    
2019/08/29  00:09:01  BASE  1.37592  180  1.66404  189  -1.6  100   -1.6  0     0     980.0    NA       0.0000   9999     690   0     0    
2019/08/29  00:10:01  BASE  1.51704  175  1.69344  180  -1.6  100   -1.6  0     0     979.9    NA       0.0000   9999     660   0     0    
2019/08/29  00:11:01  BASE  1.53468  172  1.69344  180  -1.6  100   -1.6  0     0     979.9    NA       0.0000   9999     660   0     0    
2019/08/29  00:12:01  BASE  1.50528  166  1.69344  180  -1.6  100   -1.6  0     0     979.9    NA       0.0000   9999     690   0     0    
2019/08/29  00:13:01  BASE  1.37592  162  1.69344  180  -1.6  100   -1.6  0     0     979.9    NA       0.0000   9999     660   0     0    
2019/08/29  00:14:01  BASE  1.19364  161  1.69344  180  -1.6  100   -1.6  0     0     979.9    NA       0.0000   9999     690   0     0    
2019/08/29  00:15:01  BASE  1.08192  156  1.69344  180  -1.6  100   -1.6  0     0     979.9    NA       0.0000   9999     690   0     0    
2019/08/29  00:16:01  BASE  1.09368  153  1.69344  180  -1.6  100   -1.6  0     0     979.9    NA       0.0000   9999     690   0     0    
2019/08/29  00:17:01  BASE  1.14072  149  1.69344  180  -1.7  100   -1.7  0     0     979.9    NA       0.0000   9999     690   0     0    
2019/08/29  00:18:01  BASE  1.0584   141  1.69344  180  -1.7  100   -1.7  0     0     979.9    NA       0.0000   9999     660   0     0    
2019/08/29  00:19:01  BASE  0.94668  139  1.69344  180  -1.7  100   -1.7  0     0     979.9    NA       0.0000   9999     660   0     0    
2019/08/29  00:20:01  BASE  0.95844  133  1.66404  160  -1.7  100   -1.7  0     0     980.0    NA       0.0000   9999     660   0     0    
2019/08/29  00:21:01  BASE  1.04664  123  1.66404  160  -1.8  100   -1.8  0     0     980.0    NA       0.0000   9999     690   0     0    
2019/08/29  00:22:01  BASE  1.2348   123  1.54056  125  -1.7  100   -1.7  0     0     980.0    NA       0.0000   9999     690   0     0    
2019/08/29  00:23:01  BASE  1.42884  131  1.57584  134  -1.7  100   -1.7  0     0     980.1    NA       0.0000   9999     660   0     0    
2019/08/29  00:24:01  BASE  1.45236  139  1.66404  153  -1.7  100   -1.7  0     0     980.0    NA       0.0000   9999     660   0     0    
2019/08/29  00:25:01  BASE  1.40532  149  1.66404  153  -1.7  100   -1.7  0     0     980.1    NA       0.0000   9999     660   0     0    
2019/08/29  00:26:01  BASE  1.3524   153  1.66404  153  -1.7  100   -1.7  0     0     980.0    NA       0.0000   9999     660   0     0    
2019/08/29  00:27:01  BASE  1.40532  152  1.66404  153  -1.7  100   -1.7  0     0     980.1    NA       0.0000   9999     660   0     0    
2019/08/29  00:28:01  BASE  1.51704  152  1.69344  153  -1.7  100   -1.7  0     0     980.1    NA       0.0000   9999     660   0     0    
2019/08/29  00:29:01  BASE  1.5288   145  1.69344  143  -1.7  100   -1.7  0     0     980.0    NA       0.0000   9999     660   0     0    
2019/08/29  00:30:01  BASE  1.57584  141  1.75224  138  -1.7  100   -1.7  0     0     980.0    NA       0.0000   9999     660   0     0    
2019/08/29  00:31:01  BASE  1.60524  141  1.75224  138  -1.7  100   -1.7  0     0     980.1    NA       0.0000   9999     660   0     0    
2019/08/29  00:32:01  BASE  1.71108  141  1.93452  140  -1.7  100   -1.7  0     0     980.0    NA       0.0000   9999     660   0     0    
2019/08/29  00:33:01  BASE  1.76988  140  1.93452  140  -1.7  100   -1.7  0     0     980.1    NA       0.0000   9999     660   0     0    
2019/08/29  00:34:01  BASE  1.69344  142  1.96392  146  -1.7  100   -1.7  0     0     980.1    NA       0.0000   9999     690   0     0    
2019/08/29  00:35:01  BASE  1.63464  142  1.96392  146  -1.6  100   -1.6  0     0     980.0    NA       0.0000   9999     690   0     0    
2019/08/29  00:36:01  BASE  1.55232  136  1.96392  146  -1.6  100   -1.6  0     0     980.0    NA       0.0000   9999     590   0     0    
2019/08/29  00:37:01  BASE  1.58172  135  1.96392  138  -1.6  100   -1.6  0     0     979.9    NA       0.0000   9999     660   0     0    
2019/08/29  00:38:01  BASE  1.64052  131  2.1462   133  -1.5  100   -1.5  0     0     980.0    NA       0.0000   9999     660   0     0    
2019/08/29  00:39:01  BASE  1.74048  132  2.21088  146  -1.5  100   -1.5  0     0     979.9    NA       0.0000   9999     620   0     0    
2019/08/29  00:40:01  BASE  1.74048  135  2.21088  146  -1.5  100   -1.5  0     0     979.9    NA       0.0000   9999     590   0     0    
2019/08/29  00:41:01  BASE  1.63464  125  2.21088  146  -1.5  100   -1.5  0     0     979.9    NA       0.0000   9999     590   0     0    
2019/08/29  00:42:01  BASE  1.84044  121  2.29908  128  -1.5  100   -1.5  0     0     979.9    NA       0.0000   9999     620   0     0    
2019/08/29  00:43:01  BASE  2.05212  133  2.32848  139  -1.4  100   -1.4  0     0     979.9    NA       0.0000   9999     660   0     0    
2019/08/29  00:44:01  BASE  1.92276  142  2.32848  139  -1.4  100   -1.4  0     0     979.9    NA       0.0000   9999     660   0     0    
2019/08/29  00:45:01  BASE  1.2936   137  2.32848  139  -1.4  100   -1.4  0     0     980.0    NA       0.0000   9999     620   0     0    
2019/08/29  00:46:01  BASE  0.85848  125  2.32848  139  -1.4  100   -1.4  0     0     980.1    NA       0.0000   9999     620   0     0    
2019/08/29  00:47:01  BASE  1.07604  130  2.32848  139  -1.4  100   -1.4  0     0     980.1    NA       0.0000   9999     660   0     0    
2019/08/29  00:48:01  BASE  1.41708  146  2.32848  139  -1.4  100   -1.4  0     0     980.1    NA       0.0000   9999     620   0     0    
2019/08/29  00:49:01  BASE  1.59936  143  2.32848  139  -1.5  100   -1.5  0     0     980.1    NA       0.0000   9999     620   0     0    
2019/08/29  00:50:01  BASE  1.59936  136  2.32848  139  -1.4  100   -1.4  0     0     980.1    NA       0.0000   9999     620   0     0    
2019/08/29  00:51:01  BASE  1.53468  141  2.32848  139  -1.4  100   -1.4  0     0     980.1    NA       0.0000   9999     660   0     0    
2019/08/29  00:52:01  BASE  1.43472  143  2.32848  139  -1.4  100   -1.4  0     0     980.0    NA       0.0000   9999     620   0     0    
2019/08/29  00:53:01  BASE  0.91728  141  2.29908  141  -1.4  100   -1.4  0     0     979.9    NA       0.0000   9999     620   0     0    
2019/08/29  00:54:01  BASE  0.7938   134  1.81692  144  -1.4  100   -1.4  0     0     979.9    NA       0.0000   9999     620   0     0    
2019/08/29  00:55:00  BASE  1.28184  139  1.81692  144  -1.4  100   -1.4  0     0     979.9    NA       0.0000   9999     620   0     0    
2019/08/29  00:56:01  BASE  1.39944  158  1.81692  144  -1.4  100   -1.4  0     0     979.9    NA       0.0000   9999     620   0     0    
2019/08/29  00:57:01  BASE  1.18188  177  1.81692  144  -1.4  100   -1.4  0     0     979.9    NA       0.0000   9999     660   0     0    
2019/08/29  00:58:01  BASE  0.87024  188  1.81692  144  -1.4  100   -1.4  0     0     979.9    NA       0.0000   9999     590   0     0    
2019/08/29  00:59:01  BASE  0.97608  193  1.81692  144  -1.4  100   -1.4  0     0     979.9    NA       0.0000   9999     660   0     0    
2019/08/29  01:00:01  BASE  0.79968  182  1.81692  144  -1.4  100   -1.4  0     0     979.9    NA       0.0000   9999     590   0     0    
2019/08/29  01:01:01  BASE  0.24108  139  1.81692  144  -1.4  100   -1.4  0     0     979.9    NA       0.0000   9999     590   0     0    
2019/08/29  01:02:01  BASE  0.4116   150  1.63464  159  -1.4  100   -1.4  0     0     979.9    NA       0.0000   9999     620   0     0    
2019/08/29  01:03:01  BASE  0.6174   164  1.63464  159  -1.4  100   -1.4  0     0     979.9    NA       0.0000   9999     620   0     0    
2019/08/29  01:04:00  BASE  0.84084  137  1.75224  184  -1.4  100   -1.4  0     0     979.9    NA       0.0000   9999     660   0     0    
2019/08/29  01:05:00  BASE  1.176    169  1.75224  184  -1.4  100   -1.4  0     0     979.9    NA       0.0000   9999     660   0     0    
2019/08/29  01:06:01  BASE  1.07016  197  1.75224  184  -1.4  100   -1.4  0     0     979.9    NA       0.0000   9999     660   0     0    
2019/08/29  01:07:01  BASE  0.93492  179  1.75224  184  -1.4  100   -1.4  0     0     979.9    NA       0.0000   9999     690   0     0    
2019/08/29  01:08:01  BASE  1.06428  162  1.75224  184  -1.3  100   -1.3  0     0     979.9    NA       0.0000   9999     690   0     0    
2019/08/29  01:09:01  BASE  1.19364  153  1.75224  184  -1.3  100   -1.3  0     0     979.9    NA       0.0000   9999     690   0     0    
2019/08/29  01:10:01  BASE  1.21128  137  1.75224  184  -1.3  100   -1.3  0     0     979.9    NA       0.0000   9999     690   0     0    
2019/08/29  01:11:00  BASE  1.22304  116  1.75224  184  -1.4  100   -1.4  0     0     979.9    NA       0.0000   9999     660   0     0    
2019/08/29  01:12:01  BASE  1.25832  105  1.81692  116  -1.4  100   -1.4  0     0     979.9    NA       0.0000   9999     660   0     0    
2019/08/29  01:13:01  BASE  1.0878   104  1.81692  116  -1.4  100   -1.4  0     0     979.9    NA       0.0000   9999     690   0     0    
2019/08/29  01:14:01  BASE  0.4998   105  1.81692  116  -1.4  100   -1.4  0     0     979.9    NA       0.0000   9999     620   0     0    
2019/08/29  01:15:00  BASE  0.09996  87   1.81692  116  -1.4  100   -1.4  0     0     979.9    NA       0.0000   9999     660   0     0    
2019/08/29  01:16:01  BASE  0.07644  79   1.81692  116  -1.3  100   -1.3  0     0     979.9    NA       0.0000   9999     660   0     0    
2019/08/29  01:17:00  BASE  0.39396  97   1.81692  116  -1.3  100   -1.3  0     0     979.9    NA       0.0000   9999     660   0     0    
2019/08/29  01:18:01  BASE  0.60564  109  1.81692  116  -1.3  100   -1.3  0     0     979.9    NA       0.0000   9999     660   0     0    
2019/08/29  01:19:01  BASE  0.65856  130  1.81692  116  -1.3  100   -1.3  0     0     979.9    NA       0.0000   9999     690   0     0    
2019/08/29  01:20:00  BASE  0.39396  142  1.81692  116  -1.3  100   -1.3  0     0     979.9    NA       0.0000   9999     690   0     0    
2019/08/29  01:21:01  BASE  0.24108  145  1.81692  116  -1.3  100   -1.3  0     0     979.9    NA       0.0000   9999     690   0     0    
2019/08/29  01:22:00  BASE  0.24108  154  1.35828  105  -1.3  100   -1.3  0     0     979.9    NA       0.0000   9999     690   0     0    
2019/08/29  01:23:00  BASE  0.10584  145  1.0878   104  -1.3  100   -1.3  0     0     979.9    NA       0.0000   9999     620   0     0    
2019/08/29  01:24:01  BASE  0.24108  133  0.93492  146  -1.3  100   -1.3  0     0     979.9    NA       0.0000   9999     620   0     0    
2019/08/29  01:25:00  BASE  0.44688  138  0.93492  146  -1.3  100   -1.3  0     0     979.9    NA       0.0000   9999     660   0     0    
2019/08/29  01:26:01  BASE  0.4116   146  0.93492  146  -1.4  100   -1.4  0     0     979.9    NA       0.0000   9999     620   0     0    
2019/08/29  01:27:00  BASE  0.49392  138  1.1466   127  -1.4  100   -1.4  0     0     979.9    NA       0.0000   9999     560   0     0    
2019/08/29  01:28:01  BASE  1.029    128  1.57584  122  -1.4  100   -1.4  0     0     979.9    NA       0.0000   9999     620   0     0    
2019/08/29  01:29:01  BASE  1.47     132  2.1168   135  -1.4  100   -1.4  0     0     979.9    NA       0.0000   9999     660   0     0    
2019/08/29  01:30:00  BASE  1.7052   147  2.1168   135  -1.4  100   -1.4  0     0     979.9    NA       0.0000   9999     620   0     0    
2019/08/29  01:31:00  BASE  1.48176  150  2.1168   135  -1.4  100   -1.4  0     0     979.9    NA       0.0000   9999     520   0     0    
2019/08/29  01:32:01  BASE  1.0584   137  2.1168   135  -1.4  100   -1.4  0     0     979.9    NA       0.0000   9999     590   0     0    
2019/08/29  01:33:01  BASE  0.89964  132  2.1168   135  -1.3  100   -1.3  0     0     979.9    NA       0.0000   9999     590   0     0    
2019/08/29  01:34:00  BASE  1.35828  134  2.38728  146  -1.3  100   -1.3  0     0     979.9    NA       0.0000   9999     620   0     0    
2019/08/29  01:35:00  BASE  2.01684  147  2.48136  159  -1.3  100   -1.3  0     0     979.9    NA       0.0000   9999     660   0     0    
2019/08/29  01:36:01  BASE  1.92276  158  2.48136  159  -1.4  100   -1.4  0     0     979.9    NA       0.0000   9999     660   0     0    
2019/08/29  01:37:01  BASE  1.54644  158  2.48136  159  -1.4  100   -1.4  0     0     979.9    NA       0.0000   9999     620   0     0    
2019/08/29  01:38:00  BASE  1.53468  158  2.48136  159  -1.4  100   -1.4  0     0     979.9    NA       0.0000   9999     590   0     0    
2019/08/29  01:39:00  BASE  1.71696  167  2.48136  159  -1.4  100   -1.4  0     0     979.9    NA       0.0000   9999     590   0     0    
2019/08/29  01:40:00  BASE  1.4406   195  2.48136  159  -1.4  100   -1.4  0     0     979.9    NA       0.0000   9999     460   0     0    
2019/08/29  01:41:01  BASE  1.05252  211  2.48136  159  -1.4  100   -1.4  0     0     979.9    NA       0.0000   9999     590   0     0    
2019/08/29  01:42:00  BASE  1.1466   190  2.48136  159  -1.4  100   -1.4  0     0     979.9    NA       0.0000   9999     590   0     0    
2019/08/29  01:43:00  BASE  1.3524   166  2.48136  159  -1.4  100   -1.4  0     0     979.9    NA       0.0000   9999     620   0     0    
2019/08/29  01:44:01  BASE  1.45824  153  2.48136  159  -1.4  100   -1.4  0     0     979.9    NA       0.0000   9999     520   0     0    
2019/08/29  01:45:00  BASE  1.4112   149  2.1462   171  -1.4  100   -1.4  0     0     979.9    NA       0.0000   9999     560   0     0    
2019/08/29  01:46:00  BASE  1.18188  164  1.96392  186  -1.4  100   -1.4  0     0     979.9    NA       0.0000   9999     560   0     0    
2019/08/29  01:47:00  BASE  1.12896  170  1.96392  186  -1.4  100   -1.4  0     0     979.9    NA       0.0000   9999     560   0     0    
2019/08/29  01:48:01  BASE  1.43472  159  1.96392  186  -1.4  100   -1.4  0     0     979.9    NA       0.0000   9999     620   0     0    
2019/08/29  01:49:01  BASE  1.5582   155  1.90512  143  -1.4  100   -1.4  0     0     979.9    NA       0.0000   9999     590   0     0    
2019/08/29  01:50:00  BASE  1.65816  158  2.1462   167  -1.4  100   -1.4  0     0     979.9    NA       0.0000   9999     620   0     0    
2019/08/29  01:51:01  BASE  1.90512  163  2.21088  173  -1.4  100   -1.4  0     0     979.9    NA       0.0000   9999     560   0     0    
2019/08/29  01:52:01  BASE  2.01096  170  2.21088  173  -1.4  100   -1.4  0     0     979.9    NA       0.0000   9999     590   0     0    
2019/08/29  01:53:00  BASE  1.89336  179  2.21088  173  -1.4  100   -1.4  0     0     979.9    NA       0.0000   9999     460   0     0    
2019/08/29  01:54:01  BASE  1.24068  188  2.21088  173  -1.4  100   -1.4  0     0     979.9    NA       0.0000   9999     460   0     0    
2019/08/29  01:55:00  BASE  0.88788  182  2.21088  173  -1.4  100   -1.4  0     0     979.9    NA       0.0000   9999     590   0     0    
2019/08/29  01:56:01  BASE  1.03488  162  2.21088  173  -1.4  100   -1.4  0     0     979.9    NA       0.0000   9999     560   0     0    
2019/08/29  01:57:00  BASE  1.5288   162  2.45196  171  -1.5  100   -1.5  0     0     979.9    NA       0.0000   9999     590   0     0    
2019/08/29  01:58:00  BASE  2.03448  164  2.56956  159  -1.4  100   -1.4  0     0     979.9    NA       0.0000   9999     590   0     0    
2019/08/29  01:59:01  BASE  2.499    154  3.1164   152  -1.5  100   -1.5  0     0     979.9    NA       0.0000   9999     520   0     0    
2019/08/29  02:00:00  BASE  2.7342   150  3.1164   152  -1.5  100   -1.5  0     0     979.8    NA       0.0000   9999     490   0     0    
2019/08/29  02:01:00  BASE  2.205    147  3.1164   152  -1.5  100   -1.5  0     0     979.9    NA       0.0000   9999     490   0     0    
2019/08/29  02:02:01  BASE  1.89924  151  3.1164   152  -1.4  100   -1.4  0     0     979.9    NA       0.0000   9999     560   0     0    
2019/08/29  02:03:00  BASE  2.09916  164  3.1164   152  -1.4  100   -1.4  0     0     979.9    NA       0.0000   9999     590   0     0    
2019/08/29  02:04:01  BASE  1.92276  177  3.1164   152  -1.4  100   -1.4  0     0     979.9    NA       0.0000   9999     590   0     0    
2019/08/29  02:05:00  BASE  1.42884  173  3.1164   152  -1.4  100   -1.4  0     0     979.9    NA       0.0000   9999     620   0     0    
2019/08/29  02:06:01  BASE  1.17012  170  3.1164   152  -1.4  100   -1.4  0     0     979.9    NA       0.0000   9999     620   0     0    
2019/08/29  02:07:00  BASE  1.04076  174  3.1164   152  -1.4  100   -1.4  0     0     979.9    NA       0.0000   9999     620   0     0    
2019/08/29  02:08:01  BASE  0.8526   182  3.1164   152  -1.4  100   -1.4  0     0     979.9    NA       0.0000   9999     620   0     0    
2019/08/29  02:09:00  BASE  0.40572  182  3.02232  144  -1.4  100   -1.4  0     0     979.9    NA       0.0000   9999     590   0     0    
2019/08/29  02:10:00  BASE  0.07644  164  2.59896  169  -1.4  100   -1.4  0     0     979.8    NA       0.0000   9999     590   0     0    
2019/08/29  02:11:00  BASE  0.0294   155  2.59896  169  -1.4  100   -1.4  0     0     979.8    NA       0.0000   9999     590   0     0    
2019/08/29  02:12:01  BASE  0        151  2.59896  169  -1.4  100   -1.4  0     0     979.8    NA       0.0000   9999     590   0     0    
2019/08/29  02:13:00  BASE  0        155  1.81692  178  -1.4  100   -1.4  0     0     979.8    NA       0.0000   9999     560   0     0    
2019/08/29  02:14:01  BASE  0        149  1.48176  166  -1.4  100   -1.4  0     0     979.8    NA       0.0000   9999     560   0     0    
2019/08/29  02:15:00  BASE  0.33516  143  1.32888  163  -1.4  100   -1.4  0     0     979.8    NA       0.0000   9999     590   0     0    
2019/08/29  02:16:01  BASE  0.7644   142  1.24068  189  -1.4  100   -1.4  0     0     979.8    NA       0.0000   9999     590   0     0    
2019/08/29  02:17:00  BASE  0.74676  138  1.24068  189  -1.5  100   -1.5  0     0     979.8    NA       0.0000   9999     590   0     0    
2019/08/29  02:18:00  BASE  0.67032  150  1.0878   153  -1.5  100   -1.5  0     0     979.8    NA       0.0000   9999     560   0     0    
2019/08/29  02:19:00  BASE  0.75264  160  1.0878   153  -1.5  100   -1.5  0     0     979.8    NA       0.0000   9999     560   0     0    
2019/08/29  02:20:00  BASE  0.80556  159  1.0878   153  -1.5  100   -1.5  0     0     979.8    NA       0.0000   9999     560   0     0    
2019/08/29  02:21:01  BASE  1.04664  156  1.54056  160  -1.5  100   -1.5  0     0     979.8    NA       0.0000   9999     620   0     0    
2019/08/29  02:22:01  BASE  1.42296  169  1.81692  185  -1.5  100   -1.5  0     0     979.8    NA       0.0000   9999     660   0     0    
2019/08/29  02:23:00  BASE  1.50528  194  1.81692  185  -1.5  100   -1.5  0     0     979.8    NA       0.0000   9999     620   0     0    
2019/08/29  02:24:01  BASE  1.47     212  1.81692  185  -1.5  100   -1.5  0     0     979.8    NA       0.0000   9999     560   0     0    
2019/08/29  02:25:00  BASE  1.31124  215  1.81692  185  -1.5  100   -1.5  0     0     979.8    NA       0.0000   9999     490   0     0    
2019/08/29  02:26:00  BASE  1.08192  207  1.81692  185  -1.5  100   -1.5  0     0     979.8    NA       0.0000   9999     460   0     0    
2019/08/29  02:27:00  BASE  1.029    192  1.81692  185  -1.5  100   -1.5  0     0     979.8    NA       0.0000   9999     590   0     0    
2019/08/29  02:28:01  BASE  1.01724  185  1.81692  185  -1.5  100   -1.5  0     0     979.8    NA       0.0000   9999     620   0     0    
2019/08/29  02:29:01  BASE  1.07016  187  1.81692  185  -1.5  100   -1.5  0     0     979.8    NA       0.0000   9999     620   0     0    
2019/08/29  02:30:00  BASE  1.06428  191  1.81692  185  -1.5  100   -1.5  0     0     979.8    NA       0.0000   9999     590   0     0    
2019/08/29  02:31:00  BASE  1.11132  207  1.81692  185  -1.5  100   -1.5  0     0     979.8    NA       0.0000   9999     590   0     0    
2019/08/29  02:32:01  BASE  1.04664  219  1.66404  188  -1.5  100   -1.5  0     0     979.8    NA       0.0000   9999     520   0     0    
2019/08/29  02:33:00  BASE  0.59976  218  1.63464  214  -1.5  100   -1.5  0     0     979.8    NA       0.0000   9999     520   0     0    
2019/08/29  02:34:00  BASE  0.15876  215  1.39356  222  -1.5  100   -1.5  0     0     979.8    NA       0.0000   9999     560   0     0    
2019/08/29  02:35:00  BASE  0        214  1.39356  222  -1.5  100   -1.5  0     0     979.8    NA       0.0000   9999     520   0     0    
2019/08/29  02:36:01  BASE  0        225  1.39356  222  -1.5  100   -1.5  0     0     979.8    NA       0.0000   9999     490   0     0    
2019/08/29  02:37:00  BASE  0        234  1.39356  222  -1.6  100   -1.6  0     0     979.8    NA       0.0000   9999     490   0     0    
2019/08/29  02:38:00  BASE  0        237  1.39356  222  -1.6  100   -1.6  0     0     979.8    NA       0.0000   9999     490   0     0    
2019/08/29  02:39:00  BASE  0        239  1.39356  222  -1.6  100   -1.6  0     0     979.8    NA       0.0000   9999     490   0     0    
2019/08/29  02:40:00  BASE  0        252  1.39356  222  -1.6  100   -1.6  0     0     979.8    NA       0.0000   9999     460   0     0    
2019/08/29  02:41:00  BASE  0.17052  355  1.029    214  -1.6  100   -1.6  0     0     979.7    NA       0.0000   9999     460   0     0    
2019/08/29  02:42:01  BASE  0.60564  22   1.0584   34   -1.6  100   -1.6  0     0     979.7    NA       0.0000   9999     490   0     0    
2019/08/29  02:43:00  BASE  1.07604  28   1.51116  34   -1.6  100   -1.6  0     0     979.7    NA       0.0000   9999     490   0     0    
2019/08/29  02:44:01  BASE  1.46412  35   1.81692  44   -1.6  100   -1.6  0     0     979.7    NA       0.0000   9999     460   0     0    
2019/08/29  02:45:00  BASE  1.77576  39   2.69304  31   -1.7  100   -1.7  0     0     979.6    NA       0.0000   9999     460   0     0    
2019/08/29  02:46:00  BASE  1.50528  45   2.69304  31   -1.6  100   -1.6  0     0     979.7    NA       0.0000   9999     560   0     0    
2019/08/29  02:47:00  BASE  1.02312  51   2.69304  31   -1.6  100   -1.6  0     0     979.6    NA       0.0000   9999     460   0     0    
2019/08/29  02:48:00  BASE  1.10544  42   2.69304  31   -1.6  100   -1.6  0     0     979.6    NA       0.0000   9999     520   0     0    
2019/08/29  02:49:01  BASE  1.18188  26   2.69304  31   -1.6  100   -1.6  0     0     979.6    NA       0.0000   9999     520   0     0    
2019/08/29  02:50:00  BASE  1.02312  27   2.69304  31   -1.6  100   -1.6  0     0     979.6    NA       0.0000   9999     520   0     0    
2019/08/29  02:51:00  BASE  1.52292  36   2.69304  31   -1.6  100   -1.6  0     0     979.6    NA       0.0000   9999     590   0     0    
2019/08/29  02:52:01  BASE  1.96392  36   2.69304  31   -1.6  100   -1.6  0     0     979.6    NA       0.0000   9999     560   0     0    
2019/08/29  02:53:00  BASE  1.85808  41   2.69304  31   -1.7  100   -1.7  0     0     979.6    NA       0.0000   9999     520   0     0    
2019/08/29  02:54:00  BASE  1.78752  49   2.69304  31   -1.7  100   -1.7  0     0     979.6    NA       0.0000   9999     520   0     0    
2019/08/29  02:55:00  BASE  1.88748  49   2.42256  38   -1.8  100   -1.8  0     0     979.5    NA       0.0000   9999     560   0     0    
2019/08/29  02:56:01  BASE  2.18148  44   2.42256  38   -1.8  100   -1.8  0     0     979.5    NA       0.0000   9999     590   0     0    
2019/08/29  02:57:00  BASE  2.36964  40   2.56956  38   -1.8  100   -1.8  0     0     979.5    NA       0.0000   9999     560   0     0    
2019/08/29  02:58:00  BASE  2.49312  39   2.56956  38   -1.8  100   -1.8  0     0     979.5    NA       0.0000   9999     560   0     0    
2019/08/29  02:59:00  BASE  2.49312  40   2.56956  38   -1.9  100   -1.9  0     0     979.5    NA       0.0000   9999     520   0     0    
2019/08/29  03:00:00  BASE  2.49312  41   2.69304  41   -1.9  100   -1.9  0     0     979.5    NA       0.0000   9999     590   0     0    
2019/08/29  03:01:00  BASE  2.5284   40   2.78124  38   -1.9  100   -1.9  0     0     979.5    NA       0.0000   9999     590   0     0    
2019/08/29  03:02:01  BASE  2.33436  38   2.78124  38   -1.9  100   -1.9  0     0     979.5    NA       0.0000   9999     620   0     0    
2019/08/29  03:03:00  BASE  2.10504  39   2.78124  38   -1.9  100   -1.9  0     0     979.5    NA       0.0000   9999     590   0     0    
2019/08/29  03:04:00  BASE  1.94628  42   2.78124  38   -1.9  100   -1.9  0     0     979.5    NA       0.0000   9999     590   0     0    
2019/08/29  03:05:01  BASE  1.764    43   2.78124  38   -1.9  100   -1.9  0     0     979.5    NA       0.0000   9999     590   0     0    
2019/08/29  03:06:00  BASE  1.64052  47   2.78124  38   -1.9  100   -1.9  0     0     979.5    NA       0.0000   9999     560   0     0    
2019/08/29  03:07:01  BASE  1.48764  53   2.78124  38   -1.9  100   -1.9  0     0     979.5    NA       0.0000   9999     520   0     0    
2019/08/29  03:08:00  BASE  1.39356  58   2.78124  38   -1.9  100   -1.9  0     0     979.5    NA       0.0000   9999     590   0     0    
2019/08/29  03:09:00  BASE  1.39944  57   2.78124  38   -1.8  100   -1.8  0     0     979.5    NA       0.0000   9999     750   0     0    
2019/08/29  03:10:00  BASE  1.51704  52   2.78124  38   -1.8  100   -1.8  0     0     979.5    NA       0.0000   9999     850   0     0    
2019/08/29  03:11:00  BASE  1.6464   52   2.29908  36   -1.8  100   -1.8  0     0     979.5    NA       0.0000   9999     850   0     0    
2019/08/29  03:12:00  BASE  1.64052  58   2.21088  39   -1.8  100   -1.8  0     0     979.5    NA       0.0000   9999     820   0     0    
2019/08/29  03:13:00  BASE  1.7052   58   1.93452  59   -1.7  100   -1.7  0     0     979.5    NA       0.0000   9999     790   0     0    
2019/08/29  03:14:00  BASE  1.8228   60   2.0286   64   -1.7  100   -1.7  0     0     979.5    NA       0.0000   9999     790   0     0    
2019/08/29  03:15:00  BASE  1.89336  64   2.0286   61   -1.7  100   -1.7  0     0     979.5    NA       0.0000   9999     750   0     0    
2019/08/29  03:16:00  BASE  1.84632  68   2.0286   61   -1.7  100   -1.7  0     0     979.5    NA       0.0000   9999     790   0     0    
2019/08/29  03:17:00  BASE  1.69344  67   2.0286   61   -1.7  100   -1.7  0     0     979.5    NA       0.0000   9999     790   0     0    
2019/08/29  03:18:00  BASE  1.68756  60   2.0286   61   -1.7  100   -1.7  0     0     979.5    NA       0.0000   9999     920   0     0    
2019/08/29  03:19:00  BASE  1.8228   56   2.0286   54   -1.7  100   -1.7  0     0     979.5    NA       0.0000   9999     890   0     0    
2019/08/29  03:20:00  BASE  1.8522   62   2.0286   54   -1.6  100   -1.6  0     0     979.5    NA       0.0000   9999     850   0     0    
2019/08/29  03:21:00  BASE  1.5876   64   2.0286   54   -1.6  100   -1.6  0     0     979.5    NA       0.0000   9999     790   0     0    
2019/08/29  03:22:00  BASE  1.44648  46   2.0286   54   -1.6  100   -1.6  0     0     979.5    NA       0.0000   9999     850   0     0    
2019/08/29  03:23:00  BASE  1.44648  34   2.0286   54   -1.5  100   -1.5  0     0     979.5    NA       0.0000   9999     850   0     0    
2019/08/29  03:24:00  BASE  1.47588  29   2.0286   54   -1.5  100   -1.5  0     0     979.5    NA       0.0000   9999     980   0     0    
2019/08/29  03:25:00  BASE  1.52292  26   2.0286   54   -1.5  100   -1.5  0     0     979.5    NA       0.0000   9999     1020  0     0    
2019/08/29  03:26:00  BASE  1.57584  27   2.0286   54   -1.5  100   -1.5  0     0     979.4    NA       0.0000   9999     980   0     0    
2019/08/29  03:27:00  BASE  1.81104  22   2.24028  17   -1.5  100   -1.5  0     0     979.4    NA       0.0000   9999     950   0     0    
2019/08/29  03:28:00  BASE  1.97568  20   2.24028  22   -1.5  100   -1.5  0     0     979.4    NA       0.0000   9999     980   0     0    
2019/08/29  03:29:00  BASE  1.95804  26   2.24028  22   -1.5  100   -1.5  0     0     979.3    NA       0.0000   9999     1050  0     0    
2019/08/29  03:30:00  BASE  1.84044  33   2.24028  22   -1.5  100   -1.5  0     0     979.3    NA       0.0000   9999     1120  0     0    
2019/08/29  03:31:00  BASE  1.66404  33   2.24028  22   -1.5  100   -1.5  0     0     979.3    NA       0.0000   9999     0     0     0    
2019/08/29  03:32:00  BASE  1.60524  26   2.24028  22   -1.5  100   -1.5  0     0     979.3    NA       0.0000   9999     1080  0     0    
2019/08/29  03:33:00  BASE  1.62876  19   2.24028  22   -1.5  100   -1.5  0     0     979.3    NA       0.0000   9999     0     0     0    
2019/08/29  03:34:00  BASE  1.51704  18   2.24028  22   -1.6  100   -1.6  0     0     979.3    NA       0.0000   9999     0     0     0    
2019/08/29  03:35:00  BASE  1.4994   19   2.24028  22   -1.6  100   -1.6  0     0     979.3    NA       0.0000   9999     1210  0     0    
2019/08/29  03:36:00  BASE  1.72872  23   2.24028  22   -1.6  100   -1.6  0     0     979.3    NA       0.0000   9999     0     0     0    
2019/08/29  03:37:00  BASE  1.92276  28   2.24028  22   -1.6  100   -1.6  0     0     979.3    NA       0.0000   9999     0     0     0    
2019/08/29  03:38:00  BASE  1.9992   26   2.1756   23   -1.7  100   -1.7  0     0     979.2    NA       0.0000   9999     0     0     0    
2019/08/29  03:39:00  BASE  2.04036  21   2.1756   23   -1.7  100   -1.7  0     0     979.2    NA       0.0000   9999     1210  0     0    
2019/08/29  03:40:00  BASE  2.06388  18   2.29908  17   -1.7  100   -1.7  0     0     979.2    NA       0.0000   9999     1020  0     0    
2019/08/29  03:41:00  BASE  2.08152  14   2.29908  17   -1.8  100   -1.8  0     0     979.2    NA       0.0000   9999     980   0     0    
2019/08/29  03:42:00  BASE  2.18148  2    2.35788  292  -1.8  100   -1.8  0     0     979.2    NA       0.0000   9999     0     0     0    
2019/08/29  03:43:00  BASE  2.1756   357  2.35788  292  -1.9  100   -1.9  0     0     979.2    NA       0.0000   9999     0     0     0    
2019/08/29  03:44:00  BASE  2.06388  2    2.35788  292  -1.9  100   -1.9  0     0     979.2    NA       0.0000   9999     0     0     0    
2019/08/29  03:45:00  BASE  1.98156  8    2.35788  292  -2.0  100   -2.0  0     0     979.2    NA       0.0000   9999     1150  0     0    
2019/08/29  03:46:00  BASE  1.99332  13   2.35788  292  -2.0  100   -2.0  0     0     979.2    NA       0.0000   9999     1180  0     0    
2019/08/29  03:47:00  BASE  2.15208  9    2.38728  6    -2.1  100   -2.1  0     0     979.2    NA       0.0000   9999     0     0     0    
2019/08/29  03:48:00  BASE  2.31672  5    2.56956  6    -2.1  100   -2.1  0     0     979.2    NA       0.0000   9999     0     0     0    
2019/08/29  03:49:00  BASE  2.34612  4    2.56956  6    -2.1  100   -2.1  0     0     979.2    NA       0.0000   9999     0     0     0    
2019/08/29  03:50:00  BASE  2.38728  5    2.56956  3    -2.2  100   -2.2  0     0     979.2    NA       0.0000   9999     0     0     0    
2019/08/29  03:51:00  BASE  2.4402   6    2.56956  3    -2.2  100   -2.2  0     0     979.2    NA       0.0000   9999     0     0     0    
2019/08/29  03:52:00  BASE  2.352    6    2.56956  3    -2.2  100   -2.2  0     0     979.2    NA       0.0000   9999     0     0     0    
2019/08/29  03:53:00  BASE  2.36376  7    2.56956  3    -2.3  100   -2.3  0     0     979.2    NA       0.0000   9999     0     0     0    
2019/08/29  03:54:00  BASE  2.4108   6    2.56956  6    -2.3  100   -2.3  0     0     979.2    NA       0.0000   9999     0     0     0    
2019/08/29  03:55:00  BASE  2.51664  8    2.81064  11   -2.4  100   -2.4  0     0     979.1    NA       0.0000   9999     0     0     0    
2019/08/29  03:56:00  BASE  2.65188  14   2.81064  11   -2.4  100   -2.4  0     0     979.1    NA       0.0000   9999     0     0     0    
2019/08/29  03:57:00  BASE  2.52252  17   2.81064  11   -2.5  100   -2.5  0     0     979.1    NA       0.0000   9999     0     0     0    
2019/08/29  03:58:00  BASE  2.24616  19   2.81064  11   -2.6  100   -2.6  0     0     979.1    NA       0.0000   9999     0     0     0    
2019/08/29  03:59:00  BASE  2.1462   19   2.81064  11   -2.6  100   -2.6  0     0     979.1    NA       0.0000   9999     0     0     0    
2019/08/29  04:00:00  BASE  2.16972  17   2.81064  11   -2.6  100   -2.6  0     0     979.1    NA       0.0000   9999     0     0     0    
2019/08/29  04:03:00  BASE  2.07564  18   2.81064  11   -2.6  100   -2.6  0     0     979.1    NA       0.0000   9999     0     0     0    
2019/08/29  04:04:00  BASE  2.2344   16   2.81064  11   -2.5  100   -2.5  0     0     979.1    NA       0.0000   9999     0     0     0    
2019/08/29  04:05:00  BASE  2.26968  17   2.81064  11   -2.5  100   -2.5  0     0     979.1    NA       0.0000   9999     0     0     0    
2019/08/29  04:06:00  BASE  2.21676  21   2.81064  11   -2.5  100   -2.5  0     0     979.1    NA       0.0000   9999     0     0     0    
2019/08/29  04:07:00  BASE  2.22264  25   2.78124  20   -2.5  100   -2.5  0     0     979.1    NA       0.0000   9999     0     0     0    
2019/08/29  04:08:00  BASE  2.36376  24   2.78124  20   -2.5  100   -2.5  0     0     979.1    NA       0.0000   9999     0     0     0    
2019/08/29  04:09:00  BASE  2.36376  23   2.78124  20   -2.5  100   -2.5  0     0     979.1    NA       0.0000   9999     0     0     0    
2019/08/29  04:10:00  BASE  2.09328  30   2.78124  20   -2.5  100   -2.5  0     0     979.2    NA       0.0000   9999     0     0     0    
2019/08/29  04:11:00  BASE  1.86984  32   2.78124  20   -2.5  100   -2.5  0     0     979.2    NA       0.0000   9999     0     0     0    
2019/08/29  04:12:00  BASE  1.88748  27   2.78124  20   -2.5  100   -2.5  0     0     979.2    NA       0.0000   9999     0     0     0    
2019/08/29  04:13:00  BASE  1.81692  25   2.78124  20   -2.5  100   -2.5  0     0     979.2    NA       0.0000   9999     0     0     0    
2019/08/29  04:14:00  BASE  1.59936  33   2.78124  20   -2.5  100   -2.5  0     0     979.2    NA       0.0000   9999     0     0     0    
2019/08/29  04:15:00  BASE  1.66404  33   2.78124  20   -2.6  100   -2.6  0     0     979.2    NA       0.0000   9999     0     0     0    
2019/08/29  04:16:00  BASE  1.95804  24   2.78124  20   -2.5  100   -2.5  0     0     979.2    NA       0.0000   9999     0     0     0    
2019/08/29  04:17:00  BASE  2.01096  27   2.66364  17   -2.5  100   -2.5  0     0     979.2    NA       0.0000   9999     0     0     0    
2019/08/29  04:18:00  BASE  1.82868  31   2.48136  23   -2.5  100   -2.5  0     0     979.2    NA       0.0000   9999     0     0     0    
2019/08/29  04:19:00  BASE  1.77576  28   2.42256  27   -2.5  100   -2.5  0     0     979.2    NA       0.0000   9999     0     0     0    
2019/08/29  04:20:00  BASE  2.07564  21   2.54016  9    -2.5  100   -2.5  0     0     979.2    NA       0.0000   9999     0     0     0    
2019/08/29  04:21:00  BASE  2.12268  24   2.54016  9    -2.5  100   -2.5  0     0     979.2    NA       0.0000   9999     0     0     0    
2019/08/29  04:22:00  BASE  1.76988  38   2.54016  9    -2.6  100   -2.6  0     0     979.1    NA       0.0000   9999     0     0     0    
2019/08/29  04:23:00  BASE  1.58172  46   2.54016  9    -2.7  100   -2.7  0     0     979.1    NA       0.0000   9999     0     0     0    
2019/08/29  04:24:00  BASE  1.74636  37   2.56956  21   -2.8  100   -2.8  0     0     979.1    NA       0.0000   9999     0     0     0    
2019/08/29  04:25:00  BASE  2.24028  33   2.93412  39   -2.9  100   -2.9  0     0     979.1    NA       0.0000   9999     0     0     0    
2019/08/29  04:26:00  BASE  2.61072  37   2.96352  43   -2.9  100   -2.9  0     0     979.1    NA       0.0000   9999     0     0     0    
2019/08/29  04:27:00  BASE  2.646    36   2.96352  43   -3.0  100   -3.0  0     0     979.1    NA       0.0000   9999     0     0     0    
2019/08/29  04:28:00  BASE  2.51664  32   2.96352  43   -3.0  100   -3.0  0     0     979.1    NA       0.0000   9999     0     0     0    
2019/08/29  04:29:00  BASE  2.38728  28   2.96352  43   -2.9  100   -2.9  0     0     979.1    NA       0.0000   9999     0     0     0    
2019/08/29  04:30:00  BASE  2.28144  28   2.96352  43   -2.9  100   -2.9  0     0     979.1    NA       0.0000   9999     0     0     0    
2019/08/29  04:31:00  BASE  2.09916  30   2.96352  43   -2.8  100   -2.8  0     0     979.1    NA       0.0000   9999     0     0     0    
2019/08/29  04:32:00  BASE  1.86984  31   2.96352  43   -2.7  100   -2.7  0     0     979.1    NA       0.0000   9999     0     0     0    
2019/08/29  04:33:00  BASE  1.69932  27   2.96352  43   -2.7  100   -2.7  0     0     979.1    NA       0.0000   9999     0     0     0    
2019/08/29  04:34:00  BASE  1.65228  25   2.96352  43   -2.7  100   -2.7  0     0     979.1    NA       0.0000   9999     0     0     0    
2019/08/29  04:35:00  BASE  1.74048  25   2.96352  43   -2.8  100   -2.8  0     0     979.1    NA       0.0000   9999     0     0     0    
2019/08/29  04:36:00  BASE  1.94628  26   2.78124  29   -2.8  100   -2.8  0     0     979.1    NA       0.0000   9999     0     0     0    
2019/08/29  04:37:00  BASE  2.04624  19   2.69304  32   -2.8  100   -2.8  0     0     979.1    NA       0.0000   9999     0     0     0    
2019/08/29  04:38:00  BASE  1.7346   13   2.56956  29   -2.8  100   -2.8  0     0     979.1    NA       0.0000   9999     0     0     0    
2019/08/29  04:39:00  BASE  1.4994   23   2.54016  326  -2.8  100   -2.8  0     0     979.1    NA       0.0000   9999     0     0     0    
2019/08/29  04:40:00  BASE  2.16384  34   3.02232  42   -2.9  100   -2.9  0     0     979.1    NA       0.0000   9999     0     0     0    
2019/08/29  04:41:00  BASE  3.0576   38   3.78084  39   -2.9  100   -2.9  0     0     979.1    NA       0.0000   9999     0     0     0    
2019/08/29  04:42:00  BASE  3.2046   35   3.78084  39   -3.0  100   -3.0  0     0     979.1    NA       0.0000   9999     0     0     0    
2019/08/29  04:43:00  BASE  2.56956  28   3.78084  39   -3.0  100   -3.0  0     0     979.1    NA       0.0000   9999     0     0     0    
2019/08/29  04:44:00  BASE  1.86396  24   3.78084  39   -3.1  100   -3.1  0     0     979.1    NA       0.0000   9999     0     0     0    
2019/08/29  04:45:00  BASE  1.98156  26   3.78084  39   -3.1  100   -3.1  0     0     979.1    NA       0.0000   9999     0     0     0    
2019/08/29  04:46:00  BASE  2.30496  24   3.78084  39   -3.1  100   -3.1  0     0     979.1    NA       0.0000   9999     0     0     0    
2019/08/29  04:47:00  BASE  2.14032  18   3.78084  39   -3.1  100   -3.1  0     0     979.1    NA       0.0000   9999     0     0     0    
2019/08/29  04:48:00  BASE  1.72872  18   3.78084  39   -3.1  100   -3.1  0     0     979.1    NA       0.0000   9999     0     0     0    
2019/08/29  04:49:00  BASE  1.617    18   3.78084  39   -3.2  100   -3.2  0     0     979.1    NA       0.0000   9999     0     0     0    
2019/08/29  04:50:00  BASE  1.65228  16   3.78084  39   -3.1  100   -3.1  0     0     979.1    NA       0.0000   9999     0     0     0    
2019/08/29  04:51:00  BASE  1.54056  17   3.48096  37   -3.0  100   -3.0  0     0     979.1    NA       0.0000   9999     0     0     0    
2019/08/29  04:52:00  BASE  1.54644  18   2.56956  19   -3.0  100   -3.0  0     0     979.1    NA       0.0000   9999     0     0     0    
2019/08/29  04:53:00  BASE  1.7052   20   2.51076  31   -2.9  100   -2.9  0     0     979.1    NA       0.0000   9999     0     0     0    
2019/08/29  04:54:01  BASE  1.82868  28   2.51076  31   -2.8  100   -2.8  0     0     979.1    NA       0.0000   9999     0     0     0    
2019/08/29  04:55:00  BASE  1.89336  36   2.48136  24   -2.8  100   -2.8  0     0     979.1    NA       0.0000   9999     0     0     0    
2019/08/29  04:56:00  BASE  1.90512  34   2.21088  47   -2.8  100   -2.8  0     0     979.1    NA       0.0000   9999     0     0     0    
2019/08/29  04:57:00  BASE  1.74636  26   2.21088  47   -2.8  100   -2.8  0     0     979.1    NA       0.0000   9999     0     0     0    
2019/08/29  04:58:00  BASE  1.66992  23   2.21088  19   -2.8  100   -2.8  0     0     979.1    NA       0.0000   9999     0     0     0    
2019/08/29  04:59:01  BASE  1.68756  20   2.21088  19   -2.8  100   -2.8  0     0     979.1    NA       0.0000   9999     0     0     0    
2019/08/29  05:00:00  BASE  1.51116  16   2.21088  19   -2.8  100   -2.8  0     0     979.1    NA       0.0000   9999     0     0     0    
2019/08/29  05:01:00  BASE  1.35828  21   2.21088  19   -2.8  100   -2.8  0     0     979.1    NA       0.0000   9999     0     0     0    
2019/08/29  05:02:00  BASE  1.3524   22   2.21088  19   -2.7  100   -2.7  0     0     979.1    NA       0.0000   9999     0     0     0    
2019/08/29  05:03:00  BASE  1.50528  17   2.21088  19   -2.7  100   -2.7  0     0     979.1    NA       0.0000   9999     0     0     0    
2019/08/29  05:04:00  BASE  1.5582   14   2.21088  19   -2.6  100   -2.6  0     0     979.1    NA       0.0000   9999     0     0     0    
2019/08/29  05:05:00  BASE  1.53468  14   2.21088  19   -2.6  100   -2.6  0     0     979.1    NA       0.0000   9999     0     0     0    
2019/08/29  05:06:00  BASE  1.52292  20   2.21088  19   -2.6  100   -2.6  0     0     979.1    NA       0.0000   9999     0     0     0    
2019/08/29  05:07:00  BASE  1.5582   18   2.21088  19   -2.6  100   -2.6  0     0     979.1    NA       0.0000   9999     0     0     0    
2019/08/29  05:08:00  BASE  1.66992  7    2.0286   2    -2.6  100   -2.6  0     0     979.1    NA       0.0000   9999     0     0     0    
2019/08/29  05:09:00  BASE  1.51116  358  2.0286   2    -2.6  100   -2.6  0     0     979.1    NA       0.0000   9999     0     0     0    
2019/08/29  05:10:00  BASE  1.32888  350  2.0286   2    -2.6  99    -2.7  0     0     979.0    NA       0.0000   9999     0     0     0    
2019/08/29  05:11:00  BASE  1.15836  346  2.0286   2    -2.6  99    -2.7  0     0     979.0    NA       0.0000   9999     0     0     0    
2019/08/29  05:12:00  BASE  1.02312  352  2.0286   2    -2.6  99    -2.8  0     0     979.0    NA       0.0000   9999     0     0     0    
2019/08/29  05:13:00  BASE  1.04076  7    1.96392  7    -2.6  99    -2.8  0     0     979.0    NA       0.0000   9999     0     0     0    
2019/08/29  05:14:00  BASE  1.04076  13   1.96392  7    -2.7  99    -2.9  0     0     979.0    NA       0.0000   9999     0     0     0    
2019/08/29  05:15:00  BASE  1.22304  2    1.96392  7    -2.7  99    -2.9  0     0     979.0    NA       0.0000   9999     0     0     0    
2019/08/29  05:16:00  BASE  1.39944  357  1.96392  7    -2.7  99    -2.9  0     0     979.0    NA       0.0000   9999     0     0     0    
2019/08/29  05:17:00  BASE  1.31124  7    1.96392  7    -2.7  99    -2.8  0     0     979.0    NA       0.0000   9999     0     0     0    
2019/08/29  05:18:00  BASE  1.27008  13   1.69344  349  -2.7  99    -2.8  0     0     979.0    NA       0.0000   9999     0     0     0    
2019/08/29  05:19:00  BASE  1.31712  13   1.69344  349  -2.7  99    -2.8  0     0     979.0    NA       0.0000   9999     0     0     0    
2019/08/29  05:20:00  BASE  1.36416  8    1.54056  349  -2.7  99    -2.8  0     0     979.0    NA       0.0000   9999     0     0     0    
2019/08/29  05:21:00  BASE  1.34652  10   1.54056  349  -2.7  99    -2.9  0     0     979.0    NA       0.0000   9999     0     0     0    
2019/08/29  05:22:00  BASE  1.37004  20   1.75224  32   -2.7  99    -2.9  0     0     979.0    NA       0.0000   9999     0     0     0    
2019/08/29  05:23:01  BASE  1.50528  26   1.75224  32   -2.8  99    -2.9  0     0     979.0    NA       0.0000   9999     0     0     0    
2019/08/29  05:24:01  BASE  1.68756  25   2.0874   23   -2.8  99    -2.9  0     0     979.0    NA       0.0000   9999     0     0     0    
2019/08/29  05:25:01  BASE  1.764    25   2.1756   25   -2.8  99    -2.9  0     0     979.0    NA       0.0000   9999     0     0     0    
2019/08/29  05:26:01  BASE  1.68168  28   2.1756   25   -2.8  99    -2.9  0     0     979.1    NA       0.0000   9999     0     0     0    
2019/08/29  05:27:01  BASE  1.55232  21   2.1756   25   -2.8  99    -2.9  0     0     979.1    NA       0.0000   9999     0     0     0    
2019/08/29  05:28:01  BASE  1.50528  7    2.1756   25   -2.7  99    -2.9  0     0     979.1    NA       0.0000   9999     0     0     0    
2019/08/29  05:29:01  BASE  1.43472  2    2.1756   25   -2.7  98    -2.9  0     0     979.1    NA       0.0000   9999     0     0     0    
2019/08/29  05:30:01  BASE  1.18188  2    2.1756   25   -2.7  98    -3.0  0     0     979.1    NA       0.0000   9999     0     0     0    
2019/08/29  05:31:01  BASE  0.7938   339  2.1756   25   -2.8  98    -3.1  0     0     979.1    NA       0.0000   9999     0     0     0    
2019/08/29  05:32:01  BASE  0.65268  312  2.1756   25   -3.0  98    -3.3  0     0     979.1    NA       0.0000   9999     0     0     0    
2019/08/29  05:33:01  BASE  0.83496  309  2.1756   25   -3.1  98    -3.4  0     0     979.1    NA       0.0000   9999     0     0     0    
2019/08/29  05:34:01  BASE  1.24068  309  2.1756   25   -3.2  98    -3.5  0     0     979.1    NA       0.0000   9999     0     0     0    
2019/08/29  05:35:01  BASE  1.95804  311  2.69304  320  -3.3  98    -3.6  0     0     979.1    NA       0.0000   9999     0     0     0    
2019/08/29  05:36:01  BASE  2.48724  314  2.90472  315  -3.3  98    -3.5  0     0     979.0    NA       0.0000   9999     0     0     0    
2019/08/29  05:37:01  BASE  2.76948  316  3.0576   318  -3.4  99    -3.5  0     0     979.0    NA       0.0000   9999     0     0     0    
2019/08/29  05:38:01  BASE  3.07524  321  3.51036  325  -3.5  99    -3.6  0     0     979.0    NA       0.0000   9999     0     0     0    
2019/08/29  05:39:01  BASE  3.36336  328  3.62796  330  -3.6  99    -3.7  0     0     979.0    NA       0.0000   9999     0     0     0    
2019/08/29  05:40:01  BASE  3.30456  337  3.62796  330  -3.7  100   -3.7  0     0     979.0    NA       0.0000   9999     0     0     0    
2019/08/29  05:41:01  BASE  3.06348  344  3.62796  330  -3.7  100   -3.8  0     0     979.0    NA       0.0000   9999     0     0     0    
2019/08/29  05:42:01  BASE  3.06348  345  3.62796  330  -3.7  100   -3.7  0     0     979.0    NA       0.0000   9999     0     0     0    
2019/08/29  05:43:01  BASE  3.19872  346  3.62796  330  -3.7  100   -3.7  0     0     979.0    NA       0.0000   9999     0     0     0    
2019/08/29  05:44:01  BASE  3.38688  350  3.72204  354  -3.7  100   -3.7  0     0     979.0    NA       0.0000   9999     0     0     0    
2019/08/29  05:45:01  BASE  3.62208  349  3.99252  347  -3.7  100   -3.7  0     0     979.0    NA       0.0000   9999     0     0     0    
2019/08/29  05:46:01  BASE  3.7044   345  3.99252  347  -3.7  100   -3.7  0     0     979.0    NA       0.0000   9999     0     0     0    
2019/08/29  05:47:01  BASE  3.59268  347  3.99252  347  -3.6  100   -3.6  0     0     979.0    NA       0.0000   9999     0     0     0    
2019/08/29  05:48:01  BASE  3.52212  349  3.99252  347  -3.6  100   -3.6  0     0     979.0    NA       0.0000   9999     0     0     0    
2019/08/29  05:49:01  BASE  3.47508  346  3.99252  347  -3.6  100   -3.6  0     0     979.0    NA       0.0000   9999     0     0     0    
2019/08/29  05:50:01  BASE  3.22224  344  3.99252  347  -3.6  100   -3.6  0     0     979.0    NA       0.0000   9999     0     0     0    
2019/08/29  05:51:01  BASE  3.09288  341  3.99252  347  -3.6  100   -3.6  0     0     979.0    NA       0.0000   9999     720   0     0    
2019/08/29  05:52:01  BASE  3.2046   334  3.99252  347  -3.7  100   -3.7  0     0     979.0    NA       0.0000   9999     720   0     0    
2019/08/29  05:53:01  BASE  3.39276  332  3.99252  347  -3.7  100   -3.7  0     0     979.0    NA       0.0000   9999     720   0     0    
2019/08/29  05:54:01  BASE  3.80436  334  4.2336   339  -3.7  100   -3.7  0     0     979.0    NA       0.0000   9999     750   0     0    
2019/08/29  05:55:01  BASE  4.03368  335  4.2336   339  -3.7  100   -3.7  0     0     979.0    NA       0.0000   9999     850   0     0    
2019/08/29  05:56:01  BASE  3.98076  334  4.2336   339  -3.6  100   -3.6  0     0     979.0    NA       0.0000   9999     0     0     0    
2019/08/29  05:57:01  BASE  3.82788  334  4.2336   339  -3.6  100   -3.6  0     0     979.0    NA       0.0000   9999     0     0     0    
2019/08/29  05:58:01  BASE  3.81024  336  4.2336   339  -3.6  100   -3.6  0     0     979.0    NA       0.0000   9999     0     0     0    
2019/08/29  05:59:01  BASE  3.89256  340  4.2336   339  -3.6  100   -3.6  0     0     979.0    NA       0.0000   9999     0     0     0    
2019/08/29  06:00:01  BASE  3.60444  345  4.2336   339  -3.6  100   -3.6  0     0     979.0    NA       0.0000   9999     0     0     0    
2019/08/29  06:01:01  BASE  3.28104  349  4.2336   339  -3.6  100   -3.6  0     0     979.1    NA       0.0000   9999     0     0     0    
2019/08/29  06:02:01  BASE  3.22812  348  4.2336   339  -3.6  100   -3.6  0     0     979.0    NA       0.0000   9999     0     0     0    
2019/08/29  06:03:01  BASE  3.40452  347  4.2336   339  -3.7  100   -3.7  0     0     979.0    NA       0.0000   9999     0     0     0    
2019/08/29  06:04:01  BASE  3.528    352  4.1748   335  -3.7  100   -3.7  0     0     979.0    NA       0.0000   9999     0     0     0    
2019/08/29  06:05:01  BASE  3.50448  354  4.1454   340  -3.7  100   -3.7  0     0     979.0    NA       0.0000   9999     0     0     0    
2019/08/29  06:06:01  BASE  3.44568  354  4.1454   340  -3.7  100   -3.7  0     0     979.0    NA       0.0000   9999     0     0     0    
2019/08/29  06:07:01  BASE  3.48096  356  4.1454   340  -3.7  100   -3.7  0     0     979.1    NA       0.0000   9999     0     0     0    
2019/08/29  06:08:01  BASE  3.56916  353  4.1454   340  -3.7  100   -3.7  0     0     979.1    NA       0.0000   9999     0     0     0    
2019/08/29  06:09:01  BASE  3.4398   351  3.83964  353  -3.7  100   -3.7  0     0     979.1    NA       0.0000   9999     0     0     0    
2019/08/29  06:10:01  BASE  3.21636  356  3.83964  353  -3.7  100   -3.7  0     0     979.1    NA       0.0000   9999     0     0     0    
2019/08/29  06:11:01  BASE  3.19284  0    3.83964  353  -3.7  100   -3.7  0     0     979.1    NA       0.0000   9999     0     0     0    
2019/08/29  06:12:01  BASE  3.234    359  3.83964  353  -3.7  100   -3.7  0     0     979.1    NA       0.0000   9999     0     0     0    
2019/08/29  06:13:01  BASE  3.18696  358  3.78084  353  -3.8  100   -3.8  0     0     979.1    NA       0.0000   9999     690   0     0    
2019/08/29  06:14:01  BASE  3.1752   359  3.78084  353  -3.8  100   -3.8  0     0     979.1    NA       0.0000   9999     720   0     0    
2019/08/29  06:15:01  BASE  3.13404  359  3.75144  350  -3.8  100   -3.8  0     0     979.1    NA       0.0000   9999     720   0     0    
2019/08/29  06:16:01  BASE  2.9106   2    3.75144  350  -3.8  100   -3.8  0     0     979.1    NA       0.0000   9999     0     0     0    
2019/08/29  06:17:01  BASE  2.86944  3    3.75144  350  -3.9  100   -3.9  0     0     979.1    NA       0.0000   9999     0     0     0    
2019/08/29  06:18:01  BASE  3.18696  5    3.53976  2    -3.9  100   -3.9  0     0     979.1    NA       0.0000   9999     0     0     0    
2019/08/29  06:19:01  BASE  3.39864  9    3.75144  13   -4.0  100   -4.0  0     0     979.0    NA       0.0000   9999     0     0     0    
2019/08/29  06:20:01  BASE  3.53976  12   4.2042   13   -4.1  100   -4.1  0     0     979.1    NA       0.0000   9999     0     0     0    
2019/08/29  06:21:01  BASE  3.6456   14   4.2042   13   -4.1  100   -4.1  0     0     979.1    NA       0.0000   9999     0     0     0    
2019/08/29  06:22:01  BASE  3.44568  16   4.2042   13   -4.2  100   -4.2  0     0     979.1    NA       0.0000   9999     750   0     0    
2019/08/29  06:23:01  BASE  3.28104  15   4.2042   13   -4.3  100   -4.3  0     0     979.1    NA       0.0000   9999     790   0     0    
2019/08/29  06:24:01  BASE  3.34572  13   4.2042   13   -4.3  100   -4.3  0     0     979.1    NA       0.0000   9999     720   0     0    
2019/08/29  06:25:01  BASE  3.38688  14   4.2042   13   -4.3  100   -4.3  0     0     979.1    NA       0.0000   9999     720   0     0    
2019/08/29  06:26:01  BASE  3.42804  17   4.2042   13   -4.3  100   -4.3  0     0     979.1    NA       0.0000   9999     720   0     0    
2019/08/29  06:27:01  BASE  3.45156  17   4.2042   13   -4.3  100   -4.3  0     0     979.1    NA       0.0000   9999     720   0     0    
2019/08/29  06:28:01  BASE  3.4104   19   4.2042   13   -4.3  100   -4.3  0     0     979.1    NA       0.0000   9999     720   0     0    
2019/08/29  06:29:01  BASE  3.33396  21   4.2042   13   -4.3  100   -4.3  0     0     979.1    NA       0.0000   9999     690   0     0    
2019/08/29  06:30:01  BASE  3.1752   24   4.02192  15   -4.3  100   -4.3  0     0     979.1    NA       0.0000   9999     0     0     0    
2019/08/29  06:31:01  BASE  3.06348  24   3.69264  8    -4.4  100   -4.4  0     0     979.1    NA       0.0000   9999     0     0     0    
2019/08/29  06:32:01  BASE  2.97528  23   3.69264  8    -4.5  100   -4.5  0     0     979.1    NA       0.0000   9999     690   0     0    
2019/08/29  06:33:01  BASE  2.9106   24   3.69264  8    -4.6  100   -4.6  0     0     979.1    NA       0.0000   9999     0     0     0    
2019/08/29  06:34:01  BASE  2.90472  24   3.65736  21   -4.6  100   -4.6  0     0     979.1    NA       0.0000   9999     0     0     0    
2019/08/29  06:35:01  BASE  2.95176  22   3.65736  21   -4.7  100   -4.7  0     0     979.1    NA       0.0000   9999     690   0     0    
2019/08/29  06:36:01  BASE  3.00468  20   3.59856  10   -4.7  100   -4.7  0     0     979.1    NA       0.0000   9999     0     0     0    
2019/08/29  06:37:01  BASE  2.91648  20   3.51036  26   -4.7  100   -4.7  0     0     979.1    NA       0.0000   9999     0     0     0    
2019/08/29  06:38:01  BASE  2.77536  20   3.48096  23   -4.7  100   -4.7  0     0     979.1    NA       0.0000   9999     660   0     0    
2019/08/29  06:39:01  BASE  2.69892  19   3.26928  24   -4.7  100   -4.7  0     0     979.1    NA       0.0000   9999     660   0     0    
2019/08/29  06:40:01  BASE  2.64012  19   3.1458   18   -4.6  100   -4.6  0     0     979.1    NA       0.0000   9999     660   0     0    
2019/08/29  06:41:01  BASE  2.5578   20   3.1458   18   -4.6  100   -4.6  0     0     979.1    NA       0.0000   9999     620   0     0    
2019/08/29  06:42:01  BASE  2.42844  23   3.1458   18   -4.6  100   -4.6  0     0     979.1    NA       0.0000   9999     0     0     0    
2019/08/29  06:43:01  BASE  2.31084  24   3.1458   18   -4.6  100   -4.6  0     0     979.1    NA       0.0000   9999     0     0     0    
2019/08/29  06:44:01  BASE  2.25204  26   3.1458   18   -4.6  100   -4.6  0     0     979.2    NA       0.0000   9999     690   0     0    
2019/08/29  06:45:01  BASE  2.1462   26   3.1458   18   -4.6  100   -4.6  0     0     979.2    NA       0.0000   9999     660   0     0    
2019/08/29  06:46:01  BASE  2.0286   25   3.02232  22   -4.6  100   -4.6  0     0     979.2    NA       0.0000   9999     660   0     0    
2019/08/29  06:47:01  BASE  1.72872  24   2.96352  20   -4.5  100   -4.5  0     0     979.2    NA       0.0000   9999     0     0     0    
2019/08/29  06:48:01  BASE  1.59348  25   2.78124  15   -4.5  100   -4.5  0     0     979.2    NA       0.0000   9999     0     0     0    
2019/08/29  06:49:01  BASE  1.75812  27   2.69304  19   -4.4  100   -4.4  0     0     979.2    NA       0.0000   9999     0     0     0    
2019/08/29  06:50:01  BASE  1.71696  25   2.63424  20   -4.4  100   -4.4  0     0     979.2    NA       0.0000   9999     0     0     0    
2019/08/29  06:51:01  BASE  1.54644  27   2.48136  12   -4.3  100   -4.3  0     0     979.2    NA       0.0000   9999     0     0     0    
2019/08/29  06:52:01  BASE  1.43472  33   2.35788  10   -4.3  100   -4.3  0     0     979.2    NA       0.0000   9999     0     0     0    
2019/08/29  06:53:01  BASE  1.34064  36   2.35788  10   -4.2  100   -4.2  0     0     979.1    NA       0.0000   9999     0     0     0    
2019/08/29  06:54:01  BASE  1.46412  31   2.35788  10   -4.2  100   -4.2  0     0     979.2    NA       0.0000   9999     0     0     0    
2019/08/29  06:55:01  BASE  1.74048  19   2.35788  10   -4.2  100   -4.2  0     0     979.2    NA       0.0000   9999     0     0     0    
2019/08/29  06:56:01  BASE  1.76988  14   2.26968  360  -4.2  100   -4.2  0     0     979.2    NA       0.0000   9999     0     0     0    
2019/08/29  06:57:01  BASE  1.80516  13   2.35788  7    -4.2  100   -4.2  0     0     979.2    NA       0.0000   9999     0     0     0    
2019/08/29  06:58:01  BASE  1.9698   13   2.35788  7    -4.2  100   -4.2  0     0     979.2    NA       0.0000   9999     0     0     0    
2019/08/29  06:59:01  BASE  2.18736  10   2.48136  9    -4.2  100   -4.2  0     0     979.1    NA       0.0000   9999     0     0     0    
2019/08/29  07:00:01  BASE  2.205    12   2.48136  9    -4.2  100   -4.2  0     0     979.2    NA       0.0000   9999     0     0     0    
2019/08/29  07:01:01  BASE  2.00508  17   2.48136  9    -4.2  100   -4.2  0     0     979.2    NA       0.0000   9999     660   0     0    
2019/08/29  07:02:01  BASE  1.83456  18   2.48136  9    -4.3  100   -4.3  0     0     979.2    NA       0.0000   9999     690   0     0    
2019/08/29  07:03:01  BASE  1.81692  17   2.48136  9    -4.3  100   -4.3  0     0     979.2    NA       0.0000   9999     660   0     0    
2019/08/29  07:04:01  BASE  1.9404   17   2.48136  9    -4.3  100   -4.3  0     0     979.2    NA       0.0000   9999     690   0     0    
2019/08/29  07:05:00  BASE  1.92864  17   2.48136  9    -4.3  100   -4.3  0     0     979.2    NA       0.0000   9999     0     0     0    
2019/08/29  07:06:01  BASE  1.90512  17   2.48136  9    -4.3  100   -4.3  0     0     979.2    NA       0.0000   9999     0     0     0    
2019/08/29  07:07:00  BASE  2.01096  16   2.48136  9    -4.3  100   -4.3  0     0     979.2    NA       0.0000   9999     0     0     0    
2019/08/29  07:08:01  BASE  2.01096  16   2.48136  9    -4.2  100   -4.2  0     0     979.2    NA       0.0000   9999     0     0     0    
2019/08/29  07:09:00  BASE  1.97568  14   2.42256  9    -4.2  100   -4.2  0     0     979.1    NA       0.0000   9999     0     0     0    
2019/08/29  07:10:00  BASE  2.04036  11   2.35788  8    -4.2  100   -4.2  0     0     979.1    NA       0.0000   9999     0     0     0    
2019/08/29  07:11:00  BASE  2.05212  9    2.35788  8    -4.2  100   -4.2  0     0     979.1    NA       0.0000   9999     0     0     0    
2019/08/29  07:12:01  BASE  2.06388  11   2.35788  8    -4.2  100   -4.2  0     0     979.1    NA       0.0000   9999     0     0     0    
2019/08/29  07:13:01  BASE  2.12268  16   2.35788  8    -4.2  100   -4.2  0     0     979.1    NA       0.0000   9999     0     0     0    
2019/08/29  07:14:01  BASE  2.16972  19   2.35788  20   -4.2  100   -4.2  0     0     979.1    NA       0.0000   9999     0     0     0    
2019/08/29  07:15:01  BASE  2.22264  21   2.42256  22   -4.3  100   -4.3  0     0     979.1    NA       0.0000   9999     0     0     0    
2019/08/29  07:16:01  BASE  2.09328  25   2.42256  22   -4.2  100   -4.2  0     0     979.1    NA       0.0000   9999     0     0     0    
2019/08/29  07:17:01  BASE  2.04624  28   2.42256  22   -4.2  100   -4.2  0     0     979.2    NA       0.0000   9999     0     0     0    
2019/08/29  07:18:01  BASE  2.0286   29   2.42256  22   -4.3  100   -4.3  0     0     979.2    NA       0.0000   9999     0     0     0    
2019/08/29  07:19:01  BASE  1.94628  28   2.42256  22   -4.3  100   -4.3  0     0     979.2    NA       0.0000   9999     0     0     0    
2019/08/29  07:20:01  BASE  1.96392  24   2.42256  22   -4.2  100   -4.2  0     0     979.2    NA       0.0000   9999     0     0     0    
2019/08/29  07:21:01  BASE  1.93452  26   2.42256  22   -4.2  100   -4.2  0     0     979.2    NA       0.0000   9999     0     0     0    
2019/08/29  07:22:01  BASE  1.8522   29   2.42256  22   -4.2  100   -4.2  0     0     979.2    NA       0.0000   9999     0     0     0    
2019/08/29  07:23:01  BASE  1.72284  27   2.42256  22   -4.2  100   -4.2  0     0     979.2    NA       0.0000   9999     0     0     0    
2019/08/29  07:24:01  BASE  1.7346   21   2.42256  22   -4.2  100   -4.2  0     0     979.2    NA       0.0000   9999     0     0     0    
2019/08/29  07:25:01  BASE  1.71108  20   2.32848  33   -4.2  100   -4.2  0     0     979.2    NA       0.0000   9999     0     0     0    
2019/08/29  07:26:01  BASE  1.59936  22   2.32848  33   -4.1  100   -4.1  0     0     979.2    NA       0.0000   9999     0     0     0    
2019/08/29  07:27:01  BASE  1.62876  22   2.32848  33   -4.2  100   -4.2  0     0     979.2    NA       0.0000   9999     0     0     0    
2019/08/29  07:28:01  BASE  1.75812  27   2.32848  33   -4.2  100   -4.2  0     0     979.2    NA       0.0000   9999     0     0     0    
2019/08/29  07:29:01  BASE  1.764    30   2.26968  20   -4.2  100   -4.2  0     0     979.2    NA       0.0000   9999     0     0     0    
2019/08/29  07:30:01  BASE  1.62288  34   2.24028  32   -4.2  100   -4.2  0     0     979.2    NA       0.0000   9999     0     0     0    
2019/08/29  07:31:01  BASE  1.53468  36   2.24028  32   -4.2  100   -4.2  0     0     979.2    NA       0.0000   9999     0     0     0    
2019/08/29  07:32:01  BASE  1.59348  34   2.24028  32   -4.2  100   -4.2  0     0     979.2    NA       0.0000   9999     0     0     0    
2019/08/29  07:33:01  BASE  1.66992  29   2.24028  32   -4.1  100   -4.1  0     0     979.2    NA       0.0000   9999     0     0     0    
2019/08/29  07:34:01  BASE  1.66404  23   2.24028  32   -4.1  100   -4.1  0     0     979.2    NA       0.0000   9999     0     0     0    
2019/08/29  07:35:01  BASE  1.68756  17   2.24028  32   -4.1  100   -4.1  0     0     979.2    NA       0.0000   9999     0     0     0    
2019/08/29  07:36:01  BASE  1.59936  14   2.24028  32   -4.1  100   -4.1  0     0     979.2    NA       0.0000   9999     0     0     0    
2019/08/29  07:37:01  BASE  1.50528  12   2.24028  32   -4.1  100   -4.1  0     0     979.2    NA       0.0000   9999     0     0     0    
2019/08/29  07:38:01  BASE  1.61112  10   1.9992   25   -4.1  100   -4.1  0     0     979.2    NA       0.0000   9999     0     0     0    
2019/08/29  07:39:00  BASE  1.78164  9    2.0286   353  -4.1  100   -4.1  0     0     979.2    NA       0.0000   9999     660   0     0    
2019/08/29  07:40:01  BASE  1.7934   6    2.0286   353  -4.1  100   -4.1  0     0     979.2    NA       0.0000   9999     660   0     0    
2019/08/29  07:41:01  BASE  1.6464   4    2.0286   353  -4.2  100   -4.2  0     0     979.2    NA       0.0000   9999     660   0     0    
2019/08/29  07:42:01  BASE  1.64052  5    2.0286   353  -4.2  100   -4.2  0     0     979.2    NA       0.0000   9999     690   0     0    
2019/08/29  07:43:01  BASE  1.63464  15   2.0286   353  -4.2  100   -4.2  0     0     979.2    NA       0.0000   9999     0     0     0    
2019/08/29  07:44:01  BASE  1.58172  25   2.0286   353  -4.3  100   -4.3  0     0     979.2    NA       0.0000   9999     0     0     0    
2019/08/29  07:45:01  BASE  1.66404  29   2.0286   353  -4.3  100   -4.3  0     0     979.2    NA       0.0000   9999     620   0     0    
2019/08/29  07:46:01  BASE  1.71696  30   2.0286   353  -4.3  100   -4.3  0     0     979.2    NA       0.0000   9999     620   0     0    
2019/08/29  07:47:00  BASE  1.79928  27   2.21088  9    -4.3  100   -4.3  0     0     979.2    NA       0.0000   9999     660   0     0    
2019/08/29  07:48:01  BASE  1.8816   21   2.21088  9    -4.3  100   -4.3  0     0     979.2    NA       0.0000   9999     660   0     0    
2019/08/29  07:49:01  BASE  1.8228   20   2.21088  9    -4.3  100   -4.3  0     0     979.2    NA       0.0000   9999     660   0     0    
2019/08/29  07:50:01  BASE  1.764    23   2.21088  9    -4.3  100   -4.3  0     0     979.2    NA       0.0000   9999     690   0     0    
2019/08/29  07:51:01  BASE  1.81692  21   2.21088  9    -4.3  100   -4.3  0     0     979.2    NA       0.0000   9999     660   0     0    
2019/08/29  07:52:01  BASE  1.89336  21   2.21088  9    -4.3  100   -4.3  0     0     979.2    NA       0.0000   9999     620   0     0    
2019/08/29  07:53:01  BASE  1.95216  20   2.21088  9    -4.3  100   -4.4  0     0     979.2    NA       0.0000   9999     620   0     0    
2019/08/29  07:54:01  BASE  1.99332  17   2.21088  17   -4.4  100   -4.4  0     0     979.2    NA       0.0000   9999     590   0     0    
2019/08/29  07:55:01  BASE  2.06388  11   2.21088  6    -4.4  100   -4.4  0     0     979.2    NA       0.0000   9999     590   0     0    
2019/08/29  07:56:01  BASE  2.15796  12   2.38728  20   -4.4  100   -4.4  0     0     979.2    NA       0.0000   9999     590   0     0    
2019/08/29  07:57:00  BASE  2.22852  19   2.48136  24   -4.4  100   -4.4  0     0     979.2    NA       0.0000   9999     590   0     0    
2019/08/29  07:58:01  BASE  2.1462   22   2.48136  24   -4.4  100   -4.4  0     0     979.2    NA       0.0000   9999     520   0     0    
2019/08/29  07:59:01  BASE  2.22852  21   2.66364  12   -4.4  100   -4.4  0     0     979.3    NA       0.0000   9999     620   0     0    
2019/08/29  08:00:01  BASE  2.37552  18   2.69304  23   -4.4  100   -4.4  0     0     979.3    NA       0.0000   9999     520   0     0    
2019/08/29  08:01:00  BASE  2.46372  21   2.87532  20   -4.4  100   -4.4  0     0     979.3    NA       0.0000   9999     560   0     0    
2019/08/29  08:02:01  BASE  2.48724  23   2.87532  20   -4.4  100   -4.4  0     0     979.3    NA       0.0000   9999     590   0     0    
2019/08/29  08:03:01  BASE  2.34612  22   2.87532  20   -4.4  100   -4.4  0     0     979.3    NA       0.0000   9999     560   0     0    
2019/08/29  08:04:01  BASE  2.12268  21   2.87532  20   -4.4  100   -4.4  0     0     979.3    NA       0.0000   9999     590   0     0    
2019/08/29  08:05:00  BASE  1.95216  20   2.87532  20   -4.4  100   -4.4  0     0     979.3    NA       0.0000   9999     590   0     0    
2019/08/29  08:06:01  BASE  1.96392  9    2.87532  20   -4.4  100   -4.4  0     0     979.3    NA       0.0000   9999     620   0     0    
2019/08/29  08:07:00  BASE  1.95216  10   2.87532  20   -4.4  100   -4.4  0     0     979.3    NA       0.0000   9999     590   0     0    
2019/08/29  08:08:00  BASE  2.2932   14   2.87532  5    -4.4  100   -4.4  0     0     979.3    NA       0.0000   9999     520   0     0    
2019/08/29  08:09:00  BASE  2.28732  14   2.87532  5    -4.4  100   -4.4  0     0     979.3    NA       0.0000   9999     520   0     0    
2019/08/29  08:10:00  BASE  1.8522   18   2.87532  5    -4.5  100   -4.5  0     0     979.3    NA       0.0000   9999     520   0     0    
2019/08/29  08:11:00  BASE  1.9404   16   2.87532  5    -4.4  100   -4.4  0     0     979.3    NA       0.0000   9999     590   0     0    
2019/08/29  08:12:01  BASE  2.25792  359  2.87532  5    -4.4  100   -4.4  0     0     979.3    NA       0.0000   9999     490   0     0    
2019/08/29  08:13:01  BASE  2.18736  356  2.87532  5    -4.4  100   -4.4  0     0     979.3    NA       0.0000   9999     460   0     0    
2019/08/29  08:14:01  BASE  2.09328  2    2.87532  5    -4.3  100   -4.3  0     0     979.3    NA       0.0000   9999     430   0     0    
2019/08/29  08:15:00  BASE  2.18148  354  2.87532  5    -4.2  100   -4.2  0     0     979.3    NA       0.0000   9999     460   0     0    
2019/08/29  08:16:01  BASE  2.1168   351  2.87532  5    -4.2  100   -4.2  0     0     979.3    NA       0.0000   9999     490   0     0    
2019/08/29  08:17:01  BASE  2.25792  349  2.87532  5    -4.2  100   -4.2  0     0     979.3    NA       0.0000   9999     430   0     0    
2019/08/29  08:18:01  BASE  2.72244  342  3.35748  348  -4.1  100   -4.1  0     0     979.3    NA       0.0000   9999     520   0     0    
2019/08/29  08:19:00  BASE  2.499    343  3.35748  348  -4.0  100   -4.0  0     0     979.3    NA       0.0000   9999     460   0     0    
2019/08/29  08:20:01  BASE  2.31672  354  3.35748  348  -3.9  100   -3.9  0     0     979.3    NA       0.0000   9999     430   0     0    
2019/08/29  08:21:01  BASE  2.45784  3    3.35748  348  -3.9  100   -3.9  0     0     979.2    NA       0.0000   9999     390   0     0    
2019/08/29  08:22:01  BASE  2.18148  7    3.35748  348  -3.9  100   -3.9  0     0     979.3    NA       0.0000   9999     490   0     0    
2019/08/29  08:23:00  BASE  2.06388  1    3.35748  348  -3.9  100   -3.9  0     0     979.3    NA       0.0000   9999     490   0     0    
2019/08/29  08:24:01  BASE  1.95804  354  3.35748  348  -4.0  100   -4.0  0     0     979.3    NA       0.0000   9999     460   0     0    
2019/08/29  08:25:01  BASE  1.93452  348  3.35748  348  -4.2  100   -4.2  0     0     979.3    NA       0.0000   9999     390   0     0    
2019/08/29  08:26:01  BASE  2.09916  343  3.35748  348  -4.2  100   -4.2  0     0     979.3    NA       0.0000   9999     390   0     0    
2019/08/29  08:27:00  BASE  2.42256  343  3.35748  348  -4.3  100   -4.3  0     0     979.3    NA       0.0000   9999     460   0     0    
2019/08/29  08:28:01  BASE  2.48136  342  2.96352  335  -4.3  100   -4.3  0     0     979.3    NA       0.0000   9999     390   0     0    
2019/08/29  08:29:01  BASE  2.30496  345  2.96352  335  -4.2  100   -4.2  0     0     979.3    NA       0.0000   9999     490   0     0    
2019/08/29  08:30:00  BASE  2.24616  353  2.96352  335  -4.2  100   -4.2  0     0     979.4    NA       0.0000   9999     460   0     0    
2019/08/29  08:31:01  BASE  2.22852  353  2.96352  335  -4.2  100   -4.2  0     0     979.4    NA       0.0000   9999     520   0     0    
2019/08/29  08:32:01  BASE  2.09916  356  2.96352  335  -4.2  100   -4.2  0     0     979.5    NA       0.0000   9999     430   0     0    
2019/08/29  08:33:00  BASE  1.82868  2    2.96352  335  -4.3  100   -4.3  0     0     979.5    NA       0.0000   9999     390   0     0    
2019/08/29  08:34:01  BASE  1.74048  19   2.96352  335  -4.4  100   -4.4  0     0     979.5    NA       0.0000   9999     490   0     0    
2019/08/29  08:35:01  BASE  1.74636  26   2.96352  335  -4.5  100   -4.5  0     0     979.5    NA       0.0000   9999     430   0     0    
2019/08/29  08:36:01  BASE  1.90512  14   2.96352  335  -4.6  100   -4.6  0     0     979.5    NA       0.0000   9999     460   0     0    
2019/08/29  08:37:00  BASE  2.25792  14   2.63424  336  -4.8  100   -4.8  0     0     979.5    NA       0.0000   9999     490   0     0    
2019/08/29  08:38:01  BASE  2.45784  16   2.59896  24   -4.8  100   -4.8  0     0     979.5    NA       0.0000   9999     390   0     0    
2019/08/29  08:39:01  BASE  2.3814   10   2.59896  24   -4.8  100   -4.8  0     0     979.5    NA       0.0000   9999     430   0     0    
2019/08/29  08:40:00  BASE  2.32848  8    2.59896  24   -4.8  100   -4.8  0     0     979.5    NA       0.0000   9999     490   0     0    
2019/08/29  08:41:01  BASE  2.32848  12   2.59896  24   -4.8  100   -4.8  0     0     979.5    NA       0.0000   9999     490   0     0    
2019/08/29  08:42:01  BASE  2.54016  11   3.1458   3    -4.8  100   -4.8  0     0     979.5    NA       0.0000   9999     490   0     0    
2019/08/29  08:43:00  BASE  2.71068  11   3.1458   3    -4.7  100   -4.7  0     0     979.5    NA       0.0000   9999     390   0     0    
2019/08/29  08:44:01  BASE  2.68128  14   3.1458   3    -4.7  100   -4.7  0     0     979.5    NA       0.0000   9999     430   0     0    
2019/08/29  08:45:00  BASE  2.64012  12   3.1458   3    -4.7  100   -4.7  0     0     979.5    NA       0.0000   9999     490   0     0    
2019/08/29  08:46:01  BASE  2.42256  12   3.1458   3    -4.6  100   -4.6  0     0     979.5    NA       0.0000   9999     520   0     0    
2019/08/29  08:47:00  BASE  2.25204  13   3.1458   3    -4.6  100   -4.6  0     0     979.5    NA       0.0000   9999     460   0     0    
2019/08/29  08:48:01  BASE  2.54604  12   3.48096  8    -4.7  100   -4.7  0     0     979.5    NA       0.0000   9999     490   0     0    
2019/08/29  08:49:01  BASE  3.2046   9    3.78084  7    -4.7  100   -4.7  0     0     979.5    NA       0.0000   9999     460   0     0    
2019/08/29  08:50:00  BASE  3.66912  7    4.32768  7    -4.7  100   -4.7  0     0     979.6    NA       0.0000   9999     460   0     0    
2019/08/29  08:51:00  BASE  3.93372  11   4.53936  11   -4.6  100   -4.6  0     0     979.6    NA       0.0000   9999     520   0     0    
2019/08/29  08:52:01  BASE  4.09248  12   4.59816  12   -4.5  100   -4.5  0     0     979.6    NA       0.0000   9999     490   0     0    
2019/08/29  08:53:00  BASE  3.93372  12   4.59816  12   -4.4  100   -4.4  0     0     979.6    NA       0.0000   9999     430   0     0    
2019/08/29  08:54:01  BASE  3.75732  12   4.59816  12   -4.4  100   -4.4  0     0     979.6    NA       0.0000   9999     490   0     0    
2019/08/29  08:55:01  BASE  3.68676  9    4.59816  12   -4.3  100   -4.3  0     0     979.6    NA       0.0000   9999     490   0     0    
2019/08/29  08:56:01  BASE  3.33396  10   4.59816  12   -4.3  100   -4.3  0     0     979.6    NA       0.0000   9999     430   0     0    
2019/08/29  08:57:01  BASE  2.99292  13   4.59816  12   -4.4  100   -4.4  0     0     979.6    NA       0.0000   9999     460   0     0    
2019/08/29  08:58:01  BASE  3.01056  20   4.59816  12   -4.4  100   -4.4  0     0     979.6    NA       0.0000   9999     460   0     0    
2019/08/29  08:59:00  BASE  3.15168  25   4.59816  12   -4.5  100   -4.5  0     0     979.6    NA       0.0000   9999     460   0     0    
2019/08/29  09:00:00  BASE  3.28692  26   4.59816  12   -4.6  100   -4.6  0     0     979.6    NA       0.0000   9999     490   0     0    
2019/08/29  09:01:01  BASE  3.24576  23   4.59816  12   -4.7  100   -4.7  0     0     979.7    NA       0.0000   9999     430   0     0    
2019/08/29  09:02:01  BASE  3.28692  20   4.29828  4    -4.8  100   -4.8  0     0     979.7    NA       0.0000   9999     460   0     0    
2019/08/29  09:03:00  BASE  3.42804  17   4.29828  4    -4.8  100   -4.8  0     0     979.7    NA       0.0000   9999     490   0     0    
2019/08/29  09:04:01  BASE  3.46332  17   3.90432  10   -4.9  100   -4.9  0     0     979.7    NA       0.0000   9999     490   0     0    
2019/08/29  09:05:00  BASE  3.34572  16   3.75144  13   -4.9  100   -4.9  0     0     979.7    NA       0.0000   9999     460   0     0    
2019/08/29  09:06:00  BASE  2.99292  12   3.75144  13   -4.8  100   -4.8  0     0     979.7    NA       0.0000   9999     430   0     0    
2019/08/29  09:07:00  BASE  2.75184  15   3.75144  13   -4.8  100   -4.8  0     0     979.7    NA       0.0000   9999     330   0     0    
2019/08/29  09:08:00  BASE  2.8518   22   3.75144  13   -4.8  100   -4.8  0     0     979.7    NA       0.0000   9999     460   0     0    
2019/08/29  09:09:01  BASE  3.01644  24   3.75144  13   -4.7  100   -4.7  0     0     979.7    NA       0.0000   9999     390   0     0    
2019/08/29  09:10:00  BASE  2.81064  16   3.75144  13   -4.7  100   -4.7  0     0     979.8    NA       0.0000   9999     430   0     0    
2019/08/29  09:11:00  BASE  2.55192  8    3.75144  13   -4.6  100   -4.6  0     0     979.8    NA       0.0000   9999     430   0     0    
2019/08/29  09:12:01  BASE  1.96392  10   3.75144  13   -4.6  100   -4.6  0     0     979.8    NA       0.0000   9999     430   0     0    
2019/08/29  09:13:00  BASE  1.9698   11   3.75144  13   -4.5  100   -4.5  0     0     979.8    NA       0.0000   9999     330   0     0    
2019/08/29  09:14:00  BASE  2.39316  13   3.35748  2    -4.5  100   -4.5  0     0     979.8    NA       0.0000   9999     330   0     0    
2019/08/29  09:15:00  BASE  2.21676  24   3.35748  2    -4.4  100   -4.4  0     0     979.8    NA       0.0000   9999     390   0     0    
2019/08/29  09:16:01  BASE  2.22852  29   3.1752   24   -4.4  100   -4.4  0     0     979.8    NA       0.0000   9999     430   0     0    
2019/08/29  09:17:00  BASE  2.38728  25   3.1752   24   -4.4  100   -4.4  0     0     979.7    NA       0.0000   9999     390   0     0    
2019/08/29  09:18:00  BASE  2.39904  23   3.1752   24   -4.4  100   -4.4  0     0     979.7    NA       0.0000   9999     430   0     0    
2019/08/29  09:19:00  BASE  2.39904  24   2.93412  13   -4.4  100   -4.4  0     0     979.7    NA       0.0000   9999     430   0     0    
2019/08/29  09:20:00  BASE  2.60484  27   2.96352  32   -4.4  100   -4.4  0     0     979.7    NA       0.0000   9999     430   0     0    
2019/08/29  09:21:00  BASE  2.38728  26   2.96352  32   -4.4  100   -4.4  0     0     979.7    NA       0.0000   9999     430   0     0    
2019/08/29  09:22:00  BASE  1.87572  27   2.96352  32   -4.4  100   -4.4  0     0     979.7    NA       0.0000   9999     330   0     0    
2019/08/29  09:23:01  BASE  1.81104  35   2.96352  32   -4.5  100   -4.5  0     0     979.7    NA       0.0000   9999     360   0     0    
2019/08/29  09:24:01  BASE  1.80516  46   2.96352  32   -4.5  100   -4.5  0     0     979.7    NA       0.0000   9999     430   0     0    
2019/08/29  09:25:00  BASE  1.63464  45   2.96352  32   -4.5  100   -4.5  0     0     979.7    NA       0.0000   9999     460   0     0    
2019/08/29  09:26:00  BASE  1.69344  31   2.96352  32   -4.5  100   -4.5  0     0     979.7    NA       0.0000   9999     430   0     0    
2019/08/29  09:27:00  BASE  1.72872  32   2.96352  32   -4.4  100   -4.4  0     0     979.7    NA       0.0000   9999     460   0     0    
2019/08/29  09:28:00  BASE  1.75812  35   2.96352  32   -4.4  100   -4.4  0     0     979.8    NA       0.0000   9999     460   0     0    
2019/08/29  09:29:00  BASE  1.764    32   2.96352  32   -4.4  100   -4.4  0     0     979.8    NA       0.0000   9999     460   0     0    
2019/08/29  09:30:00  BASE  1.82868  32   2.75184  22   -4.4  100   -4.4  0     0     979.8    NA       0.0000   9999     490   0     0    
2019/08/29  09:31:00  BASE  1.97568  18   2.93412  24   -4.3  100   -4.3  0     0     979.8    NA       0.0000   9999     390   0     0    
2019/08/29  09:32:00  BASE  1.50528  20   2.93412  24   -4.3  100   -4.3  0     0     979.8    NA       0.0000   9999     360   0     0    
2019/08/29  09:33:00  BASE  1.15836  46   2.93412  24   -4.3  100   -4.3  0     0     979.8    NA       0.0000   9999     360   0     0    
2019/08/29  09:34:00  BASE  1.31124  57   2.93412  24   -4.3  100   -4.3  0     0     979.8    NA       0.0000   9999     460   0     0    
2019/08/29  09:35:00  BASE  1.53468  60   2.93412  24   -4.4  100   -4.4  0     0     979.7    NA       0.0000   9999     430   0     0    
2019/08/29  09:36:00  BASE  2.0286   58   2.93412  24   -4.5  100   -4.5  0     0     979.7    NA       0.0000   9999     330   0     0    
2019/08/29  09:37:00  BASE  2.352    48   2.93412  24   -4.6  100   -4.6  0     0     979.7    NA       0.0000   9999     390   0     0    
2019/08/29  09:38:01  BASE  2.33436  47   2.93412  24   -4.8  100   -4.8  0     0     979.7    NA       0.0000   9999     430   0     0    
2019/08/29  09:39:01  BASE  2.2638   48   2.93412  24   -4.8  100   -4.8  0     0     979.7    NA       0.0000   9999     460   0     0    
2019/08/29  09:40:00  BASE  2.352    47   2.93412  24   -4.9  100   -4.9  0     0     979.8    NA       0.0000   9999     460   0     0    
2019/08/29  09:41:00  BASE  2.38728  45   2.69304  43   -5.0  100   -5.0  0     0     979.8    NA       0.0000   9999     460   0     0    
2019/08/29  09:42:01  BASE  2.21088  43   2.69304  43   -5.0  100   -5.0  0     0     979.8    NA       0.0000   9999     460   0     0    
2019/08/29  09:43:01  BASE  2.31672  30   2.81064  20   -5.0  100   -5.0  0     0     979.8    NA       0.0000   9999     460   0     0    
2019/08/29  09:44:01  BASE  2.65776  15   2.93412  7    -4.9  100   -4.9  0     0     979.8    NA       0.0000   9999     460   0     0    
2019/08/29  09:45:00  BASE  2.80476  14   3.02232  12   -4.8  100   -4.8  0     0     979.8    NA       0.0000   9999     360   0     0    
2019/08/29  09:46:00  BASE  2.76948  13   3.32808  14   -4.8  100   -4.8  0     0     979.8    NA       0.0000   9999     390   0     0    
2019/08/29  09:47:00  BASE  2.68716  15   3.32808  14   -4.7  100   -4.7  0     0     979.8    NA       0.0000   9999     390   0     0    
2019/08/29  09:48:01  BASE  2.646    14   3.32808  14   -4.7  100   -4.7  0     0     979.8    NA       0.0000   9999     390   0     0    
2019/08/29  09:49:00  BASE  2.86356  12   3.32808  14   -4.6  100   -4.6  0     0     979.8    NA       0.0000   9999     390   0     0    
2019/08/29  09:50:00  BASE  3.01644  17   3.32808  14   -4.6  100   -4.6  0     0     979.7    NA       0.0000   9999     390   0     0    
2019/08/29  09:51:00  BASE  2.86944  19   3.32808  14   -4.6  100   -4.6  0     0     979.7    NA       0.0000   9999     360   0     0    
2019/08/29  09:52:00  BASE  2.7342   26   3.32808  14   -4.7  100   -4.7  0     0     979.8    NA       0.0000   9999     300   0     0    
2019/08/29  09:53:00  BASE  2.63424  30   3.32808  14   -4.7  100   -4.7  0     0     979.8    NA       0.0000   9999     360   0     0    
2019/08/29  09:54:00  BASE  2.59896  27   3.32808  14   -4.8  100   -4.8  0     0     979.8    NA       0.0000   9999     360   0     0    
2019/08/29  09:55:00  BASE  2.5284   23   3.32808  14   -4.8  100   -4.8  0     0     979.8    NA       0.0000   9999     360   0     0    
2019/08/29  09:56:00  BASE  2.31084  22   3.29868  15   -4.8  100   -4.8  0     0     979.8    NA       0.0000   9999     330   0     0    
2019/08/29  09:57:00  BASE  2.06976  27   3.29868  15   -4.8  100   -4.8  0     0     979.8    NA       0.0000   9999     260   0     0    
2019/08/29  09:58:01  BASE  1.89924  32   3.29868  15   -4.9  100   -4.9  0     0     979.8    NA       0.0000   9999     300   0     0    
2019/08/29  09:59:00  BASE  2.058    36   3.2046   15   -4.9  100   -4.9  0     0     979.8    NA       0.0000   9999     300   0     0    
2019/08/29  10:00:00  BASE  2.28144  34   3.087    8    -4.9  100   -4.9  0     0     979.8    NA       0.0000   9999     300   0     0    
2019/08/29  10:01:00  BASE  2.31672  28   2.84592  25   -4.9  100   -4.9  0     0     979.8    NA       0.0000   9999     300   0     0    
2019/08/29  10:02:00  BASE  2.5578   24   2.87532  20   -4.9  100   -4.9  0     0     979.8    NA       0.0000   9999     330   0     0    
2019/08/29  10:03:00  BASE  2.69304  23   2.90472  26   -4.9  100   -4.9  0     0     979.8    NA       0.0000   9999     330   0     0    
2019/08/29  10:04:01  BASE  2.65188  25   2.90472  26   -4.9  100   -4.9  0     0     979.8    NA       0.0000   9999     360   0     0    
2019/08/29  10:05:00  BASE  2.65188  21   2.90472  26   -4.9  100   -4.9  0     0     979.9    NA       0.0000   9999     390   0     0    
2019/08/29  10:06:01  BASE  2.6754   14   2.90472  10   -4.9  100   -4.9  0     0     979.9    NA       0.0000   9999     360   0     0    
2019/08/29  10:07:00  BASE  2.71068  11   2.90472  10   -4.9  100   -4.9  0     0     979.9    NA       0.0000   9999     360   0     0    
2019/08/29  10:08:00  BASE  2.65776  10   2.90472  10   -4.9  100   -4.9  0     0     979.9    NA       0.0000   9999     360   0     0    
2019/08/29  10:09:01  BASE  2.65188  12   2.99292  14   -4.9  100   -4.9  0     0     979.9    NA       0.0000   9999     330   0     0    
2019/08/29  10:10:00  BASE  2.7342   13   3.02232  9    -4.9  100   -4.9  0     0     979.9    NA       0.0000   9999     330   0     0    
2019/08/29  10:11:00  BASE  2.58132  14   3.02232  9    -4.9  100   -4.9  0     0     979.9    NA       0.0000   9999     330   0     0    
2019/08/29  10:12:01  BASE  2.37552  17   3.02232  9    -4.8  100   -4.8  0     0     980.0    NA       0.0000   9999     300   0     0    
2019/08/29  10:13:01  BASE  2.21676  21   3.02232  9    -4.8  100   -4.8  0     0     980.1    NA       0.0000   9999     300   0     0    
2019/08/29  10:14:01  BASE  1.94628  26   3.02232  9    -4.8  100   -4.8  0     0     980.1    NA       0.0000   9999     300   0     0    
2019/08/29  10:15:00  BASE  1.86984  26   3.02232  9    -4.8  100   -4.8  0     0     980.1    NA       0.0000   9999     330   0     0    
2019/08/29  10:16:01  BASE  1.87572  20   3.02232  9    -4.8  100   -4.8  0     0     980.1    NA       0.0000   9999     330   0     0    
2019/08/29  10:17:00  BASE  1.74636  19   3.02232  9    -4.9  100   -4.9  0     0     980.1    NA       0.0000   9999     300   0     0    
2019/08/29  10:18:01  BASE  1.7934   26   3.02232  9    -4.9  100   -4.9  0     0     980.2    NA       0.0000   9999     260   0     0    
2019/08/29  10:19:00  BASE  1.71108  29   3.02232  9    -5.0  100   -5.0  0     0     980.2    NA       0.0000   9999     330   0     0    
2019/08/29  10:20:00  BASE  1.58172  28   2.63424  17   -5.0  100   -5.0  0     0     980.2    NA       0.0000   9999     330   0     0    
2019/08/29  10:21:00  BASE  1.65228  23   2.63424  17   -5.0  100   -5.0  0     0     980.2    NA       0.0000   9999     390   0     0    
2019/08/29  10:22:01  BASE  1.51704  24   2.35788  19   -4.9  100   -4.9  0     0     980.2    NA       0.0000   9999     390   0     0    
2019/08/29  10:23:00  BASE  1.3524   21   2.0874   27   -4.9  100   -4.9  0     0     980.2    NA       0.0000   9999     300   0     0    
2019/08/29  10:24:00  BASE  1.21716  24   2.0874   27   -4.9  100   -4.9  0     0     980.2    NA       0.0000   9999     300   0     0    
2019/08/29  10:25:00  BASE  1.25244  40   2.0874   27   -4.9  100   -4.9  0     0     980.2    NA       0.0000   9999     260   0     0    
2019/08/29  10:26:01  BASE  1.60524  50   2.0874   44   -4.9  100   -4.9  0     0     980.2    NA       0.0000   9999     330   0     0    
2019/08/29  10:27:00  BASE  2.03448  54   2.54016  59   -4.9  100   -4.9  0     0     980.2    NA       0.0000   9999     330   0     0    
2019/08/29  10:28:00  BASE  2.47548  48   2.75184  41   -4.9  100   -4.9  0     0     980.2    NA       0.0000   9999     0     0     0    
2019/08/29  10:29:01  BASE  2.63424  41   2.75184  41   -5.0  100   -5.0  0     0     980.2    NA       0.0000   9999     160   0     0    
2019/08/29  10:30:00  BASE  2.51664  36   2.75184  41   -5.0  100   -5.0  0     0     980.2    NA       0.0000   9999     0     0     0    
2019/08/29  10:31:00  BASE  2.4696   29   2.75184  41   -5.0  100   -5.0  0     0     980.2    NA       0.0000   9999     0     0     0    
2019/08/29  10:32:01  BASE  2.4402   26   2.75184  41   -5.0  100   -5.0  0     0     980.2    NA       0.0000   9999     0     0     0    
2019/08/29  10:33:00  BASE  2.48136  22   3.1752   17   -4.9  100   -4.9  0     0     980.2    NA       0.0000   9999     230   0     0    
2019/08/29  10:34:00  BASE  2.61072  22   3.1752   17   -4.9  100   -4.9  0     0     980.2    NA       0.0000   9999     230   0     0    
2019/08/29  10:35:00  BASE  2.62248  25   3.1752   17   -4.8  100   -4.8  0     0     980.2    NA       0.0000   9999     260   0     0    
2019/08/29  10:36:00  BASE  2.48724  27   3.1752   17   -4.8  100   -4.8  0     0     980.2    NA       0.0000   9999     230   0     0    
2019/08/29  10:37:00  BASE  2.37552  27   3.1752   17   -4.7  100   -4.7  0     0     980.2    NA       0.0000   9999     230   0     0    
2019/08/29  10:38:00  BASE  2.41668  24   3.1752   17   -4.7  100   -4.7  0     0     980.2    NA       0.0000   9999     230   0     0    
2019/08/29  10:39:00  BASE  2.42844  25   3.1752   17   -4.7  100   -4.7  0     0     980.2    NA       0.0000   9999     200   0     0    
2019/08/29  10:40:00  BASE  2.48136  28   3.1752   17   -4.7  100   -4.7  0     0     980.2    NA       0.0000   9999     0     0     0    
2019/08/29  10:41:00  BASE  2.72244  25   3.1752   17   -4.7  100   -4.7  0     0     980.2    NA       0.0000   9999     0     0     0    
2019/08/29  10:42:01  BASE  2.93412  22   3.1752   17   -4.6  100   -4.6  0     0     980.2    NA       0.0000   9999     0     0     0    
2019/08/29  10:43:00  BASE  3.087    19   3.234    18   -4.6  100   -4.6  0     0     980.2    NA       0.0000   9999     0     0     0    
2019/08/29  10:44:00  BASE  3.07524  17   3.234    18   -4.7  100   -4.7  0     0     980.2    NA       0.0000   9999     200   0     0    
2019/08/29  10:45:00  BASE  2.94588  18   3.234    18   -4.6  100   -4.6  0     0     980.3    NA       0.0000   9999     0     0     0    
2019/08/29  10:46:00  BASE  2.85768  23   3.234    18   -4.7  100   -4.7  0     0     980.3    NA       0.0000   9999     0     0     0    
2019/08/29  10:47:00  BASE  2.80476  27   3.234    18   -4.7  100   -4.7  0     0     980.3    NA       0.0000   9999     0     0     0    
2019/08/29  10:48:00  BASE  2.7048   30   3.234    18   -4.7  100   -4.7  0     0     980.3    NA       0.0000   9999     160   0     0    
2019/08/29  10:49:00  BASE  2.65776  32   3.234    18   -4.7  100   -4.7  0     0     980.3    NA       0.0000   9999     160   0     0    
2019/08/29  10:50:00  BASE  2.68716  28   3.234    18   -4.7  100   -4.7  0     0     980.2    NA       0.0000   9999     160   0     0    
2019/08/29  10:51:00  BASE  2.71068  26   3.234    18   -4.7  100   -4.7  0     0     980.2    NA       0.0000   9999     160   0     0    
2019/08/29  10:52:00  BASE  2.58132  29   3.234    18   -4.7  100   -4.7  0     0     980.2    NA       0.0000   9999     0     0     0    
2019/08/29  10:53:00  BASE  2.45196  29   3.1752   14   -4.7  100   -4.7  0     0     980.2    NA       0.0000   9999     0     0     0    
2019/08/29  10:54:00  BASE  2.64012  23   3.1458   17   -4.7  100   -4.7  0     0     980.2    NA       0.0000   9999     0     0     0    
2019/08/29  10:55:00  BASE  2.90472  17   3.1458   16   -4.7  100   -4.7  0     0     980.2    NA       0.0000   9999     0     0     0    
2019/08/29  10:56:00  BASE  3.01644  12   3.1458   16   -4.7  100   -4.7  0     0     980.2    NA       0.0000   9999     0     0     0    
2019/08/29  10:57:00  BASE  3.0576   9    3.26928  8    -4.7  100   -4.7  0     0     980.2    NA       0.0000   9999     0     0     0    
2019/08/29  10:58:00  BASE  2.92236  13   3.26928  8    -4.7  100   -4.7  0     0     980.2    NA       0.0000   9999     0     0     0    
2019/08/29  10:59:00  BASE  2.75184  24   3.26928  8    -4.7  100   -4.7  0     0     980.2    NA       0.0000   9999     230   0     0    
2019/08/29  11:00:00  BASE  2.72244  30   3.26928  8    -4.7  100   -4.7  1     0     980.1    NA       0.0000   9999     200   0     0    
2019/08/29  11:01:00  BASE  2.91648  27   3.35748  24   -4.8  100   -4.8  1     0     980.1    NA       0.0000   9999     200   0     0    
2019/08/29  11:02:00  BASE  3.06936  25   3.35748  24   -4.8  100   -4.8  1     0     980.1    NA       0.0000   9999     0     0     0    
2019/08/29  11:03:00  BASE  3.07524  23   3.35748  24   -4.8  100   -4.8  1     0     980.1    NA       0.0000   9999     0     0     0    
2019/08/29  11:04:00  BASE  3.06348  23   3.35748  24   -4.9  100   -4.9  1     0     980.2    NA       0.0000   9999     0     0     0    
2019/08/29  11:05:00  BASE  2.98704  23   3.35748  24   -4.9  100   -4.9  1     0     980.2    NA       0.0000   9999     0     0     0    
2019/08/29  11:06:00  BASE  3.02232  24   3.35748  24   -5.0  100   -5.0  2     0     980.2    NA       0.0000   8000     0     0     0    
2019/08/29  11:07:00  BASE  2.86356  22   3.35748  24   -5.0  100   -5.0  2     0     980.2    NA       0.0000   8000     0     0     0    
2019/08/29  11:08:00  BASE  2.78124  18   3.35748  24   -5.1  100   -5.1  2     0     980.2    NA       0.0000   9999     0     0     0    
2019/08/29  11:09:00  BASE  2.646    22   3.35748  24   -5.1  100   -5.1  2     0     980.2    NA       0.0000   9999     0     0     0    
2019/08/29  11:10:00  BASE  2.1756   30   3.35748  24   -5.1  100   -5.1  2     0     980.3    NA       0.0000   9999     0     0     0    
2019/08/29  11:11:00  BASE  2.01096  36   3.29868  24   -5.2  100   -5.2  3     0     980.3    NA       0.0000   9999     0     0     0    
2019/08/29  11:12:00  BASE  2.14032  39   3.29868  24   -5.2  100   -5.2  3     0     980.3    NA       0.0000   9999     0     0     0    
2019/08/29  11:13:00  BASE  2.31084  39   3.26928  23   -5.2  100   -5.2  3     0     980.3    NA       0.0000   9999     0     0     0    
2019/08/29  11:14:00  BASE  2.22852  41   3.26928  23   -5.2  100   -5.2  3     0     980.2    NA       0.0000   9999     0     0     0    
2019/08/29  11:15:00  BASE  1.98744  45   3.26928  23   -5.2  100   -5.2  3     0     980.3    NA       0.0000   9999     0     0     0    
2019/08/29  11:16:00  BASE  1.8522   49   2.99292  17   -5.2  100   -5.2  4     0     980.3    NA       0.0000   9999     0     0     0    
2019/08/29  11:17:00  BASE  1.71108  52   2.99292  17   -5.2  100   -5.2  4     0     980.4    NA       0.0000   9999     0     0     0    
2019/08/29  11:18:00  BASE  1.617    55   2.69304  25   -5.2  100   -5.2  4     0     980.3    NA       0.0000   9999     0     0     0    
2019/08/29  11:19:00  BASE  1.56996  53   2.54016  36   -5.2  100   -5.2  4     0     980.4    NA       0.0000   9999     0     0     0    
2019/08/29  11:20:00  BASE  1.50528  50   2.54016  36   -5.1  100   -5.1  3     0     980.4    NA       0.0000   9999     0     0     0    
2019/08/29  11:21:00  BASE  1.4994   47   2.54016  36   -5.1  100   -5.1  4     0     980.4    NA       0.0000   9999     0     0     0    
2019/08/29  11:22:00  BASE  1.47     48   2.54016  36   -5.1  100   -5.1  4     0     980.4    NA       0.0000   9999     0     0     0    
2019/08/29  11:23:00  BASE  1.3524   55   2.21088  37   -5.0  100   -5.0  4     0     980.4    NA       0.0000   9999     0     0     0    
2019/08/29  11:24:00  BASE  1.37592  59   2.058    45   -5.0  100   -5.0  4     0     980.4    NA       0.0000   9999     0     0     0    
2019/08/29  11:25:00  BASE  1.47     62   1.90512  45   -5.1  100   -5.1  4     0     980.4    NA       0.0000   9999     0     0     0    
2019/08/29  11:26:00  BASE  1.30536  61   1.78752  51   -5.1  100   -5.1  5     0     980.4    NA       0.0000   9000     0     0     0    
2019/08/29  11:27:00  BASE  1.04664  58   1.75224  58   -5.0  100   -5.0  5     0     980.4    NA       0.0000   3700     0     0     0    
2019/08/29  11:28:00  BASE  0.99372  44   1.63464  50   -5.0  100   -5.0  5     0     980.4    NA       0.0000   BR       2400  0     0    
2019/08/29  11:29:00  BASE  0.96432  26   1.63464  50   -5.0  100   -5.0  5     0     980.4    NA       0.0000   BR       2600  0     0    
2019/08/29  11:30:00  BASE  1.06428  15   1.63464  50   -4.9  100   -4.9  5     0     980.4    NA       0.0000   BR       2600  0     0    
2019/08/29  11:31:00  BASE  1.18188  4    1.60524  62   -4.8  100   -4.8  5     0     980.4    NA       0.0000   BR       5000  0     0    
2019/08/29  11:32:00  BASE  1.15836  5    1.60524  62   -4.8  100   -4.8  6     0     980.4    NA       0.0000   BR       7000  0     0    
2019/08/29  11:33:00  BASE  1.21128  12   1.60524  62   -4.8  100   -4.8  6     0     980.4    NA       0.0000   BR       8000  0     0    
2019/08/29  11:34:00  BASE  1.21716  21   1.54056  67   -4.8  100   -4.8  6     0     980.4    NA       0.0000   BR       9000  0     0    
2019/08/29  11:35:00  BASE  1.28184  34   1.57584  42   -4.8  100   -4.8  7     0     980.4    NA       0.0000   BR       9000  0     0    
2019/08/29  11:36:00  BASE  1.39944  42   1.57584  42   -4.9  100   -4.9  8     0     980.4    NA       0.0000   BR       9999  0     0    
2019/08/29  11:37:00  BASE  1.44648  46   1.57584  42   -4.9  100   -4.9  8     0     980.4    NA       0.0000   BR       9999  160   0    
2019/08/29  11:38:00  BASE  1.45824  46   1.57584  42   -5.0  100   -5.0  8     0     980.4    NA       0.0000   BR       9999  0     0    
2019/08/29  11:39:00  BASE  1.43472  45   1.57584  42   -5.1  100   -5.1  9     0     980.4    NA       0.0000   BR       9999  0     0    
2019/08/29  11:40:00  BASE  1.5582   50   1.81692  50   -5.1  100   -5.1  9     0     980.4    NA       0.0000   BR       9999  0     0    
2019/08/29  11:41:00  BASE  1.65816  52   1.81692  50   -5.1  100   -5.1  10    0     980.4    NA       0.0000   9999     0     0     0    
2019/08/29  11:42:00  BASE  1.54644  54   1.81692  50   -5.1  100   -5.1  10    0     980.4    NA       0.0000   9999     0     0     0    
2019/08/29  11:43:00  BASE  1.47588  53   1.81692  50   -5.1  100   -5.1  10    0     980.4    NA       0.0000   9999     160   0     0    
2019/08/29  11:44:00  BASE  1.4994   40   1.81692  50   -5.2  100   -5.2  11    0     980.4    NA       0.0000   9999     160   0     0    
2019/08/29  11:45:00  BASE  1.5288   28   1.81692  50   -5.2  100   -5.2  11    0     980.4    NA       0.0000   9999     160   0     0    
2019/08/29  11:46:00  BASE  1.4994   24   1.81692  50   -5.3  100   -5.3  12    0     980.4    NA       0.0000   9999     200   0     0    
2019/08/29  11:47:00  BASE  1.47     25   1.81692  50   -5.3  100   -5.3  12    0     980.4    NA       0.0000   9999     200   0     0    
2019/08/29  11:48:00  BASE  1.49352  29   1.81692  50   -5.4  100   -5.4  12    0     980.4    NA       0.0000   9999     200   0     0    
2019/08/29  11:49:00  BASE  1.50528  32   1.81692  50   -5.4  100   -5.4  13    0     980.4    NA       0.0000   9999     260   0     0    
2019/08/29  11:50:00  BASE  1.43472  35   1.75224  58   -5.4  100   -5.4  13    0     980.4    NA       0.0000   9999     200   0     0    
2019/08/29  11:51:00  BASE  1.27008  40   1.69344  19   -5.4  100   -5.4  13    0     980.5    NA       0.0000   9999     0     0     0    
2019/08/29  11:52:00  BASE  1.12308  42   1.69344  19   -5.4  100   -5.4  13    0     980.6    NA       0.0000   4800     0     0     0    
2019/08/29  11:53:00  BASE  1.15248  34   1.69344  19   -5.4  100   -5.4  13    0     980.6    NA       0.0000   6000     0     0     0    
2019/08/29  11:54:00  BASE  1.2054   29   1.69344  19   -5.3  100   -5.3  14    0     980.6    NA       0.0000   BR       8000  0     0    
2019/08/29  11:55:00  BASE  1.16424  26   1.69344  19   -5.3  100   -5.3  14    0     980.6    NA       0.0000   BR       8000  0     0    
2019/08/29  11:56:00  BASE  1.15836  29   1.69344  19   -5.3  100   -5.3  14    0     980.6    NA       0.0000   BR       8000  0     0    
2019/08/29  11:57:00  BASE  1.09956  31   1.57584  33   -5.4  100   -5.4  15    0     980.6    NA       0.0000   BR       9999  0     0    
2019/08/29  11:58:00  BASE  1.02312  30   1.57584  33   -5.5  100   -5.5  15    0     980.6    NA       0.0000   BR       9999  0     0    
2019/08/29  11:59:00  BASE  1.06428  26   1.45236  33   -5.5  100   -5.5  15    0     980.6    NA       0.0000   BR       9999  0     0    
2019/08/29  12:00:00  BASE  1.0584   22   1.42296  24   -5.6  100   -5.6  15    0     980.6    NA       0.0000   BR       9999  0     0    
2019/08/29  12:01:00  BASE  1.14072  24   1.42296  24   -5.6  100   -5.6  15    0     980.7    NA       0.0000   BR       9999  0     0    
2019/08/29  12:02:00  BASE  1.25244  22   1.42296  24   -5.6  100   -5.6  15    0     980.7    NA       0.0000   9999     0     0     0    
2019/08/29  12:03:00  BASE  1.22892  24   1.42296  24   -5.6  100   -5.6  16    0     980.7    NA       0.0000   9999     0     0     0    
2019/08/29  12:04:00  BASE  1.28772  35   1.60524  55   -5.6  100   -5.6  16    0     980.7    NA       0.0000   9999     0     0     0    
2019/08/29  12:05:00  BASE  1.3524   44   1.60524  55   -5.6  100   -5.6  16    0     980.7    NA       0.0000   9999     0     0     0    
2019/08/29  12:06:00  BASE  1.34064  45   1.60524  55   -5.6  100   -5.6  17    0     980.6    NA       0.0000   9999     0     0     0    
2019/08/29  12:07:00  BASE  1.32888  41   1.78752  39   -5.5  100   -5.5  17    0     980.6    NA       0.0000   9000     160   0     0    
2019/08/29  12:08:00  BASE  1.25832  43   1.78752  39   -5.5  100   -5.5  17    0     980.6    NA       0.0000   9999     0     0     0    
2019/08/29  12:09:00  BASE  0.93492  51   1.78752  39   -5.5  100   -5.5  18    0     980.7    NA       0.0000   9999     0     0     0    
2019/08/29  12:10:00  BASE  0.69384  60   1.78752  39   -5.5  100   -5.5  17    0     980.7    NA       0.0000   8000     0     0     0    
2019/08/29  12:11:00  BASE  0.65268  52   1.78752  39   -5.5  100   -5.5  18    0     980.7    NA       0.0000   7000     0     0     0    
2019/08/29  12:12:00  BASE  0.74676  53   1.78752  39   -5.4  100   -5.5  18    0     980.7    NA       0.0000   6000     0     0     0    
2019/08/29  12:13:00  BASE  0.8526   57   1.78752  39   -5.4  100   -5.4  18    0     980.7    NA       0.0000   BR       5000  0     0    
2019/08/29  12:14:00  BASE  0.72324  41   1.78752  39   -5.4  100   -5.4  18    0     980.7    NA       0.0000   BR       4900  0     0    
2019/08/29  12:15:00  BASE  0.75852  40   1.78752  39   -5.3  100   -5.3  18    0     980.7    NA       0.0000   BR       3200  0     0    
2019/08/29  12:16:00  BASE  0.77616  20   1.78752  39   -5.3  100   -5.3  18    0     980.7    NA       0.0000   BR       4700  0     0    
2019/08/29  12:17:00  BASE  0.34104  5    1.32888  45   -5.3  100   -5.3  19    0     980.7    NA       0.0000   BR       2100  0     0    
2019/08/29  12:18:00  BASE  0.16464  24   1.1466   349  -5.3  100   -5.3  19    0     980.7    NA       0.0000   BR       1000  0     0    
2019/08/29  12:19:00  BASE  0.80556  23   1.48176  360  -5.3  100   -5.3  19    0     980.7    NA       0.0000   BR       1200  0     0    
2019/08/29  12:20:00  BASE  1.2348   13   1.48176  360  -5.3  100   -5.3  20    0     980.7    NA       0.0000   BR       1700  0     0    
2019/08/29  12:21:00  BASE  1.04076  15   1.48176  360  -5.3  100   -5.3  23    0     980.7    NA       0.0000   BR       2600  0     0    
2019/08/29  12:22:00  BASE  0.75264  20   1.48176  360  -5.3  100   -5.3  28    0     980.8    NA       0.0000   BR       2900  0     0    
2019/08/29  12:23:00  BASE  0.46452  26   1.48176  360  -5.4  100   -5.4  31    0     980.8    NA       0.0000   BR       1900  0     0    
2019/08/29  12:24:00  BASE  0.588    31   1.48176  360  -5.4  100   -5.4  31    0     980.8    NA       0.0000   BR       1100  0     0    
2019/08/29  12:25:00  BASE  0.99372  27   1.48176  360  -5.4  100   -5.4  30    0     980.8    NA       0.0000   BR       1300  0     0    
2019/08/29  12:26:00  BASE  1.16424  33   1.48176  43   -5.4  100   -5.4  29    0     980.9    NA       0.0000   BR       2300  0     0    
2019/08/29  12:27:00  BASE  1.2642   44   1.54056  52   -5.4  100   -5.4  31    0     980.8    NA       0.0000   BR       1800  0     0    
2019/08/29  12:28:00  BASE  1.29948  57   1.54056  52   -5.4  100   -5.4  31    0     980.9    NA       0.0000   BR       0900  0     0    
2019/08/29  12:29:00  BASE  0.97608  61   1.54056  52   -5.4  100   -5.4  30    0     980.8    NA       0.0000   BR       0650  0     0    
2019/08/29  12:30:00  BASE  0.74088  53   1.54056  52   -5.4  100   -5.4  29    0     980.8    NA       0.0000   BR       0600  0     0    
2019/08/29  12:31:00  BASE  0.92316  53   1.54056  52   -5.3  100   -5.3  31    0     980.8    NA       0.0000   BR       0550  0     0    
2019/08/29  12:32:00  BASE  1.2936   55   1.84632  60   -5.3  100   -5.3  34    0     980.8    NA       0.0000   BR       0450  0     0    
2019/08/29  12:33:00  BASE  1.5582   54   1.84632  52   -5.3  100   -5.3  34    0     980.8    NA       0.0000   FZFG     0450  0     0    
2019/08/29  12:34:00  BASE  1.57584  53   1.84632  52   -5.3  100   -5.3  34    0     980.8    NA       0.0000   FZFG     0500  0     0    
2019/08/29  12:35:00  BASE  1.617    57   1.84632  52   -5.3  100   -5.3  34    0     980.8    NA       0.0000   FZFG     0500  0     0    
2019/08/29  12:36:00  BASE  1.65816  57   1.84632  52   -5.3  100   -5.3  35    0     980.8    NA       0.0000   FZFG     0400  0     0    
2019/08/29  12:37:00  BASE  1.61112  55   1.84632  52   -5.4  100   -5.4  34    0     980.8    NA       0.0000   FZFG     0350  0     0    
2019/08/29  12:38:00  BASE  1.6464   54   1.96392  56   -5.4  100   -5.4  35    0     980.8    NA       0.0000   FZFG     0300  0     0    
2019/08/29  12:39:00  BASE  1.74636  56   1.96392  56   -5.4  100   -5.4  37    0     980.8    NA       0.0000   FZFG     0300  0     0    
2019/08/29  12:40:00  BASE  1.8228   58   1.96392  60   -5.4  100   -5.4  39    0     980.9    NA       0.0000   FZFG     0300  0     0    
2019/08/29  12:41:00  BASE  2.00508  60   2.35788  61   -5.4  100   -5.4  41    0     980.9    NA       0.0000   FZFG     0300  0     0    
2019/08/29  12:42:00  BASE  2.1756   61   2.35788  63   -5.4  100   -5.4  43    0     980.9    NA       0.0000   FZFG     0300  0     0    
2019/08/29  12:43:00  BASE  2.25792  61   2.54016  62   -5.5  100   -5.5  47    0     980.9    NA       0.0000   FZFG     0300  0     0    
2019/08/29  12:44:01  BASE  2.41668  61   2.63424  63   -5.5  100   -5.5  47    0     981.0    NA       0.0000   FZFG     0300  0     0    
2019/08/29  12:45:00  BASE  2.15796  59   2.63424  63   -5.5  100   -5.5  49    0     981.0    NA       0.0000   FZFG     0300  0     0    
2019/08/29  12:46:00  BASE  1.84632  59   2.63424  63   -5.5  100   -5.5  50    0     980.9    NA       0.0000   FZFG     0250  0     0    
2019/08/29  12:47:00  BASE  1.98156  59   2.63424  63   -5.6  100   -5.6  50    0     981.0    NA       0.0000   FZFG     0250  0     0    
2019/08/29  12:48:00  BASE  2.058    55   2.63424  63   -5.6  100   -5.6  55    0     981.0    NA       0.0000   FZFG     0300  0     0    
2019/08/29  12:49:00  BASE  1.94628  55   2.63424  63   -5.6  100   -5.6  59    0     981.0    NA       0.0000   FZFG     0300  0     0    
2019/08/29  12:50:00  BASE  1.87572  54   2.63424  63   -5.6  100   -5.6  59    0     981.0    NA       0.0000   FZFG     0300  0     0    
2019/08/29  12:51:00  BASE  1.91688  52   2.63424  63   -5.6  100   -5.6  58    0     981.0    NA       0.0000   FZFG     0300  0     0    
2019/08/29  12:52:00  BASE  2.01096  52   2.63424  63   -5.6  100   -5.6  58    0     981.0    NA       0.0000   FZFG     0350  0     0    
2019/08/29  12:53:00  BASE  2.09916  51   2.63424  63   -5.6  100   -5.6  56    0     981.0    NA       0.0000   FZFG     0400  0     0    
2019/08/29  12:54:00  BASE  2.0874   48   2.21088  53   -5.6  100   -5.6  55    0     981.0    NA       0.0000   FZFG     0500  0     0    
2019/08/29  12:55:00  BASE  1.9992   44   2.21088  53   -5.6  100   -5.6  52    0     981.0    NA       0.0000   FZFG     0450  0     0    
2019/08/29  12:56:00  BASE  1.95804  41   2.21088  53   -5.5  100   -5.6  51    0     981.0    NA       0.0000   FZFG     0600  0     0    
2019/08/29  12:57:00  BASE  2.01684  39   2.1756   48   -5.5  100   -5.5  53    0     981.0    NA       0.0000   FZFG     0700  0     0    
2019/08/29  12:58:00  BASE  2.03448  38   2.1756   48   -5.5  100   -5.5  55    0     981.0    NA       0.0000   FZFG     0600  0     0    
2019/08/29  12:59:00  BASE  1.9992   39   2.1756   48   -5.5  100   -5.5  56    0     981.0    NA       0.0000   FZFG     0400  0     0    
2019/08/29  13:00:00  BASE  1.89924  39   2.1756   48   -5.5  100   -5.5  57    0     981.0    NA       0.0000   FZFG     0350  0     0    
2019/08/29  13:01:00  BASE  1.77576  40   2.1756   48   -5.5  100   -5.5  58    0     981.0    NA       0.0000   FZFG     0450  0     0    
2019/08/29  13:02:00  BASE  1.89336  42   2.21088  43   -5.5  100   -5.5  62    0     981.0    NA       0.0000   FZFG     0600  0     0    
2019/08/29  13:03:00  BASE  2.12856  43   2.32848  44   -5.5  100   -5.5  62    0     981.0    NA       0.0000   FZFG     0900  0     0    
2019/08/29  13:04:00  BASE  2.21676  45   2.32848  44   -5.6  100   -5.6  59    0     981.0    NA       0.0000   FZFG     1600  0     0    
2019/08/29  13:05:00  BASE  2.1168   48   2.35788  51   -5.6  100   -5.6  63    0     981.0    NA       0.0000   FZFG     5000  0     0    
2019/08/29  13:06:00  BASE  1.9992   49   2.35788  51   -5.6  100   -5.6  67    0     981.1    NA       0.0000   FZFG     9999  0     0    
2019/08/29  13:07:00  BASE  2.01096  50   2.35788  51   -5.6  100   -5.6  68    0     981.1    NA       0.0000   FZFG     9999  0     0    
2019/08/29  13:08:00  BASE  2.03448  50   2.35788  51   -5.6  100   -5.6  67    0     981.2    NA       0.0000   BR       9999  0     0    
2019/08/29  13:09:00  BASE  1.96392  50   2.35788  51   -5.7  100   -5.7  66    0     981.2    NA       0.0000   BR       9999  0     0    
2019/08/29  13:10:00  BASE  1.911    52   2.35788  51   -5.7  100   -5.7  62    0     981.2    NA       0.0000   BR       9999  0     0    
2019/08/29  13:11:00  BASE  1.95216  56   2.35788  51   -5.7  100   -5.7  59    0     981.2    NA       0.0000   BR       9999  0     0    
2019/08/29  13:12:00  BASE  1.92864  59   2.35788  51   -5.7  100   -5.7  63    0     981.2    NA       0.0000   BR       9999  0     0    
2019/08/29  13:13:00  BASE  1.84632  56   2.35788  51   -5.7  100   -5.7  71    0     981.2    NA       0.0000   BR       8000  0     0    
2019/08/29  13:14:00  BASE  1.91688  50   2.35788  51   -5.6  100   -5.6  74    0     981.2    NA       0.0000   6000     0     0     0    
2019/08/29  13:15:00  BASE  1.95804  46   2.21088  52   -5.6  100   -5.6  75    0     981.2    NA       0.0000   8000     0     0     0    
2019/08/29  13:16:00  BASE  1.8816   42   2.21088  52   -5.6  100   -5.6  75    0     981.2    NA       0.0000   BR       3600  0     0    
2019/08/29  13:17:00  BASE  1.77576  37   2.21088  52   -5.6  100   -5.6  73    0     981.2    NA       0.0000   BR       1900  0     0    
2019/08/29  13:18:00  BASE  1.57584  33   2.0874   49   -5.5  100   -5.5  73    0     981.2    NA       0.0000   BR       2000  0     0    
2019/08/29  13:19:00  BASE  1.39356  33   2.0874   49   -5.5  100   -5.5  78    0     981.2    NA       0.0000   BR       2400  0     0    
2019/08/29  13:20:00  BASE  1.42296  46   2.0874   49   -5.4  100   -5.4  88    0     981.2    NA       0.0000   BR       2800  0     0    
2019/08/29  13:21:00  BASE  1.59936  57   2.0874   49   -5.4  100   -5.4  90    0     981.2    NA       0.0000   BR       7000  0     0    
2019/08/29  13:22:00  BASE  1.68168  53   2.0874   49   -5.3  100   -5.3  87    0     981.2    NA       0.0000   BR       9999  0     0    
2019/08/29  13:23:00  BASE  1.62876  44   2.0874   49   -5.3  100   -5.3  85    0     981.2    NA       0.0000   BR       9999  0     0    
2019/08/29  13:24:00  BASE  1.617    41   2.0874   49   -5.3  100   -5.3  83    0     981.2    NA       0.0000   BR       9999  0     0    
2019/08/29  13:25:00  BASE  1.63464  41   1.90512  43   -5.3  100   -5.3  80    0     981.2    NA       0.0000   BR       9999  0     0    
2019/08/29  13:26:00  BASE  1.62288  38   1.87572  36   -5.3  100   -5.3  77    0     981.2    NA       0.0000   BR       9999  0     0    
2019/08/29  13:27:00  BASE  1.6464   36   1.90512  28   -5.2  100   -5.2  75    0     981.2    NA       0.0000   BR       9999  0     0    
2019/08/29  13:28:00  BASE  1.69932  36   1.90512  30   -5.2  100   -5.2  75    0     981.2    NA       0.0000   BR       9999  0     0    
2019/08/29  13:29:00  BASE  1.77576  36   1.93452  33   -5.1  100   -5.1  79    0     981.2    NA       0.0000   BR       9999  0     0    
2019/08/29  13:30:00  BASE  1.74636  35   1.93452  33   -5.1  100   -5.1  84    0     981.2    NA       0.0000   9999     0     0     0    
2019/08/29  13:31:00  BASE  1.7052   31   2.21088  28   -5.1  100   -5.1  86    0     981.2    NA       0.0000   9999     0     0     0    
2019/08/29  13:32:00  BASE  1.6758   29   2.21088  28   -5.0  100   -5.0  84    0     981.2    NA       0.0000   9999     0     0     0    
2019/08/29  13:33:00  BASE  1.61112  31   2.21088  28   -5.0  100   -5.0  81    0     981.2    NA       0.0000   9999     0     0     0    
2019/08/29  13:34:01  BASE  1.56408  36   2.21088  28   -5.0  100   -5.0  79    0     981.3    NA       0.0000   9999     0     0     0    
2019/08/29  13:35:00  BASE  1.52292  43   2.21088  28   -5.0  100   -5.0  81    0     981.4    NA       0.0000   9999     0     0     0    
2019/08/29  13:36:00  BASE  1.66404  47   2.21088  28   -5.0  100   -5.0  84    0     981.3    NA       0.0000   9999     0     0     0    
2019/08/29  13:37:00  BASE  1.86396  45   2.21088  28   -5.0  100   -5.0  84    0     981.4    NA       0.0000   9999     160   0     0    
2019/08/29  13:38:00  BASE  1.86984  37   2.21088  28   -4.9  100   -4.9  79    0     981.4    NA       0.0000   9999     160   0     0    
2019/08/29  13:39:00  BASE  1.75812  32   2.21088  28   -4.9  100   -4.9  74    0     981.4    NA       0.0000   9999     160   0     0    
2019/08/29  13:40:00  BASE  1.6758   26   2.21088  28   -4.9  100   -4.9  70    0     981.4    NA       0.0000   9999     0     0     0    
2019/08/29  13:41:00  BASE  1.51116  17   2.0874   32   -4.9  100   -4.9  66    0     981.4    NA       0.0000   9999     0     0     0    
2019/08/29  13:42:00  BASE  1.28772  17   2.0874   32   -4.8  100   -4.8  65    0     981.4    NA       0.0000   9999     0     0     0    
2019/08/29  13:43:00  BASE  1.46412  18   2.0874   32   -4.8  100   -4.8  67    0     981.4    NA       0.0000   9999     0     0     0    
2019/08/29  13:44:00  BASE  1.84632  11   2.0874   32   -4.8  100   -4.8  69    0     981.4    NA       0.0000   9999     0     0     0    
2019/08/29  13:45:00  BASE  1.92276  9    2.0874   32   -4.7  100   -4.7  73    0     981.4    NA       0.0000   9999     0     0     0    
2019/08/29  13:46:00  BASE  1.96392  11   2.1462   13   -4.7  100   -4.7  81    0     981.4    NA       0.0000   9999     0     0     0    
2019/08/29  13:47:00  BASE  2.04036  11   2.38728  360  -4.7  100   -4.7  85    0     981.4    NA       0.0000   9999     0     0     0    
2019/08/29  13:48:00  BASE  2.00508  8    2.38728  360  -4.6  100   -4.6  87    0     981.4    NA       0.0000   9999     0     0     0    
2019/08/29  13:49:00  BASE  2.058    3    2.38728  304  -4.6  100   -4.6  89    0     981.4    NA       0.0000   9999     0     0     0    
2019/08/29  13:50:00  BASE  2.16384  7    2.45196  20   -4.6  100   -4.6  93    0     981.4    NA       0.0000   9999     0     0     0    
2019/08/29  13:51:00  BASE  2.205    14   2.56956  11   -4.6  100   -4.6  103   0     981.5    NA       0.0000   9999     0     0     0    
2019/08/29  13:52:00  BASE  2.19912  15   2.56956  11   -4.6  100   -4.6  105   0     981.5    NA       0.0000   9999     0     0     0    
2019/08/29  13:53:00  BASE  2.21676  16   2.56956  11   -4.7  100   -4.7  101   0     981.5    NA       0.0000   9999     0     0     0    
2019/08/29  13:54:00  BASE  2.19912  17   2.56956  11   -4.7  100   -4.7  99    0     981.5    NA       0.0000   9999     0     0     0    
2019/08/29  13:55:00  BASE  2.12856  17   2.56956  11   -4.7  100   -4.7  98    0     981.5    NA       0.0000   9999     0     0     0    
2019/08/29  13:56:00  BASE  2.07564  17   2.56956  11   -4.8  100   -4.8  98    0     981.5    NA       0.0000   9999     20540 22640 0    
2019/08/29  13:57:00  BASE  2.06976  19   2.56956  11   -4.7  100   -4.7  103   0     981.5    NA       0.0000   9999     0     0     0    
2019/08/29  13:58:00  BASE  2.01684  21   2.56956  11   -4.7  100   -4.7  107   0     981.5    NA       0.0000   9999     0     0     0    
2019/08/29  13:59:00  BASE  2.11092  18   2.56956  9    -4.7  100   -4.7  106   0     981.5    NA       0.0000   9999     160   0     0    
2019/08/29  14:00:00  BASE  2.35788  16   2.56956  14   -4.6  100   -4.6  104   0     981.5    NA       0.0000   9999     160   0     0    
2019/08/29  14:01:00  BASE  2.44608  20   2.59896  19   -4.6  100   -4.6  106   0     981.5    NA       0.0000   9999     0     0     0    
2019/08/29  14:02:00  BASE  2.42844  24   2.59896  24   -4.6  100   -4.6  109   0     981.5    NA       0.0000   9999     0     0     0    
2019/08/29  14:03:00  BASE  2.36964  26   2.59896  24   -4.6  100   -4.6  110   0     981.5    NA       0.0000   9999     0     0     0    
2019/08/29  14:04:00  BASE  2.31672  23   2.59896  24   -4.6  100   -4.6  108   0     981.5    NA       0.0000   9999     0     0     0    
2019/08/29  14:05:00  BASE  2.18148  20   2.59896  24   -4.6  100   -4.6  104   0     981.5    NA       0.0000   9999     0     0     0    
2019/08/29  14:06:00  BASE  2.02272  17   2.59896  24   -4.6  100   -4.6  103   0     981.5    NA       0.0000   9999     0     0     0    
2019/08/29  14:07:00  BASE  2.1168   15   2.59896  24   -4.6  100   -4.6  102   0     981.5    NA       0.0000   9999     160   0     0    
2019/08/29  14:08:00  BASE  2.25792  20   2.59896  24   -4.6  100   -4.6  102   0     981.5    NA       0.0000   9999     22610 0     0    
2019/08/29  14:09:00  BASE  2.34612  18   2.63424  7    -4.6  100   -4.6  103   0     981.5    NA       0.0000   9999     0     0     0    
2019/08/29  14:10:00  BASE  2.35788  10   2.63424  7    -4.6  100   -4.6  102   0     981.5    NA       0.0000   9999     0     0     0    
2019/08/29  14:11:00  BASE  2.2344   10   2.63424  7    -4.6  100   -4.6  98    0     981.5    NA       0.0000   9999     0     0     0    
2019/08/29  14:12:00  BASE  2.28732  10   2.63424  7    -4.5  100   -4.5  95    0     981.6    NA       0.0000   9999     0     0     0    
2019/08/29  14:13:00  BASE  2.44608  8    2.75184  8    -4.5  100   -4.5  93    0     981.6    NA       0.0000   7000     0     0     0    
2019/08/29  14:14:00  BASE  2.48724  8    2.75184  8    -4.5  100   -4.5  94    0     981.6    NA       0.0000   BR       3200  0     0    
2019/08/29  14:15:00  BASE  2.53428  7    2.78124  7    -4.5  100   -4.5  95    0     981.6    NA       0.0000   BR       2000  22380 0    
2019/08/29  14:16:00  BASE  2.54016  5    2.78124  7    -4.5  100   -4.5  95    0     981.6    NA       0.0000   BR       1600  0     0    
2019/08/29  14:17:00  BASE  2.51076  6    2.78124  7    -4.6  100   -4.6  94    0     981.6    NA       0.0000   BR       1500  0     0    
2019/08/29  14:18:00  BASE  2.42844  11   2.78124  7    -4.6  100   -4.6  94    0     981.6    NA       0.0000   BR       1500  0     0    
2019/08/29  14:19:00  BASE  2.31672  15   2.78124  7    -4.6  100   -4.6  96    0     981.6    NA       0.0000   BR       1400  0     0    
2019/08/29  14:20:00  BASE  2.29908  19   2.78124  7    -4.6  100   -4.6  96    0     981.6    NA       0.0000   BR       2100  0     0    
2019/08/29  14:21:00  BASE  2.2932   20   2.78124  7    -4.6  100   -4.6  96    0     981.6    NA       0.0000   BR       3100  0     0    
2019/08/29  14:22:00  BASE  2.1462   21   2.78124  7    -4.7  100   -4.7  95    0     981.6    NA       0.0000   BR       6000  0     0    
2019/08/29  14:23:00  BASE  1.84044  23   2.78124  7    -4.7  100   -4.7  93    0     981.7    NA       0.0000   BR       9000  0     0    
2019/08/29  14:24:00  BASE  1.764    12   2.78124  7    -4.7  100   -4.7  89    0     981.7    NA       0.0000   BR       9999  0     0    
2019/08/29  14:25:00  BASE  1.89336  348  2.66364  6    -4.7  100   -4.7  86    0     981.7    NA       0.0000   BR       9999  0     0    
2019/08/29  14:26:00  BASE  1.7346   324  2.63424  9    -4.7  100   -4.7  84    0     981.7    NA       0.0000   BR       8000  0     0    
2019/08/29  14:27:00  BASE  1.19364  306  2.56956  16   -4.7  100   -4.7  83    0     981.8    NA       0.0000   BR       3000  0     0    
2019/08/29  14:28:00  BASE  1.2348   273  2.56956  16   -4.6  100   -4.6  82    0     981.8    NA       0.0000   BR       1400  0     0    
2019/08/29  14:29:00  BASE  1.63464  258  2.48136  17   -4.6  100   -4.6  81    0     981.8    NA       0.0000   BR       1500  0     0    
2019/08/29  14:30:00  BASE  1.69344  258  2.48136  17   -4.6  100   -4.6  80    0     981.8    NA       0.0000   BR       2100  0     0    
2019/08/29  14:31:00  BASE  1.78164  257  2.59896  269  -4.6  100   -4.6  81    0     981.8    NA       0.0000   BR       1800  0     0    
2019/08/29  14:32:00  BASE  1.30536  273  2.59896  269  -4.6  100   -4.6  81    0     981.8    NA       0.0000   BR       1900  0     0    
2019/08/29  14:33:00  BASE  0.72324  339  2.59896  269  -4.6  100   -4.6  82    0     981.8    NA       0.0000   BR       2200  0     0    
2019/08/29  14:34:00  BASE  0.34104  10   2.59896  269  -4.6  100   -4.6  84    0     981.8    NA       0.0000   BR       2000  0     0    
2019/08/29  14:35:00  BASE  0.0588   341  2.59896  269  -4.6  100   -4.6  87    0     981.8    NA       0.0000   BR       1900  0     0    
2019/08/29  14:36:00  BASE  0.78204  258  2.59896  269  -4.6  100   -4.6  92    0     981.8    NA       0.0000   BR       1400  0     0    
2019/08/29  14:37:00  BASE  1.51704  266  2.59896  269  -4.6  100   -4.6  92    0     981.8    NA       0.0000   BR       1800  0     0    
2019/08/29  14:38:00  BASE  1.764    263  2.59896  269  -4.6  100   -4.6  92    0     981.8    NA       0.0000   BR       1700  0     0    
2019/08/29  14:39:00  BASE  1.81692  255  2.59896  269  -4.6  100   -4.6  94    0     981.8    NA       0.0000   BR       1600  0     0    
2019/08/29  14:40:00  BASE  1.66992  258  2.59896  269  -4.6  100   -4.6  94    0     981.8    NA       0.0000   BR       1900  0     0    
2019/08/29  14:41:00  BASE  1.53468  260  2.058    263  -4.6  100   -4.6  92    0     981.8    NA       0.0000   BR       1900  0     0    
2019/08/29  14:42:00  BASE  1.28772  256  2.058    263  -4.6  100   -4.6  90    0     981.8    NA       0.0000   BR       2000  0     0    
2019/08/29  14:43:00  BASE  1.5582   267  2.51076  291  -4.6  100   -4.6  91    0     981.8    NA       0.0000   BR       2400  0     0    
2019/08/29  14:44:00  BASE  2.04036  288  2.51076  291  -4.6  100   -4.6  93    0     981.8    NA       0.0000   BR       3400  0     0    
2019/08/29  14:45:00  BASE  1.94628  299  2.51076  291  -4.5  100   -4.5  94    0     981.8    NA       0.0000   BR       3000  22510 0    
2019/08/29  14:46:00  BASE  1.45236  300  2.51076  291  -4.5  100   -4.5  95    0     981.8    NA       0.0000   BR       2800  0     0    
2019/08/29  14:47:00  BASE  1.24068  290  2.51076  291  -4.5  100   -4.5  95    0     981.8    NA       0.0000   BR       2400  0     0    
2019/08/29  14:48:00  BASE  1.01136  277  2.51076  291  -4.5  100   -4.5  96    0     981.8    NA       0.0000   BR       1400  0     0    
2019/08/29  14:49:00  BASE  0.75264  257  2.51076  291  -4.5  100   -4.5  99    0     981.8    NA       0.0000   BR       1000  0     0    
2019/08/29  14:50:00  BASE  1.15836  268  2.51076  291  -4.5  100   -4.5  99    0     981.8    NA       0.0000   BR       1800  0     0    
2019/08/29  14:51:00  BASE  1.34064  304  2.51076  291  -4.5  100   -4.5  99    0     981.8    NA       0.0000   BR       3800  0     0    
2019/08/29  14:52:00  BASE  1.33476  300  2.51076  291  -4.5  100   -4.5  98    0     981.8    NA       0.0000   BR       3600  0     0    
2019/08/29  14:53:00  BASE  1.68168  283  2.35788  300  -4.5  100   -4.5  96    0     981.8    NA       0.0000   BR       2200  0     0    
2019/08/29  14:54:00  BASE  1.7052   273  2.1462   313  -4.5  100   -4.5  94    0     981.8    NA       0.0000   BR       1800  0     0    
2019/08/29  14:55:00  BASE  1.5288   261  1.96392  278  -4.5  100   -4.5  94    0     981.9    NA       0.0000   BR       1800  0     0    
2019/08/29  14:56:00  BASE  1.64052  255  2.1756   252  -4.5  100   -4.5  96    0     981.9    NA       0.0000   BR       2600  0     0    
2019/08/29  14:57:00  BASE  1.53468  255  2.1756   252  -4.5  100   -4.5  97    0     982.0    NA       0.0000   BR       2400  0     0    
2019/08/29  14:58:00  BASE  1.0584   266  2.1756   252  -4.5  100   -4.5  101   0     982.0    NA       0.0000   BR       1700  0     0    
2019/08/29  14:59:00  BASE  0.85848  285  2.1756   252  -4.5  100   -4.5  105   0     982.0    NA       0.0000   BR       2600  0     0    
2019/08/29  15:00:00  BASE  0.882    302  2.1756   252  -4.5  100   -4.5  104   0     982.0    NA       0.0000   BR       4700  0     0    
2019/08/29  15:01:00  BASE  1.0584   304  2.1756   252  -4.5  100   -4.5  100   0     982.0    NA       0.0000   BR       6000  0     0    
2019/08/29  15:02:00  BASE  1.53468  296  2.1756   252  -4.5  100   -4.5  96    0     982.0    NA       0.0000   BR       5000  0     0    
2019/08/29  15:03:00  BASE  1.85808  284  2.1756   252  -4.5  100   -4.5  97    0     982.0    NA       0.0000   BR       2600  0     0    
2019/08/29  15:04:00  BASE  1.86984  276  2.1756   252  -4.5  100   -4.5  97    0     982.0    NA       0.0000   BR       1700  0     0    
2019/08/29  15:05:00  BASE  1.82868  272  2.1756   252  -4.5  100   -4.5  98    0     982.0    NA       0.0000   BR       1600  0     0    
2019/08/29  15:06:00  BASE  1.7052   276  2.0874   275  -4.5  100   -4.5  98    0     982.0    NA       0.0000   BR       2000  0     0    
2019/08/29  15:07:00  BASE  1.18776  288  2.0874   275  -4.6  100   -4.6  98    0     982.0    NA       0.0000   BR       1900  0     0    
2019/08/29  15:08:00  BASE  0.48216  308  2.0874   275  -4.6  100   -4.6  99    0     982.0    NA       0.0000   BR       1600  0     0    
2019/08/29  15:09:00  BASE  0.3528   311  2.0874   275  -4.6  100   -4.6  102   0     982.0    NA       0.0000   BR       2300  0     0    
2019/08/29  15:10:00  BASE  1.06428  282  2.0874   275  -4.6  100   -4.6  103   0     982.0    NA       0.0000   BR       3100  0     0    
2019/08/29  15:11:00  BASE  1.55232  278  2.0874   275  -4.6  100   -4.6  103   0     982.0    NA       0.0000   BR       4800  0     0    
2019/08/29  15:12:00  BASE  1.4112   306  2.0874   275  -4.5  100   -4.5  106   0     982.0    NA       0.0000   BR       8000  0     0    
2019/08/29  15:13:00  BASE  1.31712  330  2.0874   275  -4.5  100   -4.5  110   0     982.0    NA       0.0000   BR       9000  0     0    
2019/08/29  15:14:00  BASE  1.38768  335  2.0286   280  -4.5  100   -4.5  111   0     982.1    NA       0.0000   BR       8000  0     0    
2019/08/29  15:15:00  BASE  1.33476  341  2.0286   280  -4.5  100   -4.5  111   0     982.1    NA       0.0000   BR       7000  0     0    
2019/08/29  15:16:00  BASE  1.18188  346  1.84632  259  -4.5  100   -4.5  112   0     982.1    NA       0.0000   BR       7000  0     0    
2019/08/29  15:17:00  BASE  1.18188  342  1.84632  259  -4.6  100   -4.6  112   0     982.1    NA       0.0000   BR       9999  20240 23000
2019/08/29  15:18:00  BASE  1.10544  336  1.84632  259  -4.6  100   -4.6  112   0     982.1    NA       0.0000   BR       9999  0     0    
2019/08/29  15:19:00  BASE  1.06428  334  1.84632  259  -4.6  100   -4.6  112   0     982.1    NA       0.0000   BR       9000  0     0    
2019/08/29  15:20:00  BASE  1.09956  346  1.75224  336  -4.6  100   -4.6  111   0     982.1    NA       0.0000   BR       7000  0     0    
2019/08/29  15:21:00  BASE  0.69972  2    1.75224  336  -4.6  100   -4.6  110   0     982.1    NA       0.0000   BR       5000  0     0    
2019/08/29  15:22:00  BASE  0.56448  10   1.75224  336  -4.6  100   -4.6  110   0     982.2    NA       0.0000   BR       5000  0     0    
2019/08/29  15:23:00  BASE  0.42336  20   1.75224  336  -4.6  100   -4.6  109   0     982.2    NA       0.0000   BR       4200  0     0    
2019/08/29  15:24:00  BASE  0.02352  43   1.35828  344  -4.6  100   -4.6  110   0     982.2    NA       0.0000   BR       3100  0     0    
2019/08/29  15:25:00  BASE  0        87   1.32888  352  -4.6  100   -4.6  108   0     982.2    NA       0.0000   BR       3100  0     0    
2019/08/29  15:26:00  BASE  0.17052  187  1.32888  352  -4.6  100   -4.6  106   0     982.2    NA       0.0000   BR       3300  0     0    
2019/08/29  15:27:00  BASE  0.22932  206  1.32888  352  -4.6  100   -4.6  105   0     982.3    NA       0.0000   BR       2400  0     0    
2019/08/29  15:28:00  BASE  0.08232  213  1.32888  352  -4.6  100   -4.6  106   0     982.3    NA       0.0000   BR       2100  22610 0    
2019/08/29  15:29:00  BASE  0.33516  236  1.24068  360  -4.6  100   -4.6  106   0     982.3    NA       0.0000   BR       2600  0     0    
2019/08/29  15:30:00  BASE  0.7056   255  1.1172   11   -4.6  100   -4.6  105   0     982.3    NA       0.0000   BR       2600  0     0    
2019/08/29  15:31:00  BASE  0.45276  252  1.029    251  -4.6  100   -4.6  102   0     982.3    NA       0.0000   BR       1300  0     0    
2019/08/29  15:32:00  BASE  0.46452  239  1.1466   213  -4.6  100   -4.6  100   0     982.3    NA       0.0000   BR       1100  0     0    
2019/08/29  15:33:00  BASE  1.04076  229  1.35828  224  -4.6  100   -4.6  102   0     982.3    NA       0.0000   BR       1300  0     0    
2019/08/29  15:34:00  BASE  1.16424  229  1.42296  228  -4.6  100   -4.6  106   0     982.3    NA       0.0000   BR       1500  0     0    
2019/08/29  15:35:00  BASE  1.0878   232  1.42296  228  -4.6  100   -4.6  107   0     982.3    NA       0.0000   BR       1400  0     0    
2019/08/29  15:36:00  BASE  0.95844  232  1.42296  228  -4.6  100   -4.6  108   0     982.3    NA       0.0000   BR       1500  0     0    
2019/08/29  15:37:00  BASE  0.43512  220  1.42296  228  -4.7  100   -4.7  107   0     982.3    NA       0.0000   BR       1500  0     0    
2019/08/29  15:38:00  BASE  0.03528  202  1.42296  228  -4.7  100   -4.7  107   0     982.3    NA       0.0000   BR       1200  0     0    
2019/08/29  15:39:00  BASE  0        202  1.42296  228  -4.7  100   -4.7  107   0     982.3    NA       0.0000   BR       1100  0     0    
2019/08/29  15:40:00  BASE  0        208  1.42296  228  -4.7  100   -4.7  106   0     982.3    NA       0.0000   BR       1000  0     0    
2019/08/29  15:41:00  BASE  0        213  1.42296  228  -4.7  100   -4.7  104   0     982.3    NA       0.0000   BR       1100  0     0    
2019/08/29  15:42:00  BASE  0.46452  220  1.42296  228  -4.7  100   -4.7  103   0     982.3    NA       0.0000   BR       1400  24080 0    
2019/08/29  15:43:00  BASE  0.78792  220  1.42296  228  -4.7  100   -4.7  104   0     982.3    NA       0.0000   BR       1700  22870 0    
2019/08/29  15:44:00  BASE  0.65856  220  1.35828  243  -4.7  100   -4.7  106   0     982.3    NA       0.0000   BR       1800  0     0    
2019/08/29  15:45:00  BASE  0.63504  221  1.0878   220  -4.7  100   -4.7  106   0     982.3    NA       0.0000   BR       2000  0     0    
2019/08/29  15:46:00  BASE  0.6762   217  1.0878   220  -4.7  100   -4.7  104   0     982.3    NA       0.0000   BR       1500  0     0    
2019/08/29  15:47:00  BASE  0.89376  218  1.24068  213  -4.7  100   -4.7  101   0     982.3    NA       0.0000   BR       1400  22970 0    
2019/08/29  15:48:00  BASE  1.12308  222  1.29948  204  -4.7  100   -4.7  100   0     982.3    NA       0.0000   BR       1800  0     0    
2019/08/29  15:49:00  BASE  1.06428  216  1.29948  204  -4.7  100   -4.7  97    0     982.3    NA       0.0000   BR       2400  0     0    
2019/08/29  15:50:00  BASE  0.93492  222  1.29948  204  -4.7  100   -4.7  94    0     982.4    NA       0.0000   BR       1900  0     0    
2019/08/29  15:51:00  BASE  0.57624  237  1.29948  204  -4.7  100   -4.7  96    0     982.4    NA       0.0000   BR       1300  0     0    
2019/08/29  15:52:00  BASE  0.25284  229  1.29948  204  -4.7  100   -4.7  98    0     982.4    NA       0.0000   BR       0900  23000 0    
2019/08/29  15:53:00  BASE  0.32928  218  1.29948  204  -4.7  100   -4.7  97    0     982.4    NA       0.0000   BR       1100  0     0    
2019/08/29  15:54:01  BASE  0.19992  224  1.29948  204  -4.7  100   -4.7  98    0     982.4    NA       0.0000   BR       1100  0     0    
2019/08/29  15:55:00  BASE  0.3234   227  1.29948  204  -4.7  100   -4.7  98    0     982.4    NA       0.0000   BR       1300  0     0    
2019/08/29  15:56:00  BASE  0.882    222  1.39356  214  -4.7  100   -4.7  97    0     982.4    NA       0.0000   BR       2100  0     0    
2019/08/29  15:57:00  BASE  1.1466   214  1.48176  219  -4.7  100   -4.7  97    0     982.4    NA       0.0000   BR       2600  0     0    
2019/08/29  15:58:00  BASE  1.1172   206  1.48176  219  -4.7  100   -4.7  96    0     982.4    NA       0.0000   BR       2100  0     0    
2019/08/29  15:59:00  BASE  1.10544  200  1.48176  219  -4.7  100   -4.7  95    0     982.4    NA       0.0000   BR       1400  0     0    
2019/08/29  16:00:00  BASE  1.05252  200  1.48176  219  -4.8  100   -4.8  96    0     982.5    NA       0.0000   BR       1700  0     0    
2019/08/29  16:01:00  BASE  1.22892  200  1.63464  198  -4.8  100   -4.8  93    0     982.6    NA       0.0000   BR       1800  0     0    
2019/08/29  16:02:00  BASE  1.48176  197  1.63464  199  -4.8  100   -4.8  89    0     982.6    NA       0.0000   BR       1900  0     0    
2019/08/29  16:03:00  BASE  1.48176  205  1.75224  216  -4.8  100   -4.8  88    0     982.6    NA       0.0000   BR       2000  0     0    
2019/08/29  16:04:00  BASE  1.40532  218  1.75224  216  -4.8  100   -4.8  88    0     982.6    NA       0.0000   BR       2300  0     0    
2019/08/29  16:05:00  BASE  1.32888  227  1.75224  216  -4.8  100   -4.8  86    0     982.6    NA       0.0000   BR       1500  0     0    
2019/08/29  16:06:00  BASE  1.33476  225  1.75224  216  -4.8  100   -4.8  85    0     982.6    NA       0.0000   BR       1300  0     0    
2019/08/29  16:07:00  BASE  1.37592  215  1.75224  216  -4.8  100   -4.8  88    0     982.6    NA       0.0000   BR       2400  0     0    
2019/08/29  16:08:00  BASE  1.2936   201  1.75224  216  -4.8  100   -4.8  92    0     982.6    NA       0.0000   BR       6000  0     0    
2019/08/29  16:09:00  BASE  1.18776  182  1.75224  216  -4.8  100   -4.8  93    0     982.6    NA       0.0000   BR       7000  0     0    
2019/08/29  16:10:00  BASE  1.1172   173  1.75224  216  -4.8  100   -4.8  96    0     982.6    NA       0.0000   BR       4300  0     0    
2019/08/29  16:11:00  BASE  0.98784  182  1.75224  216  -4.8  100   -4.8  97    0     982.6    NA       0.0000   BR       3500  0     0    
2019/08/29  16:12:00  BASE  0.87612  199  1.75224  216  -4.9  100   -4.9  94    0     982.6    NA       0.0000   BR       5000  0     0    
2019/08/29  16:13:00  BASE  0.82908  199  1.63464  213  -4.9  100   -4.9  95    0     982.6    NA       0.0000   BR       5000  0     0    
2019/08/29  16:14:00  BASE  0.8232   192  1.63464  213  -4.9  100   -4.9  97    0     982.6    NA       0.0000   BR       3700  0     0    
2019/08/29  16:15:00  BASE  0.65268  200  1.63464  213  -4.9  100   -4.9  102   0     982.6    NA       0.0000   BR       2100  0     0    
2019/08/29  16:16:00  BASE  0.29988  212  1.63464  213  -4.9  100   -4.9  103   0     982.6    NA       0.0000   BR       1500  0     0    
2019/08/29  16:17:00  BASE  0.54096  223  1.42296  235  -4.9  100   -4.9  104   0     982.6    NA       0.0000   BR       1700  0     0    
2019/08/29  16:18:00  BASE  1.1172   232  1.48176  234  -4.9  100   -4.9  106   0     982.6    NA       0.0000   BR       2600  0     0    
2019/08/29  16:19:00  BASE  1.02312  240  1.48176  234  -4.9  100   -4.9  106   0     982.7    NA       0.0000   BR       3200  0     0    
2019/08/29  16:20:00  BASE  0.81144  243  1.48176  234  -4.9  100   -4.9  107   0     982.7    NA       0.0000   BR       2900  0     0    
2019/08/29  16:21:00  BASE  0.85848  240  1.48176  234  -4.9  100   -4.9  107   0     982.7    NA       0.0000   BR       2500  0     0    
2019/08/29  16:22:00  BASE  0.84084  237  1.48176  234  -4.9  100   -4.9  106   0     982.7    NA       0.0000   BR       2800  0     0    
2019/08/29  16:23:00  BASE  0.80556  232  1.48176  234  -4.9  100   -4.9  104   0     982.6    NA       0.0000   BR       2500  0     0    
2019/08/29  16:24:00  BASE  1.01136  225  1.48176  220  -4.9  100   -4.9  101   0     982.6    NA       0.0000   BR       2000  0     0    
2019/08/29  16:25:00  BASE  1.02312  224  1.48176  220  -4.9  100   -4.9  99    0     982.6    NA       0.0000   BR       2400  0     0    
2019/08/29  16:26:00  BASE  0.7056   224  1.48176  220  -5.0  100   -5.0  98    0     982.6    NA       0.0000   BR       3500  0     0    
2019/08/29  16:27:00  BASE  0.29988  236  1.48176  220  -5.0  100   -5.0  103   0     982.6    NA       0.0000   BR       3200  0     0    
2019/08/29  16:28:00  BASE  0        264  1.48176  220  -5.0  100   -5.0  109   0     982.6    NA       0.0000   BR       3000  0     0    
2019/08/29  16:29:00  BASE  0        272  1.48176  220  -5.0  100   -5.0  106   0     982.6    NA       0.0000   BR       4700  0     0    
2019/08/29  16:30:00  BASE  0.08232  275  1.48176  220  -5.0  100   -5.0  104   0     982.6    NA       0.0000   BR       6000  0     0    
2019/08/29  16:31:00  BASE  0.147    292  1.48176  220  -5.0  100   -5.0  107   0     982.6    NA       0.0000   BR       5000  0     0    
2019/08/29  16:32:00  BASE  0.08232  344  1.48176  220  -4.9  100   -4.9  107   0     982.6    NA       0.0000   BR       2200  0     0    
2019/08/29  16:33:00  BASE  0.02352  3    1.48176  220  -4.9  100   -4.9  110   0     982.6    NA       0.0000   BR       1200  0     0    
2019/08/29  16:34:00  BASE  0        261  1.1466   218  -4.9  100   -4.9  114   0     982.6    NA       0.0000   BR       1100  0     0    
2019/08/29  16:35:00  BASE  0        226  0.9996   221  -4.9  100   -4.9  114   0     982.6    NA       0.0000   BR       1700  0     0    
2019/08/29  16:36:00  BASE  0        244  0.81732  308  -4.9  100   -4.9  113   0     982.6    NA       0.0000   BR       1900  0     0    
2019/08/29  16:37:00  BASE  0.29988  266  0.84672  338  -4.9  100   -4.9  119   0     982.6    NA       0.0000   BR       2000  0     0    
2019/08/29  16:38:00  BASE  0.42336  323  0.84672  338  -4.9  100   -4.9  128   0     982.6    NA       0.0000   BR       2100  0     0    
2019/08/29  16:39:00  BASE  0.17052  358  0.84672  338  -4.9  100   -4.9  132   0     982.6    NA       0.0000   BR       1700  0     0    
2019/08/29  16:40:00  BASE  0.34692  61   0.9702   77   -4.9  100   -4.9  134   0     982.6    NA       0.0000   BR       1400  0     0    
2019/08/29  16:41:00  BASE  0.588    83   0.9702   69   -4.9  100   -4.9  142   0     982.6    NA       0.0000   BR       1000  0     0    
2019/08/29  16:42:00  BASE  0.54096  101  0.9996   108  -4.9  100   -4.9  145   0     982.6    NA       0.0000   BR       0900  0     0    
2019/08/29  16:43:00  BASE  0.38808  118  0.9996   108  -4.9  100   -4.9  147   0     982.7    NA       0.0000   BR       1100  0     0    
2019/08/29  16:44:00  BASE  0.17052  85   0.9996   108  -4.9  100   -4.9  148   0     982.7    NA       0.0000   BR       1100  0     0    
2019/08/29  16:45:00  BASE  0.4116   61   1.27008  73   -4.9  100   -4.9  142   0     982.7    NA       0.0000   BR       0750  0     0    
2019/08/29  16:46:00  BASE  1.17012  68   1.96392  68   -4.9  100   -4.9  134   0     982.7    NA       0.0000   BR       0550  0     0    
2019/08/29  16:47:00  BASE  1.71108  74   2.0874   73   -4.9  100   -4.9  130   0     982.7    NA       0.0000   BR       0450  0     0    
2019/08/29  16:48:00  BASE  1.94628  73   2.24028  67   -5.0  100   -5.0  130   0     982.7    NA       0.0000   FZFG     0500  0     0    
2019/08/29  16:49:00  BASE  2.06388  70   2.24028  67   -5.1  100   -5.1  132   0     982.7    NA       0.0000   FZFG     0600  0     0    
2019/08/29  16:50:00  BASE  2.1168   67   2.29908  64   -5.1  100   -5.1  140   0     982.7    NA       0.0000   FZFG     0700  20110 22870
2019/08/29  16:51:00  BASE  2.01096  63   2.29908  64   -5.2  100   -5.2  144   0     982.7    NA       0.0000   FZFG     0900  0     0    
2019/08/29  16:52:00  BASE  1.95804  59   2.29908  64   -5.2  100   -5.2  146   0     982.7    NA       0.0000   FZFG     1200  21060 0    
2019/08/29  16:53:00  BASE  1.92276  59   2.29908  64   -5.2  100   -5.2  145   0     982.7    NA       0.0000   FZFG     0800  0     0    
2019/08/29  16:54:00  BASE  1.75224  59   2.29908  64   -5.2  100   -5.2  141   0     982.7    NA       0.0000   FZFG     0750  0     0    
2019/08/29  16:55:00  BASE  1.43472  60   2.29908  64   -5.2  100   -5.2  139   0     982.8    NA       0.0000   FZFG     0900  0     0    
2019/08/29  16:56:00  BASE  1.176    55   2.29908  64   -5.2  100   -5.2  139   0     982.8    NA       0.0000   FZFG     1000  0     0    
2019/08/29  16:57:00  BASE  1.12896  58   2.29908  64   -5.2  100   -5.2  144   0     982.8    NA       0.0000   FZFG     0900  0     0    
2019/08/29  16:58:00  BASE  1.22304  58   2.29908  64   -5.2  100   -5.2  145   0     982.8    NA       0.0000   FZFG     0900  0     0    
2019/08/29  16:59:00  BASE  1.2642   50   2.29908  64   -5.2  100   -5.2  140   0     982.8    NA       0.0000   BR       0900  0     0    
2019/08/29  17:00:00  BASE  1.029    47   2.1168   61   -5.2  100   -5.2  134   0     982.8    NA       0.0000   BR       0750  0     0    
2019/08/29  17:01:00  BASE  0.9996   51   2.1168   61   -5.2  100   -5.2  134   0     982.7    NA       0.0000   FZFG     0700  0     0    
2019/08/29  17:02:00  BASE  0.9996   57   1.87572  54   -5.2  100   -5.2  141   0     982.8    NA       0.0000   FZFG     0600  0     0    
2019/08/29  17:03:00  BASE  1.0584   56   1.81692  63   -5.1  100   -5.1  147   0     982.8    NA       0.0000   FZFG     0600  0     0    
2019/08/29  17:04:00  BASE  1.38768  50   1.63464  51   -5.1  100   -5.1  148   0     982.8    NA       0.0000   FZFG     0700  0     0    
2019/08/29  17:05:00  BASE  1.37004  44   1.63464  40   -5.1  100   -5.1  144   0     982.8    NA       0.0000   FZFG     0700  0     0    
2019/08/29  17:06:00  BASE  1.19364  46   1.63464  40   -5.1  100   -5.1  143   0     982.8    NA       0.0000   FZFG     0800  0     0    
2019/08/29  17:07:00  BASE  1.09956  52   1.63464  40   -5.1  100   -5.1  144   0     982.8    NA       0.0000   FZFG     0800  0     0    
2019/08/29  17:08:00  BASE  0.81732  54   1.63464  40   -5.1  100   -5.1  141   0     982.8    NA       0.0000   FZFG     0700  0     0    
2019/08/29  17:09:00  BASE  0.57624  58   1.63464  40   -5.1  100   -5.1  140   0     982.8    NA       0.0000   FZFG     0550  0     0    
2019/08/29  17:10:00  BASE  0.42336  68   1.63464  40   -5.1  100   -5.1  146   0     982.8    NA       0.0000   FZFG     0500  0     0    
2019/08/29  17:11:00  BASE  0.37044  74   1.63464  40   -5.1  100   -5.1  148   0     982.8    NA       0.0000   FZFG     0450  0     0    
2019/08/29  17:12:00  BASE  0.2058   85   1.63464  40   -5.1  100   -5.1  144   0     982.8    NA       0.0000   FZFG     0450  0     0    
2019/08/29  17:13:00  BASE  0        107  1.63464  40   -5.1  100   -5.1  144   0     982.8    NA       0.0000   FZFG     0450  0     0    
2019/08/29  17:14:00  BASE  0.21756  116  1.63464  40   -5.1  100   -5.1  149   0     982.8    NA       0.0000   FZFG     0450  0     0    
2019/08/29  17:15:00  BASE  0.3234   122  1.35828  51   -5.1  100   -5.1  153   0     982.8    NA       0.0000   FZFG     0500  0     0    
2019/08/29  17:16:00  BASE  0.11172  132  1.1466   48   -5.1  100   -5.1  156   0     982.9    NA       0.0000   FZFG     0500  0     0    
2019/08/29  17:17:00  BASE  0        125  0.81732  112  -5.1  100   -5.1  151   0     982.9    NA       0.0000   FZFG     0500  0     0    
2019/08/29  17:18:00  BASE  0        109  0.81732  112  -5.1  100   -5.1  143   0     982.9    NA       0.0000   FZFG     0500  0     0    
2019/08/29  17:19:00  BASE  0        101  0.81732  112  -5.1  100   -5.1  139   0     982.9    NA       0.0000   FZFG     0500  0     0    
2019/08/29  17:20:00  BASE  0.22932  94   0.81732  112  -5.1  100   -5.1  139   0     982.9    NA       0.0000   FZFG     0550  0     0    
2019/08/29  17:21:00  BASE  0.63504  80   1.029    58   -5.1  100   -5.1  140   0     982.9    NA       0.0000   FZFG     0550  0     0    
2019/08/29  17:22:00  BASE  0.97608  64   1.32888  55   -5.1  100   -5.1  138   0     982.9    NA       0.0000   FZFG     0550  0     0    
2019/08/29  17:23:00  BASE  1.09956  56   1.32888  55   -5.1  100   -5.1  138   0     982.9    NA       0.0000   FZFG     0600  22930 0    
2019/08/29  17:24:00  BASE  0.94668  48   1.32888  55   -5.1  100   -5.1  140   0     982.9    NA       0.0000   FZFG     0700  0     0    
2019/08/29  17:25:00  BASE  0.86436  47   1.32888  55   -5.2  100   -5.2  138   0     982.9    NA       0.0000   FZFG     1100  0     0    
2019/08/29  17:26:00  BASE  1.05252  49   1.35828  50   -5.2  100   -5.2  135   0     982.9    NA       0.0000   FZFG     0900  0     0    
2019/08/29  17:27:00  BASE  1.18188  44   1.35828  50   -5.2  100   -5.2  134   0     982.9    NA       0.0000   FZFG     0900  0     0    
2019/08/29  17:28:00  BASE  1.07016  54   1.35828  50   -5.2  100   -5.2  136   0     982.9    NA       0.0000   FZFG     0800  0     0    
2019/08/29  17:29:00  BASE  0.88788  70   1.35828  50   -5.2  100   -5.2  135   0     982.9    NA       0.0000   FZFG     0600  0     0    
2019/08/29  17:30:00  BASE  0.9114   72   1.35828  50   -5.2  100   -5.2  129   0     982.9    NA       0.0000   FZFG     0550  0     0    
2019/08/29  17:31:00  BASE  1.24068  67   1.75224  58   -5.2  100   -5.2  126   0     983.0    NA       0.0000   FZFG     0450  0     0    
2019/08/29  17:32:00  BASE  1.60524  62   1.90512  58   -5.2  100   -5.2  126   0     983.0    NA       0.0000   FZFG     0400  0     0    
2019/08/29  17:33:00  BASE  1.75224  59   1.93452  58   -5.2  100   -5.2  126   0     983.0    NA       0.0000   FZFG     0350  0     0    
2019/08/29  17:34:00  BASE  1.65816  50   1.93452  58   -5.2  100   -5.2  124   0     983.1    NA       0.0000   FZFG     0400  0     0    
2019/08/29  17:35:00  BASE  1.55232  40   1.93452  58   -5.2  100   -5.2  123   0     983.1    NA       0.0000   FZFG     0450  0     0    
2019/08/29  17:36:00  BASE  1.53468  36   1.93452  58   -5.1  100   -5.1  124   0     983.1    NA       0.0000   FZFG     0500  0     0    
2019/08/29  17:37:00  BASE  1.51116  40   1.93452  58   -5.1  100   -5.1  125   0     983.1    NA       0.0000   FZFG     0450  0     0    
2019/08/29  17:38:00  BASE  1.38768  46   1.93452  58   -5.1  100   -5.1  123   0     983.2    NA       0.0000   FZFG     0400  0     0    
2019/08/29  17:39:00  BASE  1.22304  49   1.93452  58   -5.1  100   -5.1  118   0     983.2    NA       0.0000   FZFG     0350  0     0    
2019/08/29  17:40:00  BASE  1.24068  53   1.93452  58   -5.1  100   -5.1  114   0     983.2    NA       0.0000   FZFG     0350  0     0    
2019/08/29  17:41:00  BASE  1.21128  51   1.93452  58   -5.1  100   -5.1  112   0     983.2    NA       0.0000   FZFG     0350  0     0    
2019/08/29  17:42:00  BASE  1.12308  44   1.93452  58   -5.1  100   -5.1  111   0     983.2    NA       0.0000   FZFG     0400  0     0    
2019/08/29  17:43:00  BASE  1.08192  42   1.75224  38   -5.1  100   -5.1  112   0     983.2    NA       0.0000   FZFG     0450  0     0    
2019/08/29  17:44:00  BASE  1.176    46   1.75224  49   -5.0  100   -5.0  112   0     983.2    NA       0.0000   FZFG     0450  0     0    
2019/08/29  17:45:00  BASE  1.4406   42   1.78752  31   -5.0  100   -5.0  113   0     983.2    NA       0.0000   FZFG     0500  0     0    
2019/08/29  17:46:00  BASE  1.5582   42   1.78752  31   -5.0  100   -5.0  116   0     983.2    NA       0.0000   FZFG     0500  0     0    
2019/08/29  17:47:00  BASE  1.41708  45   1.78752  31   -5.0  100   -5.0  116   0     983.2    NA       0.0000   FZFG     0450  0     0    
2019/08/29  17:48:00  BASE  1.24068  43   1.78752  31   -5.0  100   -5.0  116   0     983.2    NA       0.0000   FZFG     0500  0     0    
2019/08/29  17:49:00  BASE  1.42296  36   1.84632  26   -5.0  100   -5.0  116   0     983.2    NA       0.0000   FZFG     0550  0     0    
2019/08/29  17:50:00  BASE  2.16384  33   2.90472  32   -5.0  100   -5.0  116   0     983.2    NA       0.0000   FZFG     0600  0     0    
2019/08/29  17:51:00  BASE  2.69304  33   2.90472  32   -5.0  100   -5.0  113   0     983.2    NA       0.0000   FZFG     0700  21290 0    
2019/08/29  17:52:00  BASE  2.69304  29   2.90472  32   -5.1  100   -5.1  110   0     983.2    NA       0.0000   FZFG     0700  0     0    
2019/08/29  17:53:00  BASE  2.54604  25   2.90472  32   -5.1  100   -5.1  113   0     983.2    NA       0.0000   FZFG     0800  0     0    
2019/08/29  17:54:00  BASE  2.24028  27   2.90472  32   -5.1  100   -5.1  118   0     983.2    NA       0.0000   FZFG     0800  0     0    
2019/08/29  17:55:00  BASE  2.16972  31   2.90472  32   -5.2  100   -5.2  118   0     983.2    NA       0.0000   FZFG     0650  0     0    
2019/08/29  17:56:00  BASE  2.352    31   2.90472  32   -5.2  100   -5.2  119   0     983.2    NA       0.0000   FZFG     0600  0     0    
2019/08/29  17:57:00  BASE  2.61072  33   3.02232  39   -5.2  100   -5.2  119   0     983.2    NA       0.0000   FZFG     0650  0     0    
2019/08/29  17:58:00  BASE  2.60484  32   3.02232  39   -5.3  100   -5.3  117   0     983.2    NA       0.0000   FZFG     0600  0     0    
2019/08/29  17:59:00  BASE  2.42256  28   3.02232  39   -5.3  100   -5.3  119   0     983.2    NA       0.0000   FZFG     0650  0     0    
2019/08/29  18:00:00  BASE  2.3814   31   3.02232  39   -5.3  100   -5.3  122   0     983.3    NA       0.0000   FZFG     0750  0     0    
2019/08/29  18:01:00  BASE  2.3226   33   3.02232  39   -5.3  100   -5.3  117   0     983.3    NA       0.0000   FZFG     0900  0     0    
2019/08/29  18:02:00  BASE  2.28732  34   3.02232  39   -5.3  100   -5.3  112   0     983.3    NA       0.0000   FZFG     1000  0     0    
2019/08/29  18:03:00  BASE  2.3226   35   3.02232  39   -5.3  100   -5.3  112   0     983.3    NA       0.0000   FZFG     0750  0     0    
2019/08/29  18:04:00  BASE  2.26968  36   3.02232  39   -5.3  100   -5.3  115   0     983.3    NA       0.0000   FZFG     0600  0     0    
2019/08/29  18:05:00  BASE  2.2638   33   3.02232  39   -5.3  100   -5.3  114   0     983.3    NA       0.0000   FZFG     0650  0     0    
2019/08/29  18:06:00  BASE  2.33436  28   3.02232  39   -5.3  100   -5.3  113   0     983.3    NA       0.0000   FZFG     0800  0     0    
2019/08/29  18:07:00  BASE  2.12268  28   2.59896  30   -5.3  100   -5.3  115   0     983.3    NA       0.0000   FZFG     0700  0     0    
2019/08/29  18:08:00  BASE  1.86984  33   2.56956  31   -5.3  100   -5.3  110   0     983.3    NA       0.0000   FZFG     0550  0     0    
2019/08/29  18:09:00  BASE  1.72872  36   2.56956  31   -5.3  100   -5.3  105   0     983.4    NA       0.0000   FZFG     0550  0     0    
2019/08/29  18:10:00  BASE  1.65816  37   2.56956  31   -5.3  100   -5.3  103   0     983.3    NA       0.0000   FZFG     0500  0     0    
2019/08/29  18:11:00  BASE  1.54056  36   2.56956  31   -5.2  100   -5.2  101   0     983.3    NA       0.0000   FZFG     0500  0     0    
2019/08/29  18:12:00  BASE  1.39944  34   2.56956  31   -5.2  100   -5.2  101   0     983.3    NA       0.0000   FZFG     0550  0     0    
2019/08/29  18:13:00  BASE  1.44648  42   2.56956  31   -5.2  100   -5.2  105   0     983.3    NA       0.0000   FZFG     0550  0     0    
2019/08/29  18:14:00  BASE  1.38768  52   2.56956  31   -5.2  100   -5.2  104   0     983.3    NA       0.0000   FZFG     0450  0     0    
2019/08/29  18:15:00  BASE  1.2642   53   2.51076  24   -5.2  100   -5.2  99    0     983.3    NA       0.0000   FZFG     0450  0     0    
2019/08/29  18:16:00  BASE  1.21128  54   2.21088  24   -5.2  100   -5.2  99    0     983.3    NA       0.0000   FZFG     0500  0     0    
2019/08/29  18:17:00  BASE  1.21128  59   1.90512  37   -5.2  100   -5.2  108   0     983.4    NA       0.0000   FZFG     0400  0     0    
2019/08/29  18:18:00  BASE  1.24068  64   1.87572  36   -5.2  100   -5.2  111   0     983.4    NA       0.0000   FZFG     0400  0     0    
2019/08/29  18:19:00  BASE  1.22304  76   1.87572  36   -5.2  100   -5.2  112   0     983.4    NA       0.0000   FZFG     0350  0     0    
2019/08/29  18:20:00  BASE  1.323    89   1.84632  31   -5.2  100   -5.2  113   0     983.4    NA       0.0000   FZFG     0450  0     0    
2019/08/29  18:21:00  BASE  1.51116  90   1.81692  89   -5.2  100   -5.2  114   0     983.4    NA       0.0000   FZFG     0450  0     0    
2019/08/29  18:22:00  BASE  1.5582   84   1.81692  89   -5.3  100   -5.3  113   0     983.4    NA       0.0000   FZFG     0450  0     0    
2019/08/29  18:23:00  BASE  1.42296  85   1.81692  89   -5.3  100   -5.3  105   0     983.4    NA       0.0000   FZFG     0500  0     0    
2019/08/29  18:24:00  BASE  1.34064  91   1.81692  89   -5.3  100   -5.3  102   0     983.4    NA       0.0000   FZFG     0450  0     0    
2019/08/29  18:25:00  BASE  1.34064  104  1.81692  89   -5.3  100   -5.3  104   0     983.4    NA       0.0000   FZFG     0400  0     0    
2019/08/29  18:26:00  BASE  1.32888  116  1.81692  89   -5.3  100   -5.3  95    0     983.4    NA       0.0000   FZFG     0350  0     0    
2019/08/29  18:27:00  BASE  1.19364  124  1.81692  89   -5.3  100   -5.3  88    0     983.5    NA       0.0000   FZFG     0300  0     0    
2019/08/29  18:28:00  BASE  0.72324  126  1.81692  89   -5.3  100   -5.3  87    0     983.5    NA       0.0000   FZFG     0300  0     0    
2019/08/29  18:29:00  BASE  0.28224  124  1.81692  89   -5.2  100   -5.2  87    0     983.5    NA       0.0000   FZFG     0300  0     0    
2019/08/29  18:30:00  BASE  0.34692  132  1.81692  89   -5.2  100   -5.2  87    0     983.5    NA       0.0000   FZFG     0300  0     0    
2019/08/29  18:31:00  BASE  0.40572  140  1.66404  84   -5.2  100   -5.2  82    0     983.5    NA       0.0000   FZFG     0300  0     0    
2019/08/29  18:32:00  BASE  0.19992  137  1.51116  88   -5.2  100   -5.2  79    0     983.5    NA       0.0000   FZFG     0300  0     0    
2019/08/29  18:33:00  BASE  0.22932  139  1.51116  88   -5.2  100   -5.2  83    0     983.5    NA       0.0000   FZFG     0300  0     0    
2019/08/29  18:34:00  BASE  0.71148  160  1.48176  122  -5.2  100   -5.2  87    0     983.6    NA       0.0000   FZFG     0300  0     0    
2019/08/29  18:35:00  BASE  0.89376  186  1.48176  122  -5.2  100   -5.2  87    0     983.6    NA       0.0000   FZFG     0300  0     0    
2019/08/29  18:36:00  BASE  0.48216  206  1.21128  170  -5.2  100   -5.2  84    0     983.7    NA       0.0000   FZFG     0300  0     0    
2019/08/29  18:37:00  BASE  0.27048  204  1.21128  170  -5.2  100   -5.2  83    0     983.7    NA       0.0000   FZFG     0350  0     0    
2019/08/29  18:38:00  BASE  0.147    189  1.21128  170  -5.2  100   -5.2  84    0     983.7    NA       0.0000   FZFG     0350  0     0    
2019/08/29  18:39:00  BASE  0.07644  179  1.21128  170  -5.2  100   -5.2  86    0     983.7    NA       0.0000   FZFG     0300  0     0    
2019/08/29  18:40:00  BASE  0.07644  160  1.21128  170  -5.2  100   -5.2  88    0     983.7    NA       0.0000   FZFG     0300  0     0    
2019/08/29  18:41:00  BASE  0        146  1.21128  170  -5.2  100   -5.2  92    0     983.7    NA       0.0000   FZFG     0250  0     0    
2019/08/29  18:42:00  BASE  0        156  1.21128  170  -5.2  100   -5.2  102   0     983.7    NA       0.0000   FZFG     0250  0     0    
2019/08/29  18:43:00  BASE  0        216  1.21128  170  -5.2  100   -5.2  103   0     983.7    NA       0.0000   FZFG     0250  0     0    
2019/08/29  18:44:00  BASE  0.16464  274  0.90552  190  -5.2  100   -5.2  102   0     983.8    NA       0.0000   FZFG     0300  0     0    
2019/08/29  18:45:00  BASE  0.27636  306  0.84672  320  -5.3  100   -5.3  102   0     983.9    NA       0.0000   FZFG     0400  0     0    
2019/08/29  18:46:00  BASE  0.13524  309  0.84672  320  -5.3  100   -5.3  99    0     983.9    NA       0.0000   FZFG     0350  0     0    
2019/08/29  18:47:00  BASE  0.13524  309  0.84672  320  -5.3  100   -5.3  97    0     983.9    NA       0.0000   FZFG     0350  0     0    
2019/08/29  18:48:00  BASE  0.25284  291  0.84672  320  -5.3  100   -5.3  100   0     983.9    NA       0.0000   FZFG     0350  0     0    
2019/08/29  18:49:00  BASE  0.33516  261  0.90552  267  -5.3  100   -5.3  101   0     983.9    NA       0.0000   FZFG     0350  0     0    
2019/08/29  18:50:00  BASE  0.18816  229  0.90552  267  -5.3  100   -5.3  101   0     983.9    NA       0.0000   FZFG     0350  0     0    
2019/08/29  18:51:00  BASE  0        203  0.90552  267  -5.3  100   -5.3  99    0     983.9    NA       0.0000   FZFG     0300  0     0    
2019/08/29  18:52:00  BASE  0        195  0.90552  267  -5.2  100   -5.2  97    0     983.9    NA       0.0000   FZFG     0300  0     0    
2019/08/29  18:53:00  BASE  0        202  0.90552  267  -5.2  100   -5.2  96    0     983.9    NA       0.0000   FZFG     0300  0     0    
2019/08/29  18:54:00  BASE  0        212  0.90552  267  -5.2  100   -5.2  96    0     983.9    NA       0.0000   FZFG     0300  0     0    
2019/08/29  18:55:00  BASE  0        209  0.90552  267  -5.2  100   -5.2  92    0     983.9    NA       0.0000   FZFG     0300  0     0    
2019/08/29  18:56:00  BASE  0        189  0.90552  267  -5.1  100   -5.1  89    0     983.9    NA       0.0000   FZFG     0300  0     0    
2019/08/29  18:57:00  BASE  0.42336  72   1.0878   52   -5.1  100   -5.1  87    0     983.9    NA       0.0000   FZFG     0350  0     0    
2019/08/29  18:58:00  BASE  1.16424  48   1.63464  49   -5.1  100   -5.1  87    0     984.0    NA       0.0000   FZFG     0400  0     0    
2019/08/29  18:59:00  BASE  1.50528  49   1.75224  46   -5.2  100   -5.2  83    0     983.9    NA       0.0000   FZFG     0400  0     0    
2019/08/29  19:00:00  BASE  1.79928  50   2.45196  58   -5.2  100   -5.2  80    0     983.9    NA       0.0000   FZFG     0350  0     0    
2019/08/29  19:01:00  BASE  1.86396  58   2.45196  58   -5.3  100   -5.3  79    0     983.9    NA       0.0000   FZFG     0400  0     0    
2019/08/29  19:02:00  BASE  1.81104  56   2.45196  58   -5.4  100   -5.4  80    0     983.9    NA       0.0000   FZFG     0300  0     0    
2019/08/29  19:03:00  BASE  1.85808  53   2.45196  58   -5.4  100   -5.5  78    0     984.0    NA       0.0000   FZFG     0300  0     0    
2019/08/29  19:04:00  BASE  1.86396  57   2.45196  58   -5.5  100   -5.5  73    0     984.0    NA       0.0000   FZFG     0250  0     0    
2019/08/29  19:05:00  BASE  1.8228   60   2.45196  58   -5.5  100   -5.5  69    0     984.1    NA       0.0000   FZFG     0250  0     0    
2019/08/29  19:06:00  BASE  1.42884  59   2.45196  58   -5.5  100   -5.5  66    0     984.1    NA       0.0000   FZFG     0250  0     0    
2019/08/29  19:07:00  BASE  1.176    56   2.45196  58   -5.5  100   -5.5  66    0     984.1    NA       0.0000   FZFG     0200  0     0    
2019/08/29  19:08:00  BASE  1.24068  59   2.45196  58   -5.5  100   -5.5  68    0     984.1    NA       0.0000   FZFG     0200  0     0    
2019/08/29  19:09:00  BASE  1.5582   59   2.45196  58   -5.5  100   -5.5  71    0     984.1    NA       0.0000   FZFG     0200  0     0    
2019/08/29  19:10:00  BASE  1.61112  57   2.1756   58   -5.5  100   -5.5  69    0     984.1    NA       0.0000   FZFG     0200  0     0    
2019/08/29  19:11:00  BASE  1.5288   54   2.1756   58   -5.5  100   -5.5  64    0     984.1    NA       0.0000   FZFG     0200  0     0    
2019/08/29  19:12:00  BASE  1.65228  49   2.1756   58   -5.5  100   -5.5  61    0     984.1    NA       0.0000   FZFG     0250  0     0    
2019/08/29  19:13:00  BASE  1.6464   40   2.1756   58   -5.4  100   -5.4  62    0     984.1    NA       0.0000   FZFG     0300  0     0    
2019/08/29  19:14:00  BASE  1.75224  33   2.1462   61   -5.4  100   -5.4  66    0     984.1    NA       0.0000   FZFG     0400  0     0    
2019/08/29  19:15:00  BASE  1.87572  33   2.1462   61   -5.4  100   -5.4  69    0     984.1    NA       0.0000   FZFG     0500  0     0    
2019/08/29  19:16:00  BASE  1.84044  34   2.1462   61   -5.4  100   -5.4  68    0     984.1    NA       0.0000   FZFG     0500  0     0    
2019/08/29  19:17:00  BASE  1.80516  34   2.1462   61   -5.5  100   -5.5  64    0     984.2    NA       0.0000   FZFG     0550  0     0    
2019/08/29  19:18:00  BASE  1.81104  32   2.1462   61   -5.5  100   -5.5  61    0     984.2    NA       0.0000   FZFG     0550  0     0    
2019/08/29  19:19:00  BASE  1.72284  32   1.9992   37   -5.5  100   -5.5  60    0     984.2    NA       0.0000   FZFG     0550  0     0    
2019/08/29  19:20:00  BASE  1.65228  32   1.9992   37   -5.6  100   -5.6  57    0     984.2    NA       0.0000   FZFG     0500  0     0    
2019/08/29  19:21:00  BASE  1.71696  31   1.9992   37   -5.6  100   -5.6  57    0     984.2    NA       0.0000   FZFG     0500  0     0    
2019/08/29  19:22:00  BASE  1.6464   29   1.9992   37   -5.6  100   -5.6  61    0     984.2    NA       0.0000   FZFG     0600  0     0    
2019/08/29  19:23:00  BASE  1.47588  29   1.9992   37   -5.6  100   -5.6  64    0     984.2    NA       0.0000   FZFG     0500  0     0    
2019/08/29  19:24:00  BASE  1.40532  29   1.9992   37   -5.6  100   -5.6  64    0     984.2    NA       0.0000   FZFG     0450  0     0    
2019/08/29  19:25:00  BASE  1.45236  30   1.96392  37   -5.6  100   -5.6  62    0     984.2    NA       0.0000   FZFG     0450  0     0    
2019/08/29  19:26:00  BASE  1.58172  29   1.96392  37   -5.6  100   -5.6  60    0     984.2    NA       0.0000   FZFG     0600  0     0    
2019/08/29  19:27:00  BASE  1.68756  28   1.96392  37   -5.6  100   -5.6  58    0     984.1    NA       0.0000   FZFG     0800  0     0    
2019/08/29  19:28:00  BASE  1.77576  29   1.93452  26   -5.6  100   -5.6  55    0     984.2    NA       0.0000   FZFG     0900  23230 0    
2019/08/29  19:29:00  BASE  1.71108  28   1.93452  26   -5.6  100   -5.6  51    0     984.2    NA       0.0000   FZFG     1100  0     0    
2019/08/29  19:30:00  BASE  1.60524  22   1.93452  26   -5.6  100   -5.6  49    0     984.2    NA       0.0000   FZFG     1100  0     0    
2019/08/29  19:31:00  BASE  1.69344  16   1.93452  26   -5.6  100   -5.6  48    0     984.2    NA       0.0000   FZFG     1300  0     0    
2019/08/29  19:32:00  BASE  1.78752  17   1.96392  24   -5.7  100   -5.7  49    0     984.2    NA       0.0000   FZFG     1200  0     0    
2019/08/29  19:33:00  BASE  1.81104  22   1.96392  21   -5.7  100   -5.7  51    0     984.2    NA       0.0000   FZFG     0900  0     0    
2019/08/29  19:34:00  BASE  1.7346   15   1.96392  21   -5.7  100   -5.7  52    0     984.2    NA       0.0000   FZFG     1000  0     0    
2019/08/29  19:35:00  BASE  1.5876   12   1.96392  21   -5.7  100   -5.7  53    0     984.2    NA       0.0000   BR       1400  0     0    
2019/08/29  19:36:00  BASE  1.57584  17   1.96392  21   -5.7  100   -5.7  52    0     984.2    NA       0.0000   BR       1300  0     0    
2019/08/29  19:37:00  BASE  1.5582   21   1.96392  21   -5.7  100   -5.7  50    0     984.2    NA       0.0000   BR       1800  0     0    
2019/08/29  19:38:00  BASE  1.42884  25   1.96392  21   -5.7  100   -5.7  48    0     984.2    NA       0.0000   BR       1300  0     0    
2019/08/29  19:39:00  BASE  1.34652  31   1.96392  21   -5.7  100   -5.7  44    0     984.2    NA       0.0000   BR       0800  0     0    
2019/08/29  19:40:00  BASE  1.34064  33   1.96392  21   -5.7  100   -5.7  42    0     984.2    NA       0.0000   BR       0600  0     0    
2019/08/29  19:41:00  BASE  1.42296  35   1.96392  21   -5.8  100   -5.8  41    0     984.2    NA       0.0000   BR       0700  0     0    
2019/08/29  19:42:00  BASE  1.4406   32   1.96392  21   -5.8  100   -5.8  39    0     984.2    NA       0.0000   BR       1200  0     0    
2019/08/29  19:43:00  BASE  1.28184  26   1.81692  16   -5.8  100   -5.8  39    0     984.2    NA       0.0000   BR       0800  0     0    
2019/08/29  19:44:00  BASE  1.12896  36   1.69344  19   -5.8  100   -5.8  39    0     984.3    NA       0.0000   BR       0550  0     0    
2019/08/29  19:45:00  BASE  1.0878   37   1.69344  19   -5.8  100   -5.8  41    0     984.3    NA       0.0000   FZFG     0300  0     0    
2019/08/29  19:46:00  BASE  1.18188  27   1.63464  34   -5.7  100   -5.7  39    0     984.3    NA       0.0000   FZFG     0400  0     0    
2019/08/29  19:47:00  BASE  1.2936   23   1.63464  34   -5.7  100   -5.7  34    0     984.3    NA       0.0000   FZFG     0900  0     0    
2019/08/29  19:48:00  BASE  1.10544  25   1.63464  34   -5.7  100   -5.7  32    0     984.3    NA       0.0000   FZFG     1300  0     0    
2019/08/29  19:49:00  BASE  0.90552  36   1.63464  34   -5.7  100   -5.7  32    0     984.3    NA       0.0000   FZFG     0650  0     0    
2019/08/29  19:50:00  BASE  1.0878   44   1.63464  34   -5.7  100   -5.7  32    0     984.4    NA       0.0000   FZFG     0600  0     0    
2019/08/29  19:51:00  BASE  1.25832  41   1.63464  34   -5.7  100   -5.7  34    0     984.5    NA       0.0000   FZFG     1100  0     0    
2019/08/29  19:52:00  BASE  1.14072  36   1.48176  37   -5.7  100   -5.7  38    0     984.5    NA       0.0000   FZFG     1100  0     0    
2019/08/29  19:53:00  BASE  1.0878   34   1.48176  37   -5.8  100   -5.8  40    0     984.5    NA       0.0000   FZFG     0800  0     0    
2019/08/29  19:54:00  BASE  1.176    30   1.48176  37   -5.8  100   -5.8  41    0     984.5    NA       0.0000   FZFG     1000  0     0    
2019/08/29  19:55:00  BASE  1.15836  26   1.48176  37   -5.8  100   -5.8  44    0     984.6    NA       0.0000   FZFG     1500  0     0    
2019/08/29  19:56:00  BASE  1.02312  25   1.48176  37   -5.8  100   -5.8  44    0     984.6    NA       0.0000   BR       1100  0     0    
2019/08/29  19:57:00  BASE  1.11132  23   1.54056  20   -5.8  100   -5.8  43    0     984.6    NA       0.0000   BR       0900  0     0    
2019/08/29  19:58:00  BASE  1.30536  22   1.54056  20   -5.8  100   -5.8  43    0     984.6    NA       0.0000   BR       0800  0     0    
2019/08/29  19:59:00  BASE  1.22892  22   1.54056  20   -5.8  100   -5.8  43    0     984.6    NA       0.0000   BR       0800  0     0    
2019/08/29  20:00:00  BASE  1.00548  21   1.54056  20   -5.8  100   -5.8  43    0     984.6    NA       0.0000   BR       0750  0     0    
2019/08/29  20:01:00  BASE  0.98196  19   1.54056  20   -5.8  100   -5.8  43    0     984.6    NA       0.0000   BR       0800  0     0    
2019/08/29  20:02:00  BASE  1.07016  13   1.54056  1    -5.8  100   -5.8  43    0     984.6    NA       0.0000   BR       0900  0     0    
2019/08/29  20:03:00  BASE  1.2642   359  1.63464  351  -5.8  100   -5.8  43    0     984.7    NA       0.0000   BR       0800  0     0    
2019/08/29  20:04:00  BASE  1.40532  357  1.63464  351  -5.8  100   -5.8  43    0     984.7    NA       0.0000   BR       0900  0     0    
2019/08/29  20:05:00  BASE  1.323    9    1.63464  351  -5.8  100   -5.8  43    0     984.7    NA       0.0000   BR       1200  0     0    
2019/08/29  20:06:00  BASE  1.32888  15   1.63464  351  -5.8  100   -5.8  39    0     984.7    NA       0.0000   BR       1200  0     0    
2019/08/29  20:07:00  BASE  1.39356  19   1.66404  27   -5.8  100   -5.8  32    0     984.7    NA       0.0000   BR       1000  0     0    
2019/08/29  20:08:00  BASE  1.45236  24   1.66404  27   -5.8  100   -5.8  28    0     984.7    NA       0.0000   BR       1000  0     0    
2019/08/29  20:09:00  BASE  1.4406   25   1.66404  27   -5.8  100   -5.8  26    0     984.7    NA       0.0000   BR       1100  0     0    
2019/08/29  20:10:00  BASE  1.39356  22   1.66404  27   -5.8  100   -5.8  27    0     984.7    NA       0.0000   BR       1300  0     0    
2019/08/29  20:11:00  BASE  1.3524   21   1.66404  27   -5.9  100   -5.9  30    0     984.8    NA       0.0000   BR       1300  0     0    
2019/08/29  20:12:00  BASE  1.45236  23   1.81692  16   -5.9  100   -5.9  33    0     984.8    NA       0.0000   BR       1300  0     0    
2019/08/29  20:13:00  BASE  1.61112  23   1.87572  14   -5.9  100   -5.9  33    0     984.8    NA       0.0000   BR       1300  0     0    
2019/08/29  20:14:00  BASE  1.64052  20   1.96392  11   -5.9  100   -5.9  32    0     984.8    NA       0.0000   BR       1100  0     0    
2019/08/29  20:15:00  BASE  1.65816  24   1.96392  11   -5.9  100   -5.9  31    0     984.8    NA       0.0000   BR       0800  0     0    
2019/08/29  20:16:00  BASE  1.68756  27   1.96392  17   -5.9  100   -5.9  31    0     984.8    NA       0.0000   BR       0600  0     0    
2019/08/29  20:17:00  BASE  1.59936  21   1.96392  17   -5.9  100   -5.9  30    0     984.8    NA       0.0000   BR       0750  0     0    
2019/08/29  20:18:00  BASE  1.75224  22   2.1462   23   -5.8  100   -5.8  27    0     984.8    NA       0.0000   BR       1000  0     0    
2019/08/29  20:19:00  BASE  1.96392  22   2.26968  31   -5.8  100   -5.8  24    0     984.8    NA       0.0000   BR       1000  0     0    
2019/08/29  20:20:00  BASE  2.0286   24   2.42256  26   -5.8  100   -5.8  22    0     984.8    NA       0.0000   BR       0900  0     0    
2019/08/29  20:21:00  BASE  2.0286   24   2.45196  33   -5.8  100   -5.8  21    0     984.8    NA       0.0000   BR       0750  0     0    
2019/08/29  20:22:00  BASE  1.79928  23   2.45196  33   -5.8  100   -5.8  20    0     984.8    NA       0.0000   BR       0900  0     0    
2019/08/29  20:23:00  BASE  1.56996  26   2.45196  33   -5.9  100   -5.9  19    0     984.8    NA       0.0000   FZFG     0800  0     0    
2019/08/29  20:24:00  BASE  1.5876   33   2.45196  33   -5.9  100   -5.9  21    0     984.8    NA       0.0000   FZFG     0600  0     0    
2019/08/29  20:25:00  BASE  1.72284  39   2.45196  33   -5.9  100   -5.9  24    0     984.8    NA       0.0000   FZFG     0450  0     0    
2019/08/29  20:26:00  BASE  1.92276  41   2.45196  33   -5.9  100   -5.9  23    0     984.8    NA       0.0000   FZFG     0450  0     0    
2019/08/29  20:27:00  BASE  2.06388  42   2.45196  33   -5.9  100   -5.9  21    0     984.8    NA       0.0000   FZFG     0500  0     0    
2019/08/29  20:28:00  BASE  1.99332  41   2.45196  33   -5.9  100   -5.9  19    0     984.8    NA       0.0000   FZFG     0600  0     0    
2019/08/29  20:29:00  BASE  2.07564  44   2.45196  33   -6.0  100   -6.0  19    0     984.8    NA       0.0000   FZFG     0550  0     0    
2019/08/29  20:30:00  BASE  2.205    45   2.45196  33   -6.0  100   -6.0  19    0     984.8    NA       0.0000   FZFG     0500  0     0    
2019/08/29  20:31:00  BASE  2.19324  44   2.35788  45   -6.1  100   -6.1  17    0     984.8    NA       0.0000   FZFG     0450  0     0    
2019/08/29  20:32:00  BASE  2.19912  42   2.35788  45   -6.1  100   -6.1  17    0     984.8    NA       0.0000   FZFG     0450  0     0    
2019/08/29  20:33:00  BASE  2.09916  41   2.35788  45   -6.1  100   -6.1  19    0     984.8    NA       0.0000   FZFG     0450  0     0    
2019/08/29  20:34:00  BASE  2.0874   44   2.35788  45   -6.1  100   -6.1  21    0     984.8    NA       0.0000   FZFG     0450  0     0    
2019/08/29  20:35:00  BASE  2.13444  50   2.35788  45   -6.1  100   -6.1  20    0     984.8    NA       0.0000   FZFG     0450  0     0    
2019/08/29  20:36:00  BASE  2.03448  54   2.35788  45   -6.1  100   -6.1  16    0     984.8    NA       0.0000   FZFG     0450  0     0    
2019/08/29  20:37:00  BASE  1.83456  55   2.35788  45   -6.2  100   -6.2  14    0     984.8    NA       0.0000   FZFG     0450  0     0    
2019/08/29  20:38:00  BASE  1.6758   56   2.35788  45   -6.2  100   -6.2  15    0     984.8    NA       0.0000   FZFG     0450  0     0    
2019/08/29  20:39:00  BASE  1.57584  57   2.32848  41   -6.2  100   -6.2  17    0     984.9    NA       0.0000   FZFG     0450  0     0    
2019/08/29  20:40:00  BASE  1.51116  56   2.32848  41   -6.2  100   -6.2  16    0     984.9    NA       0.0000   FZFG     0350  0     0    
2019/08/29  20:41:00  BASE  1.50528  56   2.32848  41   -6.2  100   -6.2  14    0     984.9    NA       0.0000   FZFG     0400  0     0    
2019/08/29  20:42:00  BASE  1.47588  57   2.32848  41   -6.2  100   -6.2  12    0     984.9    NA       0.0000   FZFG     0450  0     0    
2019/08/29  20:43:00  BASE  1.42296  59   2.32848  41   -6.2  100   -6.2  11    0     984.9    NA       0.0000   FZFG     0450  0     0    
2019/08/29  20:44:00  BASE  1.34652  59   2.26968  51   -6.2  100   -6.2  11    0     984.9    NA       0.0000   FZFG     0400  0     0    
2019/08/29  20:45:00  BASE  1.34064  57   2.0874   56   -6.2  100   -6.2  10    0     984.9    NA       0.0000   FZFG     0350  0     0    
2019/08/29  20:46:00  BASE  1.2936   55   1.87572  56   -6.2  100   -6.2  10    0     984.9    NA       0.0000   FZFG     0350  0     0    
2019/08/29  20:47:00  BASE  1.1466   56   1.72284  60   -6.2  100   -6.2  10    0     984.9    NA       0.0000   FZFG     0350  0     0    
2019/08/29  20:48:00  BASE  1.05252  54   1.69344  58   -6.2  100   -6.2  9     0     984.9    NA       0.0000   FZFG     0300  0     0    
2019/08/29  20:49:00  BASE  0.99372  50   1.60524  58   -6.2  100   -6.2  9     0     984.9    NA       0.0000   FZFG     0300  0     0    
2019/08/29  20:50:00  BASE  0.95256  47   1.60524  58   -6.2  100   -6.2  9     0     984.9    NA       0.0000   FZFG     0300  0     0    
2019/08/29  20:51:00  BASE  0.87024  45   1.57584  61   -6.2  100   -6.2  8     0     984.9    NA       0.0000   FZFG     0300  0     0    
2019/08/29  20:52:00  BASE  0.75852  39   1.51116  59   -6.1  100   -6.1  8     0     984.9    NA       0.0000   FZFG     0300  0     0    
2019/08/29  20:53:00  BASE  0.53508  44   1.51116  59   -6.1  100   -6.1  8     0     984.9    NA       0.0000   FZFG     0300  0     0    
2019/08/29  20:54:00  BASE  0.39396  63   1.51116  59   -6.1  100   -6.1  8     0     984.9    NA       0.0000   FZFG     0300  0     0    
2019/08/29  20:55:00  BASE  0.78204  62   1.32888  53   -6.1  100   -6.1  8     0     984.9    NA       0.0000   FZFG     0300  0     0    
2019/08/29  20:56:00  BASE  0.9996   62   1.35828  83   -6.1  100   -6.1  7     0     984.9    NA       0.0000   FZFG     0250  0     0    
2019/08/29  20:57:00  BASE  0.85848  68   1.35828  83   -6.2  100   -6.2  7     0     984.9    NA       0.0000   FZFG     0250  0     0    
2019/08/29  20:58:00  BASE  0.9702   74   1.35828  83   -6.2  100   -6.2  7     0     985.0    NA       0.0000   FZFG     0250  0     0    
2019/08/29  20:59:00  BASE  1.03488  87   1.35828  83   -6.2  100   -6.2  6     0     985.1    NA       0.0000   FZFG     0250  0     0    
2019/08/29  21:00:00  BASE  1.05252  89   1.35828  83   -6.3  100   -6.3  6     0     985.1    NA       0.0000   FZFG     0250  0     0    
2019/08/29  21:01:00  BASE  1.24656  89   1.48176  87   -6.3  100   -6.3  6     0     985.1    NA       0.0000   FZFG     0250  0     0    
2019/08/29  21:02:00  BASE  0.9114   89   1.48176  87   -6.4  100   -6.4  6     0     985.1    NA       0.0000   FZFG     0300  0     0    
2019/08/29  21:03:00  BASE  0.74676  88   1.81692  83   -6.4  100   -6.4  6     0     985.1    NA       0.0000   FZFG     0300  0     0    
2019/08/29  21:04:00  BASE  1.28772  88   1.87572  86   -6.4  100   -6.4  5     0     985.1    NA       0.0000   FZFG     0350  0     0    
2019/08/29  21:05:00  BASE  1.54644  88   1.87572  86   -6.5  100   -6.5  5     0     985.1    NA       0.0000   FZFG     0400  0     0    
2019/08/29  21:06:00  BASE  1.28772  93   1.87572  86   -6.5  100   -6.5  5     0     985.1    NA       0.0000   FZFG     0400  0     0    
2019/08/29  21:07:00  BASE  0.95256  98   1.87572  86   -6.5  100   -6.5  5     0     985.1    NA       0.0000   FZFG     0500  0     0    
2019/08/29  21:08:00  BASE  0.92904  98   1.87572  86   -6.6  100   -6.6  4     0     985.1    NA       0.0000   FZFG     0550  0     0    
2019/08/29  21:09:00  BASE  0.89964  97   1.87572  86   -6.6  100   -6.6  4     0     985.2    NA       0.0000   FZFG     0600  0     0    
2019/08/29  21:10:00  BASE  0.50568  98   1.87572  86   -6.7  100   -6.7  4     0     985.2    NA       0.0000   FZFG     0550  0     0    
2019/08/29  21:11:00  BASE  0.0882   109  1.87572  86   -6.7  100   -6.7  4     0     985.2    NA       0.0000   FZFG     0400  0     0    
2019/08/29  21:12:00  BASE  0        134  1.87572  86   -6.7  100   -6.7  4     0     985.2    NA       0.0000   FZFG     0300  0     0    
2019/08/29  21:13:00  BASE  0        140  1.87572  86   -6.7  100   -6.7  4     0     985.2    NA       0.0000   FZFG     0300  0     0    
2019/08/29  21:14:00  BASE  0.16464  123  1.81692  86   -6.6  100   -6.6  3     0     985.2    NA       0.0000   FZFG     0300  0     0    
2019/08/29  21:15:00  BASE  0.16464  120  1.42296  85   -6.6  100   -6.6  3     0     985.2    NA       0.0000   FZFG     0300  0     0    
2019/08/29  21:16:00  BASE  0        126  1.1172   96   -6.6  100   -6.6  3     0     985.2    NA       0.0000   FZFG     0300  0     0    
2019/08/29  21:17:00  BASE  0        127  1.1172   96   -6.6  100   -6.6  3     0     985.2    NA       0.0000   FZFG     0300  0     0    
2019/08/29  21:18:00  BASE  0        127  0.9996   95   -6.6  100   -6.6  3     0     985.2    NA       0.0000   FZFG     0300  0     0    
2019/08/29  21:19:00  BASE  0        127  0.72324  99   -6.5  100   -6.5  3     0     985.3    NA       0.0000   FZFG     0300  0     0    
2019/08/29  21:20:00  BASE  0        120  0.69384  110  -6.5  100   -6.5  3     0     985.3    NA       0.0000   FZFG     0300  0     0    
2019/08/29  21:21:00  BASE  0        110  0.69384  110  -6.5  100   -6.5  3     0     985.3    NA       0.0000   FZFG     0250  0     0    
2019/08/29  21:22:00  BASE  0        107  0.69384  110  -6.5  100   -6.5  2     0     985.3    NA       0.0000   FZFG     0250  0     0    
2019/08/29  21:23:00  BASE  0        104  0.69384  110  -6.5  100   -6.5  2     0     985.3    NA       0.0000   FZFG     0250  0     0    
2019/08/29  21:24:00  BASE  0        102  0        M    -6.5  100   -6.5  2     0     985.4    NA       0.0000   FZFG     0250  0     0    
2019/08/29  21:25:00  BASE  0        101  0        M    -6.5  100   -6.5  2     0     985.4    NA       0.0000   FZFG     0250  0     0    
2019/08/29  21:26:00  BASE  0        101  0        M    -6.5  100   -6.5  2     0     985.4    NA       0.0000   FZFG     0250  0     0    
2019/08/29  21:27:00  BASE  0        101  0        M    -6.4  100   -6.4  2     0     985.4    NA       0.0000   FZFG     0250  0     0    
2019/08/29  21:28:00  BASE  0        97   0        M    -6.4  100   -6.4  2     0     985.4    NA       0.0000   FZFG     0250  0     0    
2019/08/29  21:29:00  BASE  0        89   0        M    -6.4  100   -6.4  2     0     985.4    NA       0.0000   FZFG     0250  0     0    
2019/08/29  21:30:00  BASE  0.2058   69   0.81732  51   -6.4  100   -6.4  2     0     985.4    NA       0.0000   FZFG     0250  0     0    
2019/08/29  21:31:00  BASE  0.588    52   0.81732  51   -6.4  100   -6.4  2     0     985.4    NA       0.0000   FZFG     0250  0     0    
2019/08/29  21:32:00  BASE  0.77028  49   0.87612  50   -6.4  100   -6.4  1     0     985.4    NA       0.0000   FZFG     0250  0     0    
2019/08/29  21:33:00  BASE  0.87612  50   1.029    50   -6.4  100   -6.4  1     0     985.4    NA       0.0000   FZFG     0250  0     0    
2019/08/29  21:34:00  BASE  0.97608  50   1.029    49   -6.4  100   -6.4  1     0     985.4    NA       0.0000   FZFG     0250  0     0    
2019/08/29  21:35:00  BASE  1.00548  45   1.21128  38   -6.4  100   -6.4  1     0     985.4    NA       0.0000   FZFG     0300  0     0    
2019/08/29  21:36:00  BASE  1.05252  43   1.21128  38   -6.4  100   -6.4  1     0     985.5    NA       0.0000   FZFG     0350  0     0    
2019/08/29  21:37:00  BASE  1.2348   49   1.60524  54   -6.4  100   -6.4  1     0     985.5    NA       0.0000   FZFG     0350  0     0    
2019/08/29  21:38:00  BASE  1.54644  53   1.75224  53   -6.4  100   -6.4  1     0     985.5    NA       0.0000   FZFG     0350  0     0    
2019/08/29  21:39:00  BASE  1.71108  54   1.81692  54   -6.4  100   -6.4  1     0     985.4    NA       0.0000   FZFG     0400  0     0    
2019/08/29  21:40:00  BASE  1.80516  54   2.0286   54   -6.4  100   -6.4  1     0     985.4    NA       0.0000   FZFG     0400  0     0    
2019/08/29  21:41:00  BASE  1.94628  55   2.058    58   -6.5  100   -6.5  1     0     985.4    NA       0.0000   FZFG     0450  0     0    
2019/08/29  21:42:00  BASE  1.9698   57   2.0874   58   -6.5  100   -6.5  1     0     985.4    NA       0.0000   FZFG     0450  0     0    
2019/08/29  21:43:00  BASE  1.95216  61   2.1462   64   -6.6  100   -6.6  0     0     985.4    NA       0.0000   FZFG     0400  0     0    
2019/08/29  21:44:00  BASE  2.07564  65   2.42256  67   -6.6  100   -6.6  0     0     985.4    NA       0.0000   FZFG     0400  0     0    
2019/08/29  21:45:00  BASE  2.26968  68   2.42256  71   -6.6  100   -6.6  0     0     985.4    NA       0.0000   FZFG     0450  0     0    
2019/08/29  21:46:00  BASE  2.32848  68   2.42256  66   -6.6  100   -6.6  0     0     985.4    NA       0.0000   FZFG     1200  0     0    
2019/08/29  21:47:00  BASE  2.28732  65   2.42256  66   -6.7  100   -6.7  0     0     985.4    NA       0.0000   FZFG     1500  0     0    
2019/08/29  21:48:00  BASE  2.31084  61   2.45196  61   -6.7  100   -6.7  0     0     985.4    NA       0.0000   FZFG     2200  7810  0    
2019/08/29  21:49:00  BASE  2.29908  59   2.45196  61   -6.8  100   -6.8  0     0     985.4    NA       0.0000   FZFG     3500  7780  0    
2019/08/29  21:50:00  BASE  2.31672  59   2.63424  63   -6.8  100   -6.8  0     0     985.4    NA       0.0000   FZFG     5000  7740  0    
2019/08/29  21:51:00  BASE  2.2638   58   2.63424  63   -6.8  100   -6.8  0     0     985.4    NA       0.0000   FZFG     6000  160   7680 
2019/08/29  21:52:00  BASE  2.0286   59   2.63424  63   -6.8  100   -6.8  0     0     985.4    NA       0.0000   BR       9999  7610  0    
2019/08/29  21:53:00  BASE  1.75224  56   2.63424  63   -6.9  100   -6.9  0     0     985.4    NA       0.0000   BR       9999  7550  0    
2019/08/29  21:54:00  BASE  1.46412  55   2.63424  63   -6.9  100   -6.9  0     0     985.4    NA       0.0000   BR       9999  7640  0    
2019/08/29  21:55:00  BASE  1.27008  58   2.63424  63   -6.9  100   -6.9  0     0     985.4    NA       0.0000   BR       9000  7610  0    
2019/08/29  21:56:00  BASE  1.09368  59   2.63424  63   -7.0  100   -7.0  0     0     985.4    NA       0.0000   BR       9999  200   7610 
2019/08/29  21:57:00  BASE  1.01724  54   2.63424  63   -7.0  100   -7.0  0     0     985.4    NA       0.0000   BR       9999  7610  0    
2019/08/29  21:58:00  BASE  1.029    45   2.63424  63   -7.0  100   -7.0  0     0     985.4    NA       0.0000   BR       9999  7580  0    
2019/08/29  21:59:00  BASE  0.96432  39   2.63424  63   -7.0  100   -7.0  0     0     985.4    NA       0.0000   BR       9999  7510  0    
2019/08/29  22:00:00  BASE  0.882    35   2.26968  57   -7.0  100   -7.0  0     0     985.4    NA       0.0000   BR       7000  7480  0    
2019/08/29  22:01:00  BASE  0.7056   34   2.0874   58   -6.9  100   -6.9  0     0     985.4    NA       0.0000   BR       6000  7550  0    
2019/08/29  22:02:00  BASE  0.31164  29   1.72284  52   -6.9  100   -6.9  0     0     985.4    NA       0.0000   BR       7000  7480  0    
2019/08/29  22:03:00  BASE  0.0294   19   1.54056  62   -6.8  100   -6.8  0     0     985.4    NA       0.0000   BR       9999  7480  0    
2019/08/29  22:04:00  BASE  0        14   1.54056  62   -6.8  100   -6.8  0     0     985.4    NA       0.0000   BR       9999  7510  0    
2019/08/29  22:05:00  BASE  0        13   1.21128  53   -6.8  100   -6.8  0     0     985.5    NA       0.0000   BR       9999  7550  0    
2019/08/29  22:06:00  BASE  0        14   1.1466   48   -6.7  100   -6.7  0     0     985.5    NA       0.0000   BR       9999  7550  0    
2019/08/29  22:07:00  BASE  0        15   1.0878   40   -6.7  100   -6.7  0     0     985.4    NA       0.0000   9999     7550  0     0    
2019/08/29  22:08:00  BASE  0        15   1.029    37   -6.6  100   -6.6  0     0     985.5    NA       0.0000   9999     7610  0     0    
2019/08/29  22:09:00  BASE  0        14   0.9996   39   -6.6  100   -6.6  0     0     985.5    NA       0.0000   9999     7580  0     0    
2019/08/29  22:10:00  BASE  0        13   0.75852  35   -6.6  100   -6.6  0     0     985.5    NA       0.0000   9999     7580  0     0    
2019/08/29  22:11:00  BASE  0        352  0.63504  34   -6.6  100   -6.6  0     0     985.5    NA       0.0000   9999     7640  0     0    
2019/08/29  22:12:00  BASE  0        320  0        M    -6.6  100   -6.6  0     0     985.4    NA       0.0000   9999     7580  0     0    
2019/08/29  22:13:00  BASE  0        308  0        M    -6.6  100   -6.6  0     0     985.5    NA       0.0000   9999     7640  0     0    
2019/08/29  22:14:00  BASE  0        308  0        M    -6.6  100   -6.6  0     0     985.5    NA       0.0000   9999     7740  0     0    
2019/08/29  22:15:00  BASE  0        308  0        M    -6.6  100   -6.6  0     0     985.6    NA       0.0000   9999     7740  0     0    
2019/08/29  22:16:00  BASE  0        309  0        M    -6.5  100   -6.5  0     0     985.5    NA       0.0000   9999     7680  0     0    
2019/08/29  22:17:00  BASE  0        318  0        M    -6.5  100   -6.5  0     0     985.6    NA       0.0000   9999     7640  0     0    
2019/08/29  22:18:00  BASE  0        332  0        M    -6.5  100   -6.5  0     0     985.6    NA       0.0000   9999     7680  0     0    
2019/08/29  22:19:00  BASE  0        338  0        M    -6.5  100   -6.5  0     0     985.6    NA       0.0000   9999     7710  0     0    
2019/08/29  22:20:00  BASE  0        337  0        M    -6.5  100   -6.5  0     0     985.6    NA       0.0000   9999     7780  0     0    
2019/08/29  22:21:00  BASE  0        325  0        M    -6.5  100   -6.5  0     0     985.7    NA       0.0000   9999     7840  0     0    
2019/08/29  22:22:00  BASE  0        279  0        M    -6.4  100   -6.4  0     0     985.7    NA       0.0000   9999     7840  0     0    
2019/08/29  22:23:00  BASE  0        253  0        M    -6.4  100   -6.4  0     0     985.7    NA       0.0000   9999     7910  0     0    
2019/08/29  22:24:00  BASE  0        247  0        M    -6.4  100   -6.4  0     0     985.7    NA       0.0000   9999     7910  0     0    
2019/08/29  22:25:00  BASE  0        219  0        M    -6.5  100   -6.5  0     0     985.7    NA       0.0000   9999     0     0     0    
2019/08/29  22:26:00  BASE  0        198  0        M    -6.5  100   -6.5  0     0     985.7    NA       0.0000   9999     7810  0     0    
2019/08/29  22:27:00  BASE  0        196  0        M    -6.5  100   -6.5  0     0     985.8    NA       0.0000   9999     0     0     0    
2019/08/29  22:28:00  BASE  0        194  0        M    -6.5  100   -6.5  0     0     985.8    NA       0.0000   9999     0     0     0    
2019/08/29  22:29:00  BASE  0.09996  199  0.63504  213  -6.5  100   -6.5  0     0     985.8    NA       0.0000   9999     0     0     0    
2019/08/29  22:30:00  BASE  0.44688  212  0.84672  228  -6.5  100   -6.5  0     0     985.8    NA       0.0000   9999     0     0     0    
2019/08/29  22:31:00  BASE  0.8526   224  1.21128  227  -6.5  100   -6.5  0     0     985.8    NA       0.0000   9999     0     0     0    
2019/08/29  22:32:00  BASE  1.02312  230  1.21128  227  -6.5  100   -6.5  0     0     985.8    NA       0.0000   9999     0     0     0    
2019/08/29  22:33:00  BASE  0.9996   233  1.21128  227  -6.5  100   -6.5  0     0     985.9    NA       0.0000   9999     0     0     0    
2019/08/29  22:34:00  BASE  0.89376  238  1.21128  227  -6.5  100   -6.5  0     0     985.9    NA       0.0000   9999     0     0     0    
2019/08/29  22:35:00  BASE  0.441    242  1.21128  227  -6.5  100   -6.5  0     0     985.9    NA       0.0000   6000     0     0     0    
2019/08/29  22:36:00  BASE  0.0294   247  1.21128  227  -6.5  100   -6.5  0     0     985.9    NA       0.0000   BR       3300  0     0    
2019/08/29  22:37:00  BASE  0        247  1.21128  227  -6.6  100   -6.6  0     0     985.9    NA       0.0000   BR       1700  0     0    
2019/08/29  22:38:00  BASE  0        247  1.21128  227  -6.6  100   -6.6  0     0     986.0    NA       0.0000   BR       1500  0     0    
2019/08/29  22:39:00  BASE  0        247  1.21128  227  -6.6  100   -6.6  0     0     985.9    NA       0.0000   BR       1700  8300  0    
2019/08/29  22:40:00  BASE  0        247  1.21128  227  -6.7  100   -6.7  0     0     986.0    NA       0.0000   BR       2500  0     0    
2019/08/29  22:41:00  BASE  0        257  1.1466   231  -6.7  100   -6.7  0     0     986.0    NA       0.0000   BR       3000  0     0    
2019/08/29  22:42:00  BASE  0        337  1.0878   237  -6.6  100   -6.6  0     0     986.0    NA       0.0000   BR       3000  0     0    
2019/08/29  22:43:00  BASE  0        44   1.029    238  -6.6  100   -6.6  0     0     986.0    NA       0.0000   BR       2200  0     0    
2019/08/29  22:44:00  BASE  0        64   0.66444  233  -6.6  100   -6.6  0     0     986.0    NA       0.0000   BR       1600  0     0    
2019/08/29  22:45:00  BASE  0.19992  67   0.75852  71   -6.6  100   -6.6  0     0     986.0    NA       0.0000   BR       1300  0     0    
2019/08/29  22:46:00  BASE  0.68208  70   1.24068  68   -6.6  100   -6.6  0     0     986.0    NA       0.0000   BR       1400  8140  0    
2019/08/29  22:47:00  BASE  1.07016  71   1.29948  70   -6.6  100   -6.6  0     0     986.0    NA       0.0000   BR       3200  0     0    
2019/08/29  22:48:00  BASE  1.2054   70   1.35828  72   -6.6  100   -6.6  0     0     986.0    NA       0.0000   BR       9000  0     0    
2019/08/29  22:49:00  BASE  1.22304  71   1.35828  72   -6.6  100   -6.6  0     0     986.0    NA       0.0000   BR       9999  0     0    
2019/08/29  22:50:00  BASE  1.176    71   1.35828  72   -6.7  100   -6.7  0     0     986.0    NA       0.0000   BR       9999  0     0    
2019/08/29  22:51:00  BASE  1.16424  68   1.35828  72   -6.7  100   -6.7  0     0     986.0    NA       0.0000   BR       9999  0     0    
2019/08/29  22:52:00  BASE  1.14072  69   1.35828  72   -6.7  100   -6.7  0     0     986.0    NA       0.0000   BR       9999  0     0    
2019/08/29  22:53:00  BASE  1.06428  74   1.35828  72   -6.7  100   -6.7  0     0     986.0    NA       0.0000   BR       9999  0     0    
2019/08/29  22:54:00  BASE  0.98196  82   1.35828  72   -6.7  100   -6.7  0     0     986.0    NA       0.0000   BR       9999  0     0    
2019/08/29  22:55:00  BASE  0.88788  89   1.35828  72   -6.7  100   -6.7  0     0     986.0    NA       0.0000   BR       9999  0     0    
2019/08/29  22:56:00  BASE  0.8526   99   1.35828  72   -6.7  100   -6.7  0     0     986.0    NA       0.0000   9999     0     0     0    
2019/08/29  22:57:00  BASE  0.90552  117  1.35828  72   -6.7  100   -6.7  0     0     986.0    NA       0.0000   9999     0     0     0    
2019/08/29  22:58:00  BASE  0.90552  132  1.27008  73   -6.8  100   -6.8  0     0     986.0    NA       0.0000   9999     0     0     0    
2019/08/29  22:59:00  BASE  0.882    150  1.24068  65   -6.8  100   -6.8  0     0     986.0    NA       0.0000   9999     0     0     0    
2019/08/29  23:00:00  BASE  0.9996   165  1.24068  65   -6.9  100   -6.9  0     0     986.0    NA       0.0000   9999     0     0     0    
2019/08/29  23:01:00  BASE  1.18188  175  1.35828  181  -6.9  100   -6.9  0     0     986.0    NA       0.0000   9999     0     0     0    
2019/08/29  23:02:00  BASE  1.34064  183  1.48176  189  -6.9  100   -6.9  0     0     986.0    NA       0.0000   9999     0     0     0    
2019/08/29  23:03:00  BASE  1.4406   185  1.57584  189  -6.8  100   -6.8  0     0     986.0    NA       0.0000   9999     0     0     0    
2019/08/29  23:04:00  BASE  1.48176  187  1.63464  185  -6.7  100   -6.7  0     0     986.0    NA       0.0000   9999     0     0     0    
2019/08/29  23:05:00  BASE  1.6464   184  1.96392  181  -6.7  100   -6.7  0     0     986.0    NA       0.0000   9999     0     0     0    
2019/08/29  23:06:00  BASE  1.71108  183  1.96392  181  -6.7  100   -6.7  0     0     986.0    NA       0.0000   9999     0     0     0    
2019/08/29  23:07:00  BASE  1.5876   186  1.96392  181  -6.8  100   -6.8  0     0     986.0    NA       0.0000   9999     0     0     0    
2019/08/29  23:08:00  BASE  1.54056  186  1.96392  181  -6.9  100   -6.9  0     0     986.0    NA       0.0000   9999     0     0     0    
2019/08/29  23:09:00  BASE  1.51116  188  1.96392  181  -7.0  100   -7.0  0     0     986.1    NA       0.0000   9999     0     0     0    
2019/08/29  23:10:00  BASE  1.47588  190  1.96392  181  -7.1  100   -7.1  0     0     986.2    NA       0.0000   9999     0     0     0    
2019/08/29  23:11:00  BASE  1.48176  191  1.96392  181  -7.1  100   -7.1  0     0     986.2    NA       0.0000   9999     0     0     0    
2019/08/29  23:12:00  BASE  1.47     186  1.96392  181  -7.1  100   -7.1  0     0     986.2    NA       0.0000   9999     0     0     0    
2019/08/29  23:13:00  BASE  1.51116  183  1.96392  181  -7.1  100   -7.1  0     0     986.2    NA       0.0000   9999     0     0     0    
2019/08/29  23:14:00  BASE  1.60524  182  1.96392  181  -7.1  100   -7.1  0     0     986.2    NA       0.0000   9999     0     0     0    
2019/08/29  23:15:00  BASE  1.6464   175  1.90512  186  -7.1  100   -7.1  0     0     986.2    NA       0.0000   9999     0     0     0    
2019/08/29  23:16:00  BASE  1.64052  170  1.75224  167  -7.1  100   -7.1  0     0     986.2    NA       0.0000   9999     0     0     0    
2019/08/29  23:17:00  BASE  1.59348  165  1.75224  162  -7.1  100   -7.1  0     0     986.2    NA       0.0000   9999     0     0     0    
2019/08/29  23:18:00  BASE  1.55232  155  1.75224  149  -7.1  100   -7.1  0     0     986.2    NA       0.0000   9999     0     0     0    
2019/08/29  23:19:00  BASE  1.48176  143  1.75224  149  -7.2  100   -7.2  0     0     986.2    NA       0.0000   9999     0     0     0    
2019/08/29  23:20:00  BASE  1.39356  135  1.75224  149  -7.2  100   -7.2  0     0     986.3    NA       0.0000   9999     0     0     0    
2019/08/29  23:21:00  BASE  1.25244  132  1.75224  149  -7.2  100   -7.2  0     0     986.3    NA       0.0000   9999     0     0     0    
2019/08/29  23:22:00  BASE  1.07604  125  1.75224  149  -7.1  100   -7.1  0     0     986.3    NA       0.0000   9999     0     0     0    
2019/08/29  23:23:00  BASE  0.882    126  1.75224  149  -7.0  100   -7.0  0     0     986.3    NA       0.0000   9999     0     0     0    
2019/08/29  23:24:00  BASE  0.43512  121  1.75224  149  -6.8  100   -6.8  0     0     986.4    NA       0.0000   9999     0     0     0    
2019/08/29  23:25:00  BASE  0.6468   110  1.75224  149  -6.7  100   -6.7  0     0     986.4    NA       0.0000   9999     0     0     0    
2019/08/29  23:26:00  BASE  1.32888  101  1.75224  90   -6.8  100   -6.8  0     0     986.4    NA       0.0000   9999     0     0     0    
2019/08/29  23:27:00  BASE  1.30536  97   1.75224  90   -6.9  100   -6.9  0     0     986.4    NA       0.0000   9999     300   0     0    
2019/08/29  23:28:00  BASE  1.09368  101  1.75224  90   -7.0  100   -7.0  0     0     986.4    NA       0.0000   9999     300   0     0    
2019/08/29  23:29:00  BASE  0.9996   105  1.75224  90   -7.0  100   -7.0  0     0     986.5    NA       0.0000   9999     260   0     0    
2019/08/29  23:30:00  BASE  0.98784  107  1.75224  90   -7.0  100   -7.0  0     0     986.5    NA       0.0000   9999     300   0     0    
2019/08/29  23:31:00  BASE  0.9702   105  1.75224  90   -7.0  100   -7.0  0     0     986.5    NA       0.0000   9999     260   0     0    
2019/08/29  23:32:00  BASE  0.92316  95   1.75224  90   -6.9  100   -6.9  0     0     986.5    NA       0.0000   9999     260   0     0    
2019/08/29  23:33:00  BASE  1.10544  76   1.75224  90   -6.8  100   -6.8  0     0     986.5    NA       0.0000   9999     260   0     0    
2019/08/29  23:34:00  BASE  1.33476  61   1.75224  90   -6.9  100   -6.9  0     0     986.5    NA       0.0000   9999     260   0     0    
2019/08/29  23:35:00  BASE  1.34064  51   1.75224  90   -6.9  100   -6.9  0     0     986.5    NA       0.0000   9999     260   0     0    
2019/08/29  23:36:00  BASE  1.17012  47   1.45236  58   -6.9  100   -6.9  0     0     986.5    NA       0.0000   9999     260   0     0    
2019/08/29  23:37:00  BASE  0.92904  48   1.45236  58   -7.0  100   -7.0  0     0     986.6    NA       0.0000   9999     330   0     0    
2019/08/29  23:38:00  BASE  0.78792  48   1.45236  58   -7.0  100   -7.0  0     0     986.6    NA       0.0000   9999     330   0     0    
2019/08/29  23:39:00  BASE  0.80556  49   1.45236  58   -7.0  100   -7.0  0     0     986.6    NA       0.0000   9999     260   0     0    
2019/08/29  23:40:00  BASE  0.78792  51   1.45236  58   -7.0  100   -7.0  0     0     986.6    NA       0.0000   9999     200   0     0    
2019/08/29  23:41:00  BASE  0.3822   49   1.45236  58   -7.0  100   -7.0  0     0     986.6    NA       0.0000   9999     300   0     0    
2019/08/29  23:42:00  BASE  0.21756  53   1.45236  58   -7.0  100   -7.0  0     0     986.6    NA       0.0000   9999     360   0     0    
2019/08/29  23:43:00  BASE  0.18816  59   1.45236  58   -7.0  100   -7.0  0     0     986.6    NA       0.0000   9999     330   0     0    
2019/08/29  23:44:00  BASE  0        71   1.35828  45   -6.9  100   -6.9  0     0     986.6    NA       0.0000   9999     200   0     0    
2019/08/29  23:45:00  BASE  0.34692  98   1.24068  49   -6.9  100   -6.9  0     0     986.6    NA       0.0000   9999     200   0     0    
2019/08/29  23:46:00  BASE  0.78204  109  1.1466   113  -6.8  100   -6.8  0     0     986.6    NA       0.0000   8000     0     0     0    
2019/08/29  23:47:00  BASE  0.58212  115  1.1466   113  -6.7  100   -6.7  0     0     986.6    NA       0.0000   9999     0     0     0    
2019/08/29  23:48:00  BASE  0.147    110  1.1466   113  -6.6  100   -6.6  0     0     986.7    NA       0.0000   9999     160   0     0    
2019/08/29  23:49:00  BASE  0        86   1.1466   113  -6.5  100   -6.5  0     0     986.7    NA       0.0000   9999     230   0     0    
2019/08/29  23:50:00  BASE  0        74   1.1466   113  -6.5  100   -6.5  0     0     986.7    NA       0.0000   9999     230   0     0    
2019/08/29  23:51:00  BASE  0        68   1.1466   113  -6.5  100   -6.5  0     0     986.8    NA       0.0000   9999     160   0     0    
2019/08/29  23:52:00  BASE  0        64   1.1466   113  -6.6  100   -6.6  0     0     986.8    NA       0.0000   9999     230   0     0    
2019/08/29  23:53:00  BASE  0        62   1.1466   113  -6.6  100   -6.6  0     0     986.8    NA       0.0000   9999     200   0     0    
2019/08/29  23:54:00  BASE  0        61   1.1466   113  -6.6  100   -6.6  0     0     986.8    NA       0.0000   9999     0     0     0    
2019/08/29  23:55:00  BASE  0        57   1.1466   113  -6.6  100   -6.6  0     0     986.8    NA       0.0000   4700     0     0     0    
2019/08/29  23:56:00  BASE  0        38   0.9702   138  -6.5  100   -6.5  0     0     986.8    NA       0.0000   BR       3200  0     0    
2019/08/29  23:57:00  BASE  0        307  0        M    -6.5  100   -6.5  0     0     986.8    NA       0.0000   BR       2500  0     0    
2019/08/29  23:58:00  BASE  0        278  0        M    -6.4  100   -6.4  0     0     986.8    NA       0.0000   BR       2000  0     0    
2019/08/29  23:59:00  BASE  0        234  0        M    -6.4  100   -6.4  0     0     986.8    NA       0.0000   BR       1800  0     0